[[{"header":{"parameterUnit":"m.s-1","parameterCategory":1,"la1":31.0,"la2":29.5877,"lo1":-88.7671,"lo2":-86.6584,"dy":0.0162,"dx":0.0185,"nx":115,"ny":88,"refTime":"2026-04-20T12:00:00:Z","depth":0,"parameterNumber":2,"parameterNumberName":"U-component_of_WINDS"},"data":[0.0,0.0,0.0,0.0,0.0,0.0,0.0,0.0,0.0,0.0,0.0,0.0,0.0,0.0,0.0,0.0,0.0,0.0,0.0,0.0,0.0,0.0,0.0,0.0,0.0,0.0,0.0,0.0,0.0,0.0,0.0,0.0,0.0,0.0,0.0,0.0,0.0,0.0,0.0,0.0,0.0,0.0,0.0,0.0,0.0,0.0,0.0,0.0,0.0,0.0,0.0,0.0,0.0,0.0,0.0,0.0,0.0,0.0,0.0,0.0,0.0,0.0,0.0,0.0,0.0,0.0,0.0,0.0,0.0,0.0,0.0,0.0,0.0,0.0,0.0,0.0,0.0,0.0,0.0,0.0,0.0,0.0,0.0,0.0,0.0,0.0,0.0,0.0,0.0,0.0,0.0,0.0,0.0,0.0,0.0,0.0,0.0,0.0,0.0,0.0,0.0,0.0,0.0,0.0,0.0,0.0,0.0,0.0,0.0,0.0,0.0,0.0,0.0,0.0,0.0,0.0,0.0,0.0,0.0,0.0,0.0,0.0,0.0,0.0,0.0,0.0,0.0,0.0,0.0,0.0,0.0,0.0,0.0,0.0,0.0,0.0,0.0,0.0,0.0,0.0,0.0,0.0,0.0,0.0,0.0,0.0,0.0,0.0,0.0,0.0,0.0,0.0,0.0,0.0,0.0,0.0,0.0,0.0,0.0,0.0,0.0,0.0,0.0,0.0,0.0,0.0,0.0,0.0,0.0,0.0,0.0,0.0,0.0,0.0,0.0,0.0,0.0,0.0,0.0,0.0,0.0,0.0,0.0,0.0,0.0,0.0,0.0,0.0,0.0,0.0,0.0,0.0,0.0,0.0,0.0,0.0,0.0,0.0,0.0,0.0,0.0,0.0,0.0,0.0,0.0,0.0,0.0,0.0,0.0,0.0,0.0,0.0,0.0,0.0,0.0,0.0,0.0,0.0,0.0,0.0,0.0,0.0,0.0,0.0,0.0,0.0,0.0,0.0,0.0,0.0,0.0,0.0,0.0,0.0,0.0,0.0,0.0,0.0,0.0,0.0,0.0,0.0,0.0,0.0,0.0,0.0,0.0,0.0,0.0,0.0,0.0,0.0,0.0,0.0,0.0,0.0,0.0,0.0,0.0,0.0,0.0,0.0,0.0,0.0,0.0,0.0,0.0,0.0,0.0,0.0,0.0,0.0,0.0,0.0,0.0,0.0,0.0,0.0,0.0,0.0,0.0,0.0,0.0,0.0,0.0,0.0,0.0,0.0,0.0,0.0,0.0,0.0,0.0,0.0,0.0,0.0,0.0,0.0,0.0,0.0,0.0,0.0,0.0,0.0,0.0,0.0,0.0,0.0,0.0,0.0,0.0,0.0,0.0,0.0,0.0,0.0,0.0,0.0,0.0,0.0,0.0,0.0,0.0,0.0,0.0,0.0,0.0,0.0,0.0,0.0,0.0,0.0,0.0,0.0,0.0,0.0,0.0,0.0,0.0,0.0,0.0,0.0,0.0,0.0,0.0,0.0,0.0,0.0,0.0,0.0,0.0,0.0,0.0,0.0,0.0,0.0,0.0,0.0,0.0,0.0,0.0,0.0,0.0,0.0,0.0,0.0,0.0,0.0,0.0,0.0,0.0,0.0,0.0,0.0,0.0,0.0,0.0,0.0,0.0,0.0,0.0,0.0,0.0,0.0,0.0,0.0,0.0,0.0,0.0,0.0,0.0,0.0,0.0,0.0,0.0,0.0,0.0,0.0,0.0,0.0,0.0,0.0,0.0,0.0,0.0,0.0,0.0,0.0,0.0,0.0,0.0,0.0,0.0,0.0,0.0,0.0,0.0,0.0,0.0,0.0,0.0,0.0,0.0,0.0,0.0,0.0,0.0,0.0,0.0,0.0,0.0,0.0,0.0,0.0,0.0,0.0,0.0,0.0,0.0,0.0,0.0,0.0,0.0,0.0,0.0,0.0,0.0,0.0,0.0,0.0,0.0,0.0,0.0,0.0,0.0,0.0,0.0,0.0,0.0,0.0,0.0,0.0,0.0,0.0,0.0,0.0,0.0,0.0,0.0,0.0,0.0,0.0,0.0,0.0,0.0,0.0,0.0,0.0,0.0,0.0,0.0,0.0,0.0,0.0,0.0,0.0,0.0,0.0,0.0,0.0,0.0,0.0,0.0,0.0,0.0,0.0,0.0,0.0,0.0,0.0,0.0,0.0,0.0,0.0,0.0,0.0,0.0,0.0,0.0,0.0,0.0,0.0,0.0,0.0,0.0,0.0,0.0,0.0,0.0,0.0,0.0,0.0,0.0,0.0,0.0,0.0,0.0,0.0,0.0,0.0,0.0,0.0,0.0,0.0,0.0,0.0,0.0,0.0,0.0,0.0,0.0,0.0,0.0,0.0,0.0,0.0,0.0,0.0,0.0,0.0,0.0,0.0,0.0,0.0,0.0,0.0,0.0,0.0,0.0,0.0,0.0,0.0,0.0,0.0,0.0,0.0,0.0,0.0,0.0,0.0,0.0,0.0,0.0,0.0,0.0,0.0,0.0,0.0,0.0,0.0,0.0,0.0,0.0,0.0,0.0,0.0,0.0,0.0,0.0,0.0,0.0,0.0,0.0,0.0,0.0,0.0,0.0,0.0,0.0,0.0,0.0,0.0,0.0,0.0,0.0,0.0,0.0,0.0,0.0,0.0,0.0,0.0,0.0,0.0,0.0,0.0,0.0,0.0,0.0,0.0,0.0,0.0,0.0,0.0,0.0,0.0,0.0,0.0,0.0,0.0,0.0,0.0,0.0,0.0,0.0,0.0,0.0,0.0,0.0,0.0,0.0,0.0,0.0,0.0,0.0,0.0,0.0,0.0,0.0,0.0,0.0,0.0,0.0,0.0,0.0,0.0,0.0,0.0,0.0,0.0,0.0,0.0,0.0,0.0,0.0,0.0,0.0,0.0,0.0,0.0,0.0,0.0,0.0,0.0,0.0,0.0,0.0,0.0,0.0,0.0,0.0,0.0,0.0,0.0,0.0,0.0,0.0,0.0,0.0,0.0,0.0,0.0,0.0,0.0,0.0,0.0,0.0,0.0,0.0,0.0,0.0,0.0,0.0,0.0,0.0,0.0,0.0,0.0,0.0,0.0,0.0,0.0,0.0,0.0,0.0,0.0,0.0,0.0,0.0,0.0,0.0,0.0,0.0,0.0,0.0,0.0,0.0,0.0,0.0,0.0,0.0,0.0,0.0,0.0,0.0,0.0,0.0,0.0,0.0,0.0,0.0,0.0,0.0,0.0,0.0,0.0,0.0,0.0,0.0,0.0,0.0,0.0,0.0,0.0,0.0,0.0,0.0,0.0,0.0,0.0,0.0,0.0,0.0,0.0,0.0,0.0,0.0,0.0,0.0,0.0,0.0,0.0,0.0,0.0,0.0,0.0,0.0,0.0,0.0,0.0,0.0,0.0,0.0,0.0,0.0,0.0,0.0,0.0,0.0,0.0,0.0,0.0,0.0,0.0,0.0,0.0,0.0,0.0,0.0,0.0,0.0,0.0,0.0,0.0,0.0,0.0,0.0,0.0,0.0,0.0,0.0,0.0,0.0,0.0,0.0,0.0,0.0,0.0,0.0,0.0,0.0,0.0,0.0,0.0,0.0,0.0,0.0,0.0,0.0,0.0,0.0,0.0,0.0,0.0,0.0,0.0,0.0,0.0,0.0,0.0,0.0,0.0,0.0,0.0,0.0,0.0,0.0,0.0,0.0,0.0,0.0,0.0,0.0,0.0,0.0,0.0,0.0,0.0,0.0,0.0,0.0,0.0,0.0,0.0,0.0,0.0,0.0,0.0,0.0,0.0,0.0,0.0,0.0,0.0,0.0,0.0,0.0,0.0,0.0,0.0,0.0,0.0,0.0,0.0,0.0,0.0,0.0,0.0,0.0,0.0,0.0,0.0,0.0,0.0,0.0,0.0,0.0,0.0,0.0,0.0,0.0,0.0,0.0,0.0,0.0,0.0,0.0,0.0,0.0,0.0,0.0,0.0,0.0,0.0,0.0,0.0,0.0,0.0,0.0,0.0,0.0,0.0,0.0,0.0,0.0,0.0,0.0,0.0,0.0,0.0,0.0,0.0,0.0,0.0,0.0,0.0,0.0,0.0,0.0,0.0,0.0,0.0,0.0,0.0,0.0,0.0,0.0,0.0,0.0,0.0,0.0,0.0,0.0,0.0,0.0,0.0,0.0,0.0,0.0,0.0,0.0,0.0,0.0,0.0,0.0,0.0,-4.3672,0.0,0.0,0.0,0.0,0.0,0.0,0.0,0.0,0.0,0.0,0.0,0.0,0.0,0.0,0.0,0.0,0.0,0.0,0.0,0.0,0.0,0.0,0.0,0.0,0.0,0.0,0.0,0.0,0.0,0.0,0.0,0.0,0.0,0.0,0.0,0.0,0.0,0.0,0.0,0.0,0.0,0.0,0.0,0.0,0.0,0.0,0.0,0.0,0.0,0.0,0.0,0.0,0.0,0.0,0.0,0.0,0.0,0.0,0.0,0.0,0.0,0.0,0.0,0.0,0.0,0.0,0.0,0.0,0.0,0.0,0.0,0.0,0.0,0.0,0.0,0.0,0.0,0.0,0.0,0.0,0.0,0.0,0.0,0.0,0.0,0.0,0.0,0.0,0.0,0.0,0.0,0.0,0.0,0.0,0.0,0.0,0.0,0.0,0.0,0.0,0.0,0.0,0.0,0.0,0.0,0.0,0.0,0.0,0.0,0.0,-4.6289,-4.6269,-4.4609,-4.3711,-4.3672,0.0,0.0,0.0,0.0,0.0,0.0,0.0,0.0,0.0,0.0,0.0,0.0,0.0,0.0,0.0,0.0,0.0,0.0,0.0,0.0,0.0,0.0,0.0,0.0,0.0,0.0,0.0,0.0,0.0,0.0,0.0,0.0,0.0,0.0,0.0,0.0,0.0,0.0,0.0,0.0,0.0,0.0,0.0,0.0,0.0,0.0,0.0,0.0,0.0,0.0,0.0,0.0,0.0,0.0,0.0,0.0,0.0,0.0,0.0,0.0,0.0,0.0,0.0,0.0,0.0,0.0,0.0,0.0,0.0,0.0,0.0,0.0,0.0,0.0,0.0,0.0,0.0,0.0,0.0,0.0,0.0,0.0,0.0,0.0,0.0,0.0,0.0,0.0,0.0,0.0,0.0,0.0,0.0,0.0,0.0,0.0,0.0,0.0,0.0,0.0,0.0,0.0,0.0,0.0,0.0,0.0,0.0,0.0,0.0,0.0,0.0,0.0,-4.4902,-4.3711,-4.3125,0.0,0.0,0.0,0.0,0.0,0.0,0.0,0.0,0.0,0.0,0.0,0.0,0.0,0.0,0.0,0.0,0.0,0.0,0.0,0.0,0.0,0.0,0.0,0.0,0.0,0.0,0.0,0.0,0.0,0.0,0.0,0.0,0.0,0.0,0.0,0.0,0.0,0.0,0.0,0.0,0.0,0.0,0.0,0.0,0.0,0.0,0.0,0.0,0.0,0.0,0.0,0.0,0.0,0.0,0.0,0.0,0.0,0.0,0.0,0.0,0.0,0.0,0.0,0.0,0.0,0.0,0.0,0.0,0.0,0.0,0.0,0.0,0.0,0.0,0.0,0.0,0.0,0.0,0.0,0.0,0.0,0.0,0.0,0.0,0.0,0.0,0.0,0.0,0.0,0.0,0.0,0.0,0.0,0.0,0.0,0.0,0.0,0.0,0.0,0.0,0.0,0.0,0.0,0.0,0.0,0.0,0.0,0.0,0.0,0.0,-4.6679,-4.7422,-4.5781,0.0,-4.1523,0.0,0.0,0.0,0.0,0.0,0.0,0.0,0.0,0.0,0.0,0.0,0.0,0.0,0.0,0.0,0.0,0.0,0.0,0.0,0.0,0.0,0.0,0.0,0.0,0.0,0.0,0.0,0.0,0.0,0.0,0.0,0.0,0.0,0.0,0.0,0.0,0.0,0.0,0.0,0.0,0.0,0.0,0.0,0.0,0.0,0.0,0.0,0.0,0.0,0.0,0.0,0.0,0.0,0.0,0.0,0.0,0.0,0.0,0.0,0.0,0.0,0.0,0.0,0.0,0.0,0.0,0.0,0.0,0.0,0.0,0.0,0.0,0.0,0.0,0.0,0.0,0.0,0.0,0.0,0.0,0.0,0.0,0.0,0.0,0.0,0.0,0.0,0.0,0.0,0.0,0.0,0.0,0.0,0.0,0.0,0.0,0.0,0.0,0.0,0.0,0.0,0.0,0.0,0.0,0.0,0.0,0.0,0.0,0.0,0.0,-4.7457,-4.8359,-4.6172,-4.3808,0.0,0.0,0.0,0.0,0.0,0.0,0.0,0.0,0.0,0.0,0.0,0.0,0.0,0.0,0.0,0.0,0.0,0.0,0.0,0.0,0.0,0.0,0.0,0.0,0.0,0.0,0.0,0.0,0.0,0.0,0.0,0.0,0.0,0.0,0.0,0.0,0.0,0.0,0.0,0.0,0.0,0.0,0.0,0.0,0.0,0.0,0.0,0.0,0.0,0.0,0.0,0.0,0.0,0.0,0.0,0.0,0.0,0.0,0.0,0.0,0.0,0.0,0.0,0.0,0.0,0.0,0.0,0.0,0.0,0.0,0.0,0.0,0.0,0.0,0.0,0.0,0.0,0.0,0.0,0.0,0.0,0.0,0.0,0.0,0.0,0.0,0.0,0.0,0.0,0.0,0.0,0.0,0.0,0.0,0.0,0.0,0.0,0.0,0.0,0.0,0.0,0.0,0.0,0.0,0.0,0.0,0.0,0.0,0.0,0.0,-4.6427,-4.7114,-4.7693,-4.5761,-4.3457,-4.0937,0.0,0.0,0.0,0.0,0.0,0.0,0.0,0.0,0.0,0.0,0.0,0.0,0.0,0.0,0.0,0.0,0.0,0.0,0.0,0.0,0.0,0.0,0.0,0.0,0.0,0.0,0.0,0.0,0.0,0.0,0.0,0.0,0.0,0.0,0.0,0.0,0.0,0.0,0.0,0.0,0.0,0.0,0.0,0.0,0.0,0.0,0.0,0.0,0.0,0.0,0.0,0.0,0.0,0.0,0.0,0.0,0.0,0.0,0.0,0.0,0.0,0.0,0.0,0.0,0.0,0.0,0.0,0.0,0.0,0.0,0.0,0.0,0.0,0.0,0.0,0.0,0.0,0.0,0.0,0.0,0.0,0.0,0.0,0.0,0.0,0.0,0.0,0.0,0.0,0.0,0.0,0.0,0.0,0.0,0.0,0.0,0.0,0.0,0.0,0.0,0.0,0.0,0.0,0.0,0.0,0.0,0.0,0.0,-4.4775,-4.501,-4.5089,-4.5219,-4.4247,-4.2552,0.0,0.0,0.0,0.0,0.0,0.0,0.0,0.0,0.0,0.0,0.0,0.0,0.0,0.0,0.0,0.0,0.0,0.0,0.0,0.0,0.0,0.0,0.0,0.0,0.0,0.0,0.0,0.0,0.0,0.0,0.0,0.0,0.0,0.0,0.0,0.0,0.0,0.0,0.0,0.0,0.0,0.0,0.0,0.0,0.0,0.0,0.0,0.0,0.0,0.0,0.0,0.0,0.0,0.0,0.0,0.0,0.0,0.0,0.0,0.0,0.0,0.0,0.0,0.0,0.0,0.0,0.0,0.0,0.0,0.0,0.0,0.0,0.0,0.0,0.0,0.0,0.0,0.0,0.0,0.0,0.0,0.0,0.0,0.0,0.0,0.0,0.0,0.0,0.0,0.0,0.0,0.0,0.0,0.0,0.0,0.0,0.0,0.0,0.0,0.0,0.0,0.0,0.0,0.0,0.0,0.0,0.0,0.0,0.0,-4.3781,-4.5518,-4.5917,-4.4902,-4.4062,-4.2438,0.0,0.0,0.0,0.0,0.0,0.0,0.0,0.0,0.0,0.0,0.0,0.0,0.0,0.0,0.0,0.0,0.0,0.0,0.0,0.0,0.0,0.0,0.0,0.0,0.0,0.0,0.0,0.0,0.0,0.0,0.0,0.0,0.0,0.0,0.0,0.0,0.0,0.0,0.0,0.0,0.0,0.0,0.0,0.0,0.0,0.0,0.0,0.0,0.0,0.0,0.0,0.0,0.0,0.0,0.0,0.0,0.0,0.0,0.0,0.0,0.0,0.0,0.0,0.0,0.0,0.0,0.0,0.0,0.0,0.0,0.0,0.0,0.0,0.0,0.0,0.0,0.0,0.0,0.0,0.0,0.0,0.0,0.0,0.0,0.0,0.0,0.0,0.0,0.0,0.0,0.0,0.0,0.0,0.0,0.0,0.0,0.0,0.0,0.0,0.0,0.0,0.0,0.0,0.0,0.0,0.0,0.0,0.0,0.0,-4.4041,0.0,-4.6863,-4.5247,-4.414,-4.2381,0.0,0.0,0.0,0.0,0.0,0.0,0.0,0.0,0.0,0.0,0.0,0.0,0.0,0.0,0.0,0.0,0.0,0.0,0.0,0.0,0.0,0.0,0.0,0.0,0.0,0.0,0.0,0.0,0.0,0.0,0.0,0.0,0.0,0.0,0.0,0.0,0.0,0.0,0.0,0.0,0.0,0.0,0.0,0.0,0.0,0.0,0.0,0.0,0.0,0.0,0.0,0.0,0.0,0.0,0.0,0.0,0.0,0.0,0.0,0.0,0.0,0.0,0.0,0.0,0.0,0.0,0.0,0.0,0.0,0.0,0.0,0.0,0.0,0.0,0.0,0.0,0.0,0.0,0.0,0.0,0.0,0.0,0.0,0.0,0.0,0.0,0.0,0.0,0.0,0.0,0.0,0.0,0.0,0.0,0.0,0.0,0.0,0.0,0.0,0.0,0.0,0.0,0.0,0.0,0.0,0.0,0.0,0.0,-4.3211,-4.5708,-4.7475,-4.7597,-4.6014,-4.4389,-4.2319,0.0,0.0,0.0,0.0,0.0,0.0,0.0,0.0,0.0,0.0,0.0,0.0,0.0,0.0,0.0,0.0,0.0,0.0,0.0,0.0,0.0,0.0,0.0,0.0,0.0,0.0,0.0,0.0,0.0,0.0,0.0,0.0,0.0,0.0,0.0,0.0,0.0,0.0,0.0,0.0,0.0,0.0,0.0,0.0,0.0,0.0,0.0,0.0,0.0,0.0,0.0,0.0,0.0,0.0,0.0,0.0,0.0,0.0,0.0,0.0,0.0,0.0,0.0,0.0,0.0,0.0,0.0,0.0,0.0,0.0,0.0,0.0,0.0,0.0,0.0,0.0,0.0,0.0,0.0,0.0,0.0,0.0,0.0,0.0,0.0,0.0,0.0,0.0,0.0,0.0,0.0,0.0,0.0,0.0,0.0,0.0,0.0,0.0,0.0,0.0,0.0,0.0,0.0,0.0,0.0,0.0,0.0,0.0,0.0,-4.5709,-4.7893,-4.8039,-4.5875,-4.475,-4.2734,0.0,0.0,0.0,0.0,0.0,0.0,0.0,0.0,0.0,0.0,0.0,0.0,0.0,0.0,0.0,0.0,0.0,0.0,0.0,0.0,0.0,0.0,0.0,0.0,0.0,0.0,0.0,0.0,0.0,0.0,0.0,0.0,0.0,0.0,0.0,0.0,0.0,0.0,0.0,0.0,0.0,0.0,0.0,0.0,0.0,0.0,0.0,0.0,0.0,0.0,0.0,0.0,0.0,0.0,0.0,0.0,0.0,0.0,0.0,0.0,0.0,0.0,0.0,0.0,0.0,0.0,0.0,0.0,0.0,0.0,0.0,0.0,0.0,0.0,0.0,0.0,0.0,0.0,0.0,0.0,0.0,0.0,0.0,0.0,0.0,0.0,0.0,0.0,0.0,0.0,0.0,0.0,0.0,0.0,0.0,0.0,0.0,0.0,0.0,0.0,0.0,0.0,0.0,0.0,0.0,0.0,0.0,0.0,0.0,-4.9375,-5.0625,-5.0259,-4.8088,-4.6356,-4.3994,-4.0973,0.0,0.0,0.0,0.0,0.0,0.0,0.0,0.0,0.0,0.0,0.0,0.0,0.0,0.0,0.0,0.0,0.0,0.0,0.0,0.0,0.0,0.0,0.0,0.0,0.0,0.0,0.0,0.0,0.0,0.0,0.0,0.0,0.0,0.0,0.0,0.0,0.0,0.0,0.0,0.0,0.0,0.0,0.0,0.0,0.0,0.0,0.0,0.0,0.0,0.0,0.0,0.0,0.0,0.0,0.0,0.0,0.0,0.0,0.0,0.0,0.0,0.0,0.0,0.0,0.0,0.0,0.0,0.0,0.0,0.0,0.0,0.0,0.0,0.0,0.0,0.0,0.0,0.0,0.0,0.0,0.0,0.0,0.0,0.0,0.0,0.0,0.0,0.0,0.0,0.0,0.0,0.0,0.0,0.0,0.0,0.0,0.0,0.0,0.0,0.0,0.0,0.0,0.0,0.0,0.0,0.0,0.0,0.0,-5.578,-5.5318,-5.4166,-5.2184,-4.9011,-4.6001,0.0,0.0,0.0,0.0,0.0,0.0,0.0,0.0,0.0,0.0,0.0,0.0,0.0,0.0,0.0,0.0,0.0,0.0,0.0,0.0,0.0,0.0,0.0,0.0,0.0,0.0,0.0,0.0,0.0,0.0,0.0,0.0,0.0,0.0,0.0,0.0,0.0,0.0,0.0,0.0,0.0,0.0,0.0,0.0,0.0,0.0,0.0,0.0,0.0,0.0,0.0,0.0,0.0,0.0,0.0,0.0,0.0,0.0,0.0,0.0,0.0,0.0,0.0,0.0,0.0,0.0,0.0,0.0,0.0,0.0,0.0,0.0,0.0,0.0,0.0,0.0,0.0,0.0,0.0,0.0,0.0,0.0,0.0,0.0,0.0,0.0,0.0,0.0,0.0,0.0,0.0,0.0,0.0,0.0,0.0,0.0,0.0,0.0,0.0,0.0,0.0,0.0,0.0,0.0,0.0,0.0,0.0,0.0,0.0,-5.7511,-6.0435,-5.9658,-5.4916,-5.2059,-4.8536,0.0,0.0,0.0,0.0,0.0,0.0,0.0,0.0,0.0,0.0,0.0,0.0,0.0,0.0,0.0,0.0,0.0,0.0,0.0,0.0,0.0,0.0,0.0,0.0,0.0,0.0,0.0,0.0,0.0,0.0,0.0,0.0,0.0,0.0,0.0,0.0,0.0,0.0,0.0,0.0,0.0,0.0,0.0,0.0,0.0,0.0,0.0,0.0,0.0,0.0,0.0,0.0,0.0,0.0,0.0,0.0,0.0,0.0,0.0,0.0,0.0,0.0,0.0,0.0,0.0,0.0,0.0,0.0,0.0,0.0,0.0,0.0,0.0,0.0,0.0,0.0,0.0,0.0,0.0,0.0,0.0,0.0,0.0,0.0,0.0,0.0,0.0,0.0,0.0,0.0,0.0,0.0,0.0,0.0,0.0,0.0,0.0,0.0,0.0,0.0,0.0,0.0,0.0,0.0,0.0,0.0,0.0,0.0,-5.5241,-5.9819,-6.3666,-6.3666,-5.9531,-5.5588,-5.1106,0.0,0.0,0.0,0.0,0.0,0.0,0.0,0.0,0.0,0.0,0.0,0.0,0.0,0.0,0.0,0.0,0.0,0.0,0.0,0.0,0.0,0.0,0.0,0.0,0.0,0.0,0.0,0.0,0.0,0.0,0.0,0.0,0.0,0.0,0.0,0.0,0.0,0.0,0.0,0.0,0.0,0.0,0.0,0.0,0.0,0.0,0.0,0.0,0.0,0.0,0.0,0.0,0.0,0.0,0.0,0.0,0.0,0.0,0.0,0.0,0.0,0.0,0.0,0.0,0.0,0.0,0.0,0.0,0.0,0.0,0.0,0.0,0.0,0.0,0.0,0.0,0.0,0.0,0.0,0.0,0.0,0.0,0.0,0.0,0.0,0.0,0.0,0.0,0.0,0.0,0.0,0.0,0.0,0.0,0.0,0.0,0.0,0.0,0.0,0.0,0.0,0.0,0.0,0.0,0.0,0.0,0.0,0.0,-5.7069,-6.2127,-6.5493,-6.6378,-6.4551,-5.9069,-5.3703,0.0,0.0,0.0,0.0,0.0,0.0,0.0,0.0,0.0,0.0,0.0,0.0,0.0,0.0,0.0,0.0,0.0,0.0,0.0,0.0,0.0,0.0,0.0,0.0,0.0,0.0,0.0,0.0,0.0,0.0,0.0,0.0,0.0,0.0,0.0,0.0,0.0,0.0,0.0,0.0,0.0,0.0,0.0,0.0,0.0,0.0,0.0,0.0,0.0,0.0,0.0,0.0,0.0,0.0,0.0,0.0,0.0,0.0,0.0,0.0,0.0,0.0,0.0,0.0,0.0,0.0,0.0,0.0,0.0,0.0,0.0,0.0,0.0,0.0,0.0,0.0,0.0,0.0,0.0,0.0,0.0,0.0,0.0,0.0,0.0,0.0,0.0,0.0,0.0,0.0,0.0,0.0,0.0,0.0,0.0,0.0,0.0,0.0,0.0,0.0,0.0,0.0,0.0,0.0,0.0,0.0,0.0,0.0,-5.7934,-6.2935,-6.6378,-6.6994,-6.4647,-6.0762,-5.6299,0.0,0.0,0.0,0.0,0.0,0.0,0.0,0.0,0.0,0.0,0.0,0.0,0.0,0.0,0.0,0.0,0.0,0.0,0.0,0.0,0.0,0.0,0.0,0.0,0.0,0.0,0.0,0.0,0.0,0.0,0.0,0.0,0.0,0.0,0.0,0.0,0.0,0.0,0.0,0.0,0.0,0.0,0.0,0.0,0.0,0.0,0.0,0.0,-3.5368,0.0,0.0,0.0,0.0,0.0,0.0,0.0,0.0,0.0,0.0,0.0,0.0,0.0,0.0,0.0,0.0,0.0,0.0,0.0,0.0,0.0,0.0,0.0,0.0,0.0,0.0,0.0,0.0,0.0,0.0,0.0,0.0,0.0,0.0,0.0,0.0,0.0,0.0,0.0,0.0,0.0,0.0,0.0,0.0,0.0,0.0,0.0,0.0,0.0,0.0,0.0,0.0,0.0,0.0,0.0,0.0,0.0,0.0,0.0,-5.9011,-6.3212,-6.6244,-6.6955,-6.5205,-6.23,-5.7953,0.0,0.0,0.0,0.0,0.0,0.0,0.0,0.0,0.0,0.0,0.0,0.0,0.0,0.0,0.0,0.0,0.0,0.0,0.0,0.0,0.0,0.0,0.0,0.0,0.0,0.0,0.0,0.0,0.0,0.0,0.0,0.0,0.0,0.0,0.0,0.0,0.0,0.0,0.0,0.0,0.0,0.0,0.0,0.0,0.0,0.0,0.0,0.0,0.0,0.0,0.0,0.0,0.0,0.0,0.0,0.0,0.0,0.0,0.0,0.0,0.0,0.0,0.0,0.0,0.0,0.0,0.0,0.0,0.0,0.0,0.0,0.0,0.0,0.0,0.0,0.0,0.0,0.0,0.0,0.0,0.0,0.0,0.0,0.0,0.0,0.0,0.0,0.0,0.0,0.0,0.0,0.0,0.0,0.0,0.0,0.0,0.0,0.0,0.0,0.0,0.0,0.0,0.0,0.0,0.0,0.0,0.0,-5.5895,-6.0108,-6.3404,-6.5859,-6.659,-6.5493,-6.3012,-5.8569,-5.1942,0.0,0.0,0.0,0.0,0.0,0.0,0.0,0.0,0.0,0.0,0.0,0.0,0.0,0.0,0.0,0.0,0.0,0.0,0.0,0.0,0.0,0.0,0.0,0.0,0.0,0.0,0.0,0.0,0.0,0.0,0.0,0.0,0.0,0.0,0.0,0.0,0.0,0.0,-3.2045,-3.4288,0.0,0.0,0.0,0.0,0.0,0.0,0.0,0.0,-3.5065,0.0,0.0,0.0,0.0,0.0,0.0,0.0,0.0,0.0,0.0,0.0,0.0,0.0,0.0,0.0,0.0,0.0,0.0,0.0,0.0,0.0,0.0,0.0,0.0,0.0,0.0,0.0,0.0,0.0,0.0,0.0,0.0,0.0,0.0,0.0,0.0,0.0,0.0,0.0,0.0,0.0,0.0,0.0,0.0,0.0,0.0,0.0,0.0,0.0,0.0,0.0,0.0,0.0,0.0,0.0,0.0,-5.1654,-5.6722,-6.0954,-6.4301,-6.6167,-6.6013,-6.3762,-6.1262,-5.7088,-5.1183,0.0,0.0,0.0,0.0,0.0,0.0,0.0,0.0,0.0,0.0,0.0,0.0,0.0,0.0,0.0,0.0,0.0,0.0,0.0,0.0,0.0,0.0,0.0,0.0,0.0,0.0,0.0,0.0,0.0,0.0,0.0,0.0,0.0,0.0,0.0,0.0,0.0,0.0,0.0,-3.5988,-3.7584,0.0,0.0,0.0,0.0,0.0,0.0,0.0,0.0,-3.4922,0.0,0.0,0.0,0.0,0.0,0.0,0.0,0.0,0.0,0.0,0.0,0.0,0.0,0.0,0.0,0.0,0.0,0.0,0.0,0.0,0.0,0.0,0.0,0.0,0.0,0.0,0.0,0.0,0.0,0.0,0.0,0.0,0.0,0.0,0.0,0.0,0.0,0.0,0.0,0.0,0.0,0.0,0.0,0.0,0.0,0.0,0.0,0.0,0.0,0.0,0.0,0.0,0.0,0.0,0.0,-5.2549,-5.7588,-6.1396,-6.3858,-6.5147,-6.4589,-6.205,-5.8684,-5.453,0.0,0.0,0.0,0.0,0.0,0.0,0.0,0.0,0.0,0.0,0.0,0.0,0.0,0.0,0.0,0.0,0.0,0.0,0.0,0.0,0.0,0.0,0.0,0.0,0.0,0.0,0.0,0.0,0.0,0.0,0.0,0.0,0.0,0.0,0.0,0.0,0.0,0.0,0.0,0.0,-3.768,-3.9296,-3.9304,0.0,0.0,0.0,0.0,0.0,0.0,-3.6375,-3.513,0.0,0.0,0.0,0.0,0.0,0.0,0.0,0.0,0.0,0.0,0.0,0.0,0.0,0.0,0.0,0.0,0.0,0.0,0.0,0.0,0.0,0.0,0.0,0.0,0.0,0.0,0.0,0.0,0.0,0.0,0.0,0.0,0.0,0.0,0.0,0.0,0.0,0.0,0.0,0.0,0.0,0.0,0.0,0.0,0.0,0.0,0.0,0.0,0.0,0.0,0.0,0.0,0.0,0.0,0.0,-5.3072,-5.8116,-6.1504,-6.3156,-6.4059,-6.3226,-6.051,-5.6563,-5.2364,0.0,0.0,0.0,0.0,0.0,0.0,0.0,0.0,0.0,0.0,0.0,0.0,0.0,0.0,0.0,0.0,0.0,0.0,0.0,0.0,0.0,0.0,0.0,0.0,0.0,0.0,0.0,0.0,0.0,0.0,0.0,0.0,0.0,0.0,0.0,0.0,0.0,0.0,0.0,0.0,0.0,-4.1035,-4.1035,-4.1035,0.0,0.0,0.0,0.0,-3.8623,-3.7353,0.0,0.0,0.0,0.0,0.0,0.0,0.0,0.0,0.0,0.0,0.0,0.0,0.0,0.0,0.0,0.0,0.0,0.0,0.0,0.0,0.0,0.0,0.0,0.0,0.0,0.0,0.0,0.0,0.0,0.0,0.0,0.0,0.0,0.0,0.0,0.0,0.0,0.0,0.0,0.0,0.0,0.0,0.0,0.0,0.0,0.0,0.0,0.0,0.0,0.0,0.0,0.0,0.0,0.0,0.0,0.0,-5.2815,-5.7806,-6.119,-6.2878,-6.3733,-6.2633,-5.9453,-5.6043,-5.196,0.0,0.0,0.0,0.0,0.0,0.0,0.0,0.0,0.0,0.0,0.0,0.0,0.0,0.0,0.0,0.0,0.0,0.0,0.0,0.0,0.0,0.0,0.0,0.0,0.0,0.0,0.0,0.0,0.0,0.0,0.0,0.0,0.0,0.0,0.0,0.0,0.0,0.0,0.0,0.0,0.0,-4.2797,-4.2797,-4.2797,-4.2777,0.0,0.0,-4.0373,-4.1239,-3.9969,0.0,0.0,0.0,0.0,0.0,0.0,0.0,0.0,0.0,0.0,0.0,0.0,0.0,0.0,0.0,0.0,0.0,0.0,0.0,0.0,0.0,0.0,0.0,0.0,0.0,0.0,0.0,0.0,0.0,0.0,0.0,0.0,0.0,0.0,0.0,0.0,0.0,0.0,0.0,0.0,0.0,0.0,0.0,0.0,0.0,0.0,0.0,0.0,0.0,0.0,0.0,0.0,0.0,0.0,0.0,-4.6865,-5.2261,-5.6812,-5.9944,-6.1595,-6.1991,-6.0862,-5.8134,-5.444,-5.0447,0.0,0.0,0.0,0.0,0.0,0.0,0.0,0.0,0.0,0.0,0.0,0.0,0.0,0.0,0.0,0.0,0.0,0.0,0.0,0.0,0.0,0.0,0.0,0.0,0.0,0.0,0.0,0.0,0.0,0.0,0.0,0.0,0.0,0.0,0.0,0.0,0.0,0.0,0.0,0.0,0.0,0.0,-4.3778,-4.4624,0.0,0.0,0.0,-4.2624,-4.2547,0.0,0.0,0.0,0.0,0.0,0.0,0.0,0.0,0.0,0.0,0.0,0.0,0.0,0.0,0.0,0.0,0.0,0.0,0.0,0.0,0.0,0.0,0.0,0.0,0.0,0.0,0.0,0.0,0.0,0.0,0.0,0.0,0.0,0.0,0.0,0.0,0.0,0.0,0.0,0.0,0.0,0.0,0.0,0.0,0.0,0.0,0.0,0.0,0.0,0.0,0.0,0.0,0.0,0.0,0.0,0.0,0.0,-5.1246,-5.5764,-5.8776,-6.0207,-6.047,-5.9467,-5.7127,-5.3604,0.0,0.0,0.0,0.0,0.0,0.0,0.0,0.0,0.0,0.0,0.0,0.0,0.0,0.0,0.0,0.0,0.0,0.0,0.0,0.0,0.0,0.0,0.0,0.0,0.0,0.0,0.0,-2.5308,0.0,0.0,0.0,0.0,0.0,0.0,0.0,0.0,0.0,0.0,0.0,0.0,0.0,0.0,-4.4381,-4.4784,-4.5965,-4.634,0.0,0.0,-4.4367,-4.378,-4.4038,-4.3008,0.0,0.0,0.0,0.0,0.0,0.0,0.0,0.0,0.0,0.0,0.0,0.0,0.0,0.0,0.0,0.0,0.0,0.0,0.0,0.0,0.0,0.0,0.0,0.0,0.0,0.0,0.0,0.0,0.0,0.0,0.0,0.0,0.0,0.0,0.0,0.0,0.0,0.0,0.0,0.0,0.0,0.0,0.0,0.0,0.0,0.0,0.0,0.0,0.0,0.0,0.0,0.0,0.0,0.0,-4.5129,-4.9375,-5.4893,-5.8164,-5.91,-5.9867,-5.9158,-5.6868,-5.4509,-5.097,0.0,0.0,0.0,0.0,0.0,0.0,0.0,0.0,0.0,0.0,0.0,0.0,0.0,0.0,0.0,0.0,0.0,0.0,0.0,0.0,0.0,0.0,0.0,0.0,0.0,0.0,0.0,0.0,0.0,0.0,0.0,0.0,0.0,0.0,0.0,0.0,0.0,0.0,0.0,0.0,0.0,-4.4601,-4.6139,-4.6445,-4.6505,0.0,-4.5822,-4.5314,-4.5322,-4.4752,-4.3393,-4.0766,0.0,0.0,0.0,0.0,0.0,0.0,0.0,0.0,0.0,0.0,0.0,0.0,0.0,0.0,0.0,0.0,0.0,0.0,0.0,0.0,0.0,0.0,0.0,0.0,0.0,0.0,0.0,0.0,0.0,0.0,0.0,0.0,0.0,0.0,0.0,0.0,0.0,0.0,0.0,0.0,0.0,0.0,0.0,0.0,0.0,0.0,0.0,0.0,0.0,0.0,0.0,0.0,0.0,-4.3592,-4.8586,-5.3282,-5.6314,-5.759,-5.7941,-5.7511,-5.6266,-5.4035,-5.0853,0.0,0.0,0.0,0.0,0.0,0.0,0.0,0.0,0.0,0.0,0.0,0.0,0.0,0.0,0.0,0.0,0.0,0.0,0.0,0.0,0.0,0.0,0.0,0.0,0.0,0.0,0.0,0.0,-2.5893,-2.5565,-2.4953,0.0,0.0,0.0,0.0,0.0,0.0,0.0,0.0,0.0,0.0,-4.3421,-4.5047,-4.6139,0.0,0.0,-4.653,-4.6258,-4.4854,-4.536,-4.4509,-4.0419,-3.7123,0.0,0.0,0.0,0.0,0.0,0.0,0.0,0.0,0.0,0.0,0.0,0.0,0.0,0.0,0.0,0.0,0.0,0.0,0.0,0.0,0.0,0.0,0.0,0.0,0.0,0.0,0.0,0.0,0.0,0.0,0.0,0.0,0.0,0.0,0.0,0.0,0.0,0.0,0.0,0.0,0.0,0.0,0.0,0.0,0.0,0.0,0.0,0.0,0.0,0.0,0.0,0.0,-4.2433,-4.7553,-5.2087,-5.5078,-5.6418,-5.6693,-5.6507,-5.5837,-5.3678,-5.0744,0.0,0.0,0.0,0.0,0.0,0.0,0.0,0.0,0.0,0.0,0.0,0.0,0.0,0.0,0.0,0.0,0.0,0.0,0.0,0.0,0.0,0.0,0.0,0.0,0.0,0.0,0.0,0.0,-2.5944,-2.5446,-2.4772,0.0,0.0,0.0,0.0,0.0,0.0,0.0,0.0,0.0,0.0,-4.2684,-4.4537,-4.582,-4.6384,-4.5972,-4.6587,-4.6386,-4.43,-4.4921,-4.4295,-4.0236,0.0,0.0,0.0,0.0,0.0,0.0,0.0,0.0,0.0,0.0,0.0,0.0,0.0,0.0,0.0,0.0,0.0,0.0,0.0,0.0,0.0,0.0,0.0,0.0,0.0,0.0,0.0,-3.3844,0.0,0.0,-3.2803,0.0,0.0,0.0,0.0,0.0,0.0,0.0,0.0,0.0,0.0,0.0,0.0,0.0,0.0,0.0,0.0,0.0,0.0,0.0,0.0,0.0,0.0,-4.1901,-4.5938,-5.1499,-5.4748,-5.5592,-5.6381,-5.6444,-5.5767,-5.3575,-5.0843,-4.7503,0.0,0.0,0.0,0.0,0.0,0.0,0.0,0.0,0.0,0.0,0.0,0.0,0.0,0.0,0.0,0.0,0.0,0.0,0.0,0.0,0.0,0.0,0.0,0.0,0.0,0.0,-2.6049,-2.514,-2.4557,0.0,0.0,0.0,0.0,0.0,0.0,0.0,0.0,0.0,-3.7619,-4.0242,-4.2712,-4.5099,-4.5511,-4.5574,-4.5683,-4.5906,-4.5483,-4.3923,-4.3236,-4.2278,0.0,0.0,0.0,0.0,0.0,0.0,0.0,0.0,0.0,0.0,0.0,0.0,0.0,0.0,0.0,0.0,0.0,0.0,0.0,0.0,0.0,0.0,0.0,0.0,0.0,0.0,0.0,-3.7074,-3.7019,0.0,0.0,0.0,0.0,0.0,0.0,0.0,0.0,0.0,0.0,0.0,-4.1532,-4.2047,0.0,0.0,0.0,0.0,0.0,0.0,0.0,0.0,0.0,0.0,0.0,0.0,-4.135,-4.5865,-5.0453,-5.3445,-5.4748,-5.5078,-5.51,-5.485,-5.2578,-4.855,-4.267,0.0,0.0,0.0,0.0,0.0,0.0,0.0,0.0,0.0,0.0,0.0,0.0,0.0,0.0,0.0,0.0,0.0,0.0,0.0,0.0,0.0,0.0,0.0,0.0,0.0,-2.665,0.0,0.0,0.0,0.0,0.0,0.0,0.0,0.0,0.0,0.0,-3.1732,-3.4167,-3.8149,-4.02,-4.2234,-4.4617,-4.4949,-4.5035,0.0,0.0,0.0,0.0,0.0,0.0,0.0,0.0,0.0,0.0,0.0,0.0,0.0,0.0,-3.6838,-3.4967,-3.4404,-3.3788,-3.2333,0.0,0.0,0.0,0.0,0.0,0.0,0.0,0.0,0.0,0.0,0.0,0.0,0.0,0.0,-4.0377,-4.0267,-3.9221,0.0,0.0,0.0,0.0,0.0,0.0,0.0,0.0,-4.5131,-4.5938,-4.5204,-4.6012,-4.5975,0.0,-4.5168,-4.2965,0.0,0.0,0.0,0.0,0.0,0.0,0.0,0.0,-4.135,-4.5847,-4.9903,-5.2637,-5.3922,-5.4252,-5.4418,-5.4363,-5.1499,-4.7168,-4.1332,-3.856,-3.5495,0.0,0.0,0.0,0.0,0.0,0.0,0.0,0.0,0.0,0.0,0.0,0.0,0.0,0.0,0.0,0.0,0.0,0.0,0.0,0.0,0.0,0.0,0.0,-2.684,0.0,0.0,0.0,0.0,0.0,0.0,0.0,0.0,0.0,-3.187,-3.3447,-3.574,-3.8877,-4.0567,-4.2194,-4.403,0.0,0.0,0.0,0.0,0.0,0.0,0.0,-4.0484,-3.962,-3.8112,-3.7376,-3.8439,-3.9224,-3.9735,-3.9897,0.0,0.0,-3.7701,-3.7007,-3.6372,-3.4949,-3.443,-3.4314,-3.4622,-3.468,-3.518,0.0,0.0,0.0,0.0,0.0,0.0,0.0,0.0,-4.4085,-4.3736,0.0,-4.2103,0.0,0.0,0.0,0.0,-3.9074,-4.1405,0.0,0.0,-4.8122,-4.9169,-4.8453,-4.928,-4.9224,-4.8416,-4.8343,-4.748,-4.5663,-4.1222,0.0,0.0,0.0,0.0,0.0,0.0,-4.1901,-4.5865,-4.9829,-5.2289,-5.3115,-5.3849,-5.4252,-5.4106,-5.038,-4.6819,-4.3625,-4.0487,-3.7661,-3.5169,-3.2761,0.0,0.0,0.0,0.0,0.0,0.0,0.0,0.0,0.0,0.0,0.0,0.0,0.0,0.0,0.0,0.0,0.0,0.0,0.0,0.0,-2.6245,0.0,0.0,0.0,0.0,0.0,0.0,0.0,0.0,0.0,-3.3182,-3.4253,-3.6263,-3.8323,-3.9878,0.0,0.0,0.0,0.0,-4.3532,-4.36,-4.3767,-4.3619,-4.2792,-4.1477,-4.0775,-4.1507,0.0,0.0,-4.1465,-4.1856,-4.198,-4.2158,-4.231,-4.2112,-4.0751,-3.9885,-3.9104,-3.818,-3.7392,-3.718,-3.7853,-3.7969,-3.8527,-5.3112,0.0,0.0,0.0,0.0,-4.7848,-4.8306,-4.904,-4.882,-4.8417,-4.7793,-4.6709,0.0,0.0,0.0,0.0,0.0,0.0,-4.6581,-4.8233,-5.0912,-5.1408,-5.016,-5.1518,-5.1444,-5.0123,-5.0086,-4.9242,-4.7572,-4.5645,-4.2708,-3.8854,0.0,0.0,0.0,0.0,-4.2451,-4.5828,-4.8802,-5.0674,-5.1481,-5.1701,-5.1555,-5.0986,-4.9242,-4.7076,-4.4452,-4.2378,-3.9882,-3.6909,-3.4431,0.0,0.0,0.0,0.0,0.0,0.0,0.0,0.0,0.0,0.0,0.0,0.0,0.0,0.0,0.0,0.0,0.0,0.0,0.0,-2.7758,-2.8686,-2.9152,0.0,0.0,0.0,0.0,0.0,0.0,0.0,0.0,0.0,-3.7305,-3.7971,-3.9209,0.0,0.0,-4.258,-4.3369,-4.3479,-4.3515,-4.3513,-4.3565,0.0,-4.2529,-4.1583,-4.1009,-4.1248,-4.1359,-4.1783,-4.2814,-4.3146,-4.3128,-4.2735,-4.2884,-4.2808,-4.2133,-4.1959,-4.1421,-4.0173,-4.0046,-4.0181,-3.99,-4.0258,-4.1008,-5.8249,-5.4454,-5.2692,-5.1979,-5.2016,-5.2307,-5.2894,-5.3647,-5.3665,-5.3206,-5.238,-5.1224,-4.9554,-4.7517,-4.6049,0.0,0.0,0.0,-4.9279,-5.0602,-5.2692,-5.317,-5.2344,-5.3225,-5.3188,-5.2215,-5.1573,-5.0765,-4.9756,-4.8618,-4.6636,-4.368,0.0,0.0,-4.1022,-4.1717,-4.3479,-4.6324,-4.8508,-4.9849,-5.0325,-5.0618,-5.0417,-4.961,-4.8453,-4.6984,-4.5223,-4.302,-4.0781,-3.8539,-3.5771,-3.2963,0.0,0.0,0.0,0.0,0.0,0.0,0.0,0.0,0.0,0.0,0.0,-2.4337,-2.463,0.0,0.0,0.0,-2.5411,-2.7339,-2.9732,-3.0393,0.0,0.0,0.0,0.0,0.0,0.0,0.0,-3.4412,-3.685,-3.8888,-3.9974,-4.012,-4.0671,-4.2121,-4.2561,-4.2947,-4.3441,0.0,-4.3479,-4.3479,-4.3479,-4.3314,-4.2837,-4.2103,-4.1589,-4.1572,-4.2231,-4.2892,-4.3386,-4.3635,-4.3601,-4.3361,-4.3463,-4.36,-4.3407,-4.3609,-4.334,-4.1879,-4.1931,-4.22,-4.2008,-4.2412,-4.3047,-6.2144,-6.0529,-5.7446,-5.6073,-5.5959,-5.6675,-5.7446,-5.818,-5.818,-5.7717,-5.685,-5.5328,-5.3714,-5.2009,-4.9678,0.0,-4.9955,-5.0686,-5.1456,-5.2284,-5.3803,-5.4499,-5.4426,-5.4426,-5.4389,-5.4279,-5.2779,-5.2009,-5.1844,-5.047,-4.9738,-4.9517,-4.4342,-4.2746,-4.4728,-4.4085,-4.48,-4.7076,-4.8673,-4.95,-4.9519,-5.0215,-5.0215,-4.9408,-4.7902,-4.6654,-4.5681,-4.2873,-4.0855,-3.9863,-3.6949,-3.4174,-3.1715,0.0,0.0,0.0,0.0,0.0,0.0,0.0,0.0,0.0,0.0,0.0,0.0,0.0,0.0,-2.5613,-2.721,0.0,-3.1378,-3.1727,0.0,0.0,0.0,-3.21,-3.2894,-3.4362,-3.5903,-3.7511,0.0,0.0,-4.2121,-4.2359,-4.2396,-4.2396,-4.3039,-4.3479,-4.3479,-4.3479,-4.3479,-4.3479,-4.3479,-4.3479,-4.3387,-4.2837,-4.2396,-4.2415,-4.302,-4.3424,-4.3496,-4.3549,-4.3684,-4.3795,-4.4033,-4.4227,-4.4567,-4.4675,-4.4577,-4.3387,-4.3255,-4.3492,-4.3818,-4.4154,-4.45,-6.4494,-6.3961,-6.1942,-6.0052,-5.8382,-5.8542,-5.9098,-5.9813,-5.9718,-5.9158,-5.8257,-5.7194,-5.54,-5.3162,-5.1978,-5.1887,-5.2672,-5.2854,-5.3362,-5.4184,-5.5165,-5.5292,-5.4729,-5.4716,-5.4389,-5.3748,-5.2786,-5.2031,-5.1537,-5.1262,-5.0853,-5.024,-4.7827,-4.6562,-4.6489,-4.5736,-4.592,-4.7094,-4.8104,-4.8618,-4.8618,-4.8802,-4.8526,-4.77,-4.7314,-4.6159,-4.414,-4.3349,-4.1992,-4.0008,-3.8579,-3.6417,-3.3385,-3.1727,0.0,0.0,0.0,0.0,0.0,0.0,0.0,0.0,0.0,-2.5723,-2.7119,0.0,-2.7273,0.0,-3.0161,-3.1953,-3.3128,-3.4376,0.0,0.0,-3.5238,-3.544,-3.6244,-3.7202,-3.8212,-3.9203,-4.0726,-4.1864,-4.2249,-4.2818,-4.3222,-4.3222,-4.3351,-4.3479,-4.3479,-4.3479,-4.3479,-4.3479,-4.3479,-4.3479,-4.3479,-4.3368,-4.3221,-4.3204,-4.3386,-4.3479,-4.3479,-4.3515,-4.3531,-4.36,-4.3769,-4.3955,-4.4136,-4.4327,-4.4425,-4.4308,-4.4554,-4.449,-4.352,-4.4276,-4.5089,-6.5319,-6.5147,-6.3427,-6.191,-6.0627,-6.075,-6.1056,-6.1441,-6.1261,-6.0541,-5.9385,-5.7854,-5.6204,-5.4548,-5.4056,-5.411,-5.453,-5.4548,-5.4781,-5.5237,-5.5667,-5.5631,-5.5201,-5.4484,-5.3954,-5.3462,-5.2034,-5.1395,-5.1488,-5.1398,-5.138,-5.1441,-5.0114,-4.9187,-4.869,-4.7223,-4.6838,-4.7608,-4.8086,-4.8324,-4.8324,-4.8324,-4.7921,-4.7113,-4.6397,-4.5241,-4.3552,-4.2486,-4.1275,-3.9971,-3.8781,-3.7,-3.4472,-3.3146,-3.1035,0.0,0.0,0.0,0.0,0.0,0.0,0.0,0.0,0.0,0.0,0.0,-3.0026,-3.1537,-3.2894,-3.4289,-3.5844,-3.6817,-3.7643,-3.8358,-3.845,-3.8615,-3.9056,-3.9827,-4.0469,-4.0928,-4.2066,-4.2837,-4.2837,-4.3239,-4.3479,-4.3479,-4.3479,-4.3479,-4.3479,-4.3479,-4.3479,-4.3479,-4.3479,-4.3479,-4.3479,-4.3479,-4.3479,-4.3479,-4.3479,-4.3479,-4.3479,-4.3479,-4.3479,-4.3496,-4.3617,-4.3749,-4.3918,-4.4075,-4.4221,-4.4359,-4.4405,-4.4129,-4.3501,-4.4432,-4.5189,-6.5319,-6.5128,-6.3324,-6.2475,-6.2318,-6.2508,-6.2636,-6.2679,-6.237,-6.1417,-5.9931,-5.7863,-5.6429,-5.561,-5.5504,-5.5451,-5.5468,-5.5362,-5.5362,-5.5451,-5.5468,-5.5521,-5.5557,-5.402,-5.3296,-5.3207,-5.1096,-5.0535,-5.1465,-5.1191,-5.1555,-5.2413,-5.1286,-5.0721,-5.0611,-4.8356,-4.7532,-4.8306,-4.8324,-4.8324,-4.8324,-4.8324,-4.7865,-4.6947,-4.548,-4.4176,-4.3056,-4.102,-3.9806,-3.9567,-3.8322,-3.689,-3.5261,-3.4399,-3.2577,0.0,-2.9317,0.0,0.0,0.0,0.0,0.0,0.0,0.0,0.0,-3.1591,-3.297,-3.5062,-3.5428,-3.6435,-3.8593,-3.8868,-3.9491,-4.0844,-4.1062,-4.1099,-4.1225,-4.1866,-4.2341,-4.2451,-4.3057,-4.3479,-4.3461,-4.3479,-4.3479,-4.3479,-4.3479,-4.3479,-4.3479,-4.3479,-4.3479,-4.3479,-4.3479,-4.3479,-4.3479,-4.3479,-4.3479,-4.3479,-4.3479,-4.3479,-4.3479,-4.3479,-4.3479,-4.3496,-4.3548,-4.3651,-4.3816,-4.3894,-4.3934,-4.3886,-4.3502,-4.3269,-4.3464,-4.4138,-4.4729,-6.5319,-6.5128,-6.3221,-6.2157,-6.1733,-6.1556,-6.175,-6.2123,-6.1638,-6.0206,-5.8182,-5.7473,-5.6348,-5.5034,-5.4418,-5.4138,-5.4103,-5.3556,-5.3609,-5.4156,-5.4156,-5.4488,-5.4947,-5.348,-5.2747,-5.2642,-5.1106,-5.0554,-5.0946,-5.1213,-5.154,-5.1916,-5.0787,-5.0221,-5.0152,0.0,0.0,0.0,-4.8324,-4.8324,-4.8324,-4.8324,-4.7609,-4.6177,-4.5186,0.0,-4.0726,-4.012,-3.9276,-3.8043,-3.8285,0.0,0.0,0.0,0.0,0.0,0.0,0.0,0.0,0.0,0.0,0.0,-3.4032,-3.4294,-3.3984,-3.5109,-3.605,-3.6522,-3.7734,-3.8659,-3.913,-3.9783,-4.029,-4.0631,-4.079,-4.115,-4.1876,-4.218,-4.2543,-4.3185,-4.3406,-4.3479,-4.3479,-4.3479,-4.3479,-4.3479,-4.3479,-4.3479,-4.3479,-4.3479,-4.3479,-4.3479,-4.3479,-4.3479,-4.3479,-4.3479,-4.3479,-4.3479,-4.3479,-4.3479,-4.3479,-4.3479,-4.3479,-4.3479,-4.3515,-4.3513,-4.3583,-4.3582,-4.3413,-4.2785,-4.2651,-4.2604,-4.2541,-4.2829,-4.3127,-6.5319,-6.5102,-6.3134,-6.196,0.0,-6.101,-6.0819,-6.0759,-6.0615,-5.9276,-5.7091,-5.6653,-5.5407,-5.3587,-5.3224,-5.2846,-5.2502,-5.2125,-5.2159,-5.252,-5.288,-5.3275,-5.357,-5.2437,-5.1922,-5.1836,-5.0034,-4.9522,-5.0148,-5.0157,-5.0506,-5.1121,-5.0019,-4.9459,-4.9405,-4.803,-4.7582,-4.8151,-4.8228,-4.8267,-4.8324,-4.8267,-4.7458,-4.5809,-4.4931,0.0,0.0,0.0,0.0,0.0,0.0,0.0,0.0,0.0,0.0,-3.3103,-3.3304,-3.3344,-3.2998,-3.4022,-3.5238,-3.6422,-3.733,-3.7519,-3.6793,-3.7237,-3.772,-3.8114,-3.8883,-3.9527,-3.9921,-4.0314,-4.0785,-4.1317,-4.1577,-4.1978,-4.2504,-4.2771,-4.3057,-4.3387,-4.3479,-4.3479,-4.3479,-4.3479,-4.3479,-4.3479,-4.3479,-4.3479,-4.3479,-4.3479,-4.3479,-4.3479,-4.3479,-4.3479,-4.3479,-4.3479,-4.3479,-4.3479,-4.3479,-4.3479,-4.3479,-4.3479,-4.3479,-4.3479,-4.3479,-4.3479,-4.3479,-4.3479,-4.3258,-4.2486,-4.2053,-4.1706,-4.1375,-4.1814,-4.2272,-6.5319,-6.5102,-6.3055,-6.174,-6.1039,-6.0547,-5.9888,-5.9215,-5.9561,0.0,0.0,-5.596,-5.46,-5.2723,-5.2283,-5.1792,-5.1168,-5.0914,-5.0963,-5.1219,-5.1843,-5.2266,-5.2469,-5.1623,-5.1234,-5.1116,-4.9072,-4.8578,-4.9406,-4.916,-4.951,-5.0195,-4.9248,-4.8519,-4.8226,-4.7293,-4.7111,-4.7731,-4.7992,-4.8189,-4.8287,-4.8208,-4.7341,-4.5544,-4.4611,-4.2936,-4.0401,-3.9823,-3.953,-3.9502,-3.901,-3.8591,-3.8318,-3.7729,-3.6586,-3.4961,-3.563,-3.6134,-3.6152,-3.6907,-3.7952,-3.9391,-3.9621,-3.9441,-3.8838,-3.8618,-3.879,-3.9447,-3.9644,-4.0014,-4.0634,-4.0704,-4.1054,-4.2,-4.2398,-4.2637,-4.2865,-4.3196,-4.3356,-4.3392,-4.3375,-4.3392,-4.341,-4.341,-4.3463,-4.348,-4.3497,-4.3479,-4.3479,-4.3479,-4.3479,-4.3479,-4.3479,-4.3479,-4.3479,-4.3479,-4.3479,-4.3479,-4.3479,-4.3479,-4.3479,-4.3479,-4.346,-4.3204,-4.3277,-4.3185,-4.3094,-4.2947,-4.2782,-4.2029,-4.1381,-4.0759,-4.0211,-4.0761,-4.1393,-6.5294,-6.5121,-6.293,-6.1451,-6.0476,-5.987,-5.9063,-5.819,-5.865,-5.817,-5.6966,-5.6093,-5.5175,-5.416,-5.2249,-5.1319,-5.1117,-4.9898,-4.9999,-5.1168,-5.1319,-5.208,-5.323,-5.1877,-5.1234,-5.1099,-4.961,-4.8975,-4.9243,-4.9453,-4.9717,-4.9798,-4.8787,-4.7535,-4.6322,-4.6274,-4.6507,-4.689,-4.7524,-4.7994,-4.8268,-4.8111,-4.709,-4.5253,-4.4162,-4.2335,-3.9678,-3.9695,-3.9549,-3.9138,-3.968,-3.9427,-3.8071,-3.8313,-3.7648,-3.5952,-3.7048,-3.7844,-3.7844,-3.8591,-3.9363,-4.0046,-3.9874,-3.9525,-3.9199,-3.952,-3.9769,-3.9931,-4.0471,-4.1004,-4.1108,-4.1091,-4.1193,-4.1618,-4.1941,-4.2198,-4.2438,-4.2769,-4.2957,-4.2957,-4.2976,-4.3031,-4.3123,-4.3196,-4.3286,-4.3394,-4.3445,-4.3479,-4.3479,-4.3479,-4.3479,-4.3479,-4.3479,-4.3479,-4.3479,-4.3479,-4.3479,-4.3479,-4.3479,-4.3479,-4.3479,-4.3479,-4.3276,-4.2616,-4.2543,-4.2286,-4.1735,-4.1442,-4.1222,-4.0598,-4.0262,-3.9911,-3.9206,-3.9346,-3.9796,-6.4831,-6.453,-6.2398,-6.0968,-6.0055,-5.9045,-5.8368,-5.7918,-5.8154,-5.7799,-5.6908,-5.6073,-5.5074,-5.3907,-5.2452,-5.1572,-5.1151,-5.0507,-5.0574,-5.1217,-5.1623,-5.2164,-5.2706,-5.1725,-5.1234,-5.1116,-4.9712,-4.9032,-4.9077,-4.9229,-4.935,-4.9321,-4.8066,-4.6632,-4.527,-4.5415,-4.5717,-4.6049,-4.6941,-4.7603,-4.7949,-4.7666,-4.66,-4.4782,-4.4049,-4.2467,-3.9834,-3.9993,-4.0104,-4.0046,-3.9898,-3.9774,-3.9546,-3.9187,-3.8536,-3.7586,-3.8548,-3.9196,-3.9178,-3.9917,-4.0429,-4.0555,-4.0337,-4.0076,-3.9813,-3.9948,-4.0042,-4.0059,-4.0408,-4.0597,-4.0597,-4.0597,-4.0734,-4.0971,-4.1248,-4.1525,-4.1782,-4.2098,-4.2302,-4.2302,-4.2284,-4.238,-4.2593,-4.2806,-4.2995,-4.316,-4.3339,-4.3479,-4.3479,-4.3479,-4.3479,-4.3479,-4.3479,-4.3479,-4.3479,-4.3479,-4.3479,-4.3479,-4.3479,-4.3479,-4.3479,-4.3479,-4.3149,-4.2488,-4.2304,-4.1974,-4.1224,-4.1113,-4.0744,-4.0102,-3.9882,-3.957,-3.898,-3.8837,-3.9272,-6.4007,-6.3815,-6.1658,-6.0326,-5.9526,-5.8388,-5.7881,-5.7881,-5.7918,-5.7577,-5.6985,-5.6122,-5.5091,-5.3957,-5.2841,-5.1995,-5.1488,-5.1252,-5.1269,-5.1505,-5.2046,-5.2401,-5.2435,-5.1674,-5.1234,-5.1016,-4.9712,-4.9018,-4.9018,-4.9018,-4.8815,-4.8426,-4.7361,-4.6058,-4.4649,-4.4831,-4.5123,-4.5477,-4.628,-4.6931,-4.7385,-4.7062,-4.6006,-4.4284,-4.3851,-4.2526,-4.0228,-4.0277,-4.0587,-4.0842,-4.0207,-4.0102,-4.0559,-3.9964,-3.9325,-3.9,-3.9577,-4.0032,-4.0066,-4.0585,-4.0866,-4.0652,-4.0556,-4.041,-4.0263,-4.0146,-4.0113,-4.0113,-4.0121,-4.0138,-4.0121,-4.0121,-4.0213,-4.0419,-4.0666,-4.0961,-4.1168,-4.1459,-4.1678,-4.166,-4.1678,-4.1782,-4.2032,-4.2338,-4.2673,-4.2939,-4.3232,-4.3393,-4.3428,-4.3463,-4.348,-4.3479,-4.3479,-4.3479,-4.3479,-4.3479,-4.3479,-4.3479,-4.3479,-4.3589,-4.3663,-4.3681,-4.3185,-4.2506,-4.2103,-4.1534,-4.0783,-4.049,-4.023,-3.9643,-3.9515,-3.9368,-3.8872,-3.8825,-3.9059,-6.2856,-6.2581,-6.0783,-5.9543,-5.8789,-5.8154,-5.7881,-5.7881,-5.7881,-5.7865,-5.7594,-5.6342,-5.5632,-5.5191,-5.3264,-5.23,-5.2147,-5.1489,-5.1557,-5.2164,-5.2266,-5.2672,-5.3162,-5.1861,-5.1234,-5.1016,-4.9712,-4.9018,-4.9018,-4.9018,-4.8325,-4.7141,-4.6853,-4.6058,-4.4767,-4.4748,-4.4951,-4.523,-4.5468,-4.5868,-4.6472,-4.6317,-4.5306,-4.3464,-4.3136,-4.2088,-4.0203,-4.0341,-4.0603,-4.0845,-4.0851,-4.0538,-4.0058,-4.0239,-4.0018,-3.9125,-3.967,-4.0094,-4.0094,-4.0162,-4.0221,-4.0171,-4.0171,-4.018,-4.0172,-4.013,-4.0113,-4.018,-4.0146,-4.0113,-4.0113,-4.0113,-4.0163,-4.0288,-4.0483,-4.0683,-4.0849,-4.1082,-4.126,-4.126,-4.1197,-4.1368,-4.1591,-4.1881,-4.2279,-4.275,-4.2957,-4.3123,-4.3214,-4.3304,-4.341,-4.348,-4.3479,-4.3479,-4.3479,-4.3479,-4.3479,-4.3479,-4.3479,-4.3699,-4.4011,-4.3809,-4.3221,-4.2249,-4.1717,-4.0838,-3.9643,-3.8927,-3.9019,-3.9074,-3.8946,-3.8817,-3.8707,-3.8719,-3.8892,-6.1886,-6.1378,-5.9966,-5.8995,-5.8385,-5.8027,-5.7881,-5.7881,-5.7881,-5.7645,-5.7154,-5.6156,-5.5681,-5.5563,-5.3805,-5.3027,-5.2993,-5.2706,-5.2723,-5.2993,-5.301,-5.3196,-5.3315,-5.1912,-5.1234,-5.1099,-4.9712,-4.9018,-4.9018,-4.9018,-4.8257,-4.6938,-4.6786,-4.6041,-4.4733,-4.4654,-4.4737,-4.4831,-4.4896,-4.5052,-4.5337,-4.5572,-4.4844,-4.3251,-4.2826,-4.1861,-4.0332,-4.0288,-4.0476,-4.0713,-4.07,-4.0562,-4.0306,-4.0377,-4.0201,-3.9731,-3.9926,-4.0113,-4.0113,-4.0113,-4.0113,-4.0113,-4.0113,-4.0282,-4.0713,-4.0747,-4.0899,-4.1247,-4.0637,-4.0113,-4.013,-4.0113,-4.0121,-4.0205,-4.0271,-4.0345,-4.0377,-4.05,-4.0549,-4.0549,-4.0549,-4.0645,-4.0931,-4.1316,-4.1743,-4.218,-4.2438,-4.2634,-4.2863,-4.3068,-4.325,-4.3427,-4.3479,-4.3479,-4.3479,-4.3479,-4.3479,-4.3479,-4.3479,-4.3699,-4.3883,-4.3791,-4.3094,-4.1882,-4.137,-4.0526,-3.9074,-3.8744,-3.8707,-3.8707,-3.8707,-3.8707,-3.8707,-3.8707,-3.8792,-6.0721,-6.0082,-5.9133,-5.8491,-5.8116,-5.7954,-5.7881,-5.7881,-5.7881,-5.7492,-5.6748,-5.6038,-5.5598,-5.5243,-5.4059,-5.3518,-5.3518,-5.3518,-5.3518,-5.3518,-5.3518,-5.3518,-5.3348,-5.1944,-5.1234,-5.098,-4.9712,-4.9018,-4.9018,-4.9018,-4.8342,-4.7242,-4.6904,-4.616,-4.5021,-4.475,-4.4598,-4.4598,-4.4598,-4.4598,-4.4654,-4.4978,-4.4386,-4.2894,-4.2559,-4.1723,-4.018,-4.0188,-4.0296,-4.0451,-4.0419,-4.0419,-4.0451,-4.032,-4.0213,-4.0113,-4.0113,-4.0113,-4.0113,-4.0113,-4.0113,-4.0113,-4.0113,-4.0392,-4.1035,-4.1204,-4.1542,-4.2066,-4.1331,-4.0756,-4.0679,-4.0536,-4.0485,-4.0654,-4.0544,-4.0417,-4.0434,-4.0392,-4.0375,-4.0146,-4.0171,-4.0221,-4.05,-4.0902,-4.1303,-4.1609,-4.1903,-4.2154,-4.2458,-4.2693,-4.2939,-4.3286,-4.3339,-4.3428,-4.3462,-4.3479,-4.3516,-4.3735,-4.3754,-4.3663,-4.3846,-4.3901,-4.3185,-4.2121,-4.1499,-4.0526,-3.9129,-3.8726,-3.8781,-3.8726,-3.8726,-3.8762,-3.8707,-3.8707,-3.8723,-5.9106,-5.897,-5.8276,-5.7954,-5.7918,-5.7881,-5.7881,-5.7881,-5.7881,-5.7476,-5.6714,-5.6038,-5.5327,-5.46,-5.3839,-5.3518,-5.3518,-5.3518,-5.3518,-5.3518,-5.3518,-5.3518,-5.3399,-5.1961,-5.1234,-5.1099,-4.9712,-4.9018,-4.9018,-4.9001,-4.8629,-4.7851,-4.7192,-4.643,-4.5618,-4.4959,-4.4615,-4.4615,-4.4598,-4.4598,-4.4598,-4.4626,-4.3925,-4.2535,-4.2313,-4.1619,-4.0299,-4.0096,-4.0138,-4.0121,-4.0121,-4.0138,-4.0121,-4.0121,-4.0096,-4.0113,-4.0113,-4.0113,-4.0146,-4.018,-4.0197,-4.018,-4.0299,-4.046,-4.1305,-4.1424,-4.1762,-4.2269,-4.2405,-4.2286,-4.2117,-4.1457,-4.1356,-4.1897,-4.1491,-4.1136,-4.1153,-4.1068,-4.0798,-4.0307,-4.0146,-4.0238,-4.0531,-4.0707,-4.0896,-4.1169,-4.1436,-4.1701,-4.1948,-4.2221,-4.2518,-4.2788,-4.2994,-4.3215,-4.3428,-4.348,-4.381,-4.3993,-4.3828,-4.3864,-4.447,-4.4635,-4.3406,-4.2396,-4.1754,-4.0728,-3.9331,-3.8762,-3.8891,-3.8909,-3.8909,-3.8891,-3.9276,-3.8872,-3.8924,-5.8727,-5.8287,-5.8,-5.7881,-5.7881,-5.7881,-5.7881,-5.7881,-5.7881,-5.7205,-5.6207,-5.5818,-5.5057,-5.3873,-5.3619,-5.3518,-5.3518,-5.3518,-5.3518,-5.3518,-5.3518,-5.3518,-5.3331,-5.1912,-5.1234,-5.0982,-4.9729,-4.9018,-4.9018,-4.9018,-4.8629,-4.8003,-4.7665,-4.6921,-4.5872,-4.5449,-4.5077,-4.4649,-4.4598,-4.4598,-4.4598,-4.4598,-4.387,-4.2405,-4.2303,-4.1619,-4.0146,-4.0113,-4.0113,-4.0113,-4.0113,-4.0113,-4.0113,-4.0113,-4.0113,-4.0113,-4.0113,-4.0316,-4.0713,-4.0781,-4.1001,-4.1441,-4.1517,-4.1779,-4.2439,-4.2615,-4.2929,-4.3623,-4.4231,-4.4282,-4.3521,-4.2252,-4.1508,-4.2033,-4.1677,-4.1441,-4.1677,-4.1508,-4.1085,-4.0781,-4.0434,-4.0171,-4.0254,-4.0328,-4.0402,-4.05,-4.0734,-4.103,-4.1258,-4.1508,-4.1846,-4.2121,-4.2398,-4.2652,-4.2957,-4.3286,-4.3556,-4.37,-4.3699,-4.3681,-4.4048,-4.414,-4.3185,-4.2616,-4.1992,-4.1389,-4.0175,-3.9753,-3.9735,-3.9918,-3.9845,-3.9698,-4.0175,-3.9625,-3.9717,-5.8355,-5.7915,-5.7881,-5.7881,-5.7881,-5.7881,-5.7881,-5.7881,-5.7865,-5.707,-5.5902,-5.5681,-5.4905,-5.367,-5.3518,-5.3518,-5.3518,-5.3518,-5.3518,-5.3518,-5.3518,-5.3518,-5.3264,-5.1895,-5.1234,-5.0997,-4.9729,-4.9018,-4.9018,-4.9018,-4.8748,-4.8291,-4.8054,-4.731,-4.621,-4.5838,-4.5331,-4.4733,-4.4598,-4.4598,-4.4598,-4.4598,-4.4005,-4.2844,-4.2422,-4.1619,-4.018,-4.0113,-4.0113,-4.0113,-4.0113,-4.0113,-4.0113,-4.0113,-4.0113,-4.0113,-4.0113,-4.0409,-4.1068,-4.1204,-4.1508,-4.2202,-4.2303,-4.2675,-4.3623,-4.3792,-4.4282,-4.5111,-4.5686,-4.5805,-4.5128,-4.3724,-4.2794,-4.2929,-4.2371,-4.2117,-4.254,-4.2236,-4.1745,-4.1187,-4.051,-4.0163,-4.0113,-4.0096,-4.0121,-4.0113,-4.0296,-4.0531,-4.075,-4.0984,-4.1253,-4.1565,-4.1842,-4.2133,-4.2438,-4.2769,-4.3543,-4.3797,-4.3609,-4.3572,-4.3719,-4.3663,-4.3351,-4.2818,-4.2378,-4.1884,-4.1407,-4.0928,-4.091,-4.1113,-4.0765,-4.0435,-4.0487,-4.0304,-4.0432,-5.7898,-5.7881,-5.7881,-5.7881,-5.7881,-5.7881,-5.7881,-5.7881,-5.7831,-5.7002,-5.5801,-5.5631,-5.4803,-5.3737,-5.3518,-5.3518,-5.3518,-5.3518,-5.3518,-5.3518,-5.3518,-5.3518,-5.3416,-5.1944,-5.1082,-5.0947,-4.9678,-4.9018,-4.9018,-4.9018,-4.8951,-4.8832,-4.8261,-4.7597,-4.6752,-4.6092,-4.5382,-4.4784,-4.4598,-4.4598,-4.4598,-4.4598,-4.4181,-4.3369,-4.2726,-4.1721,-4.0248,-4.013,-4.0113,-4.0113,-4.0113,-4.0113,-4.0197,-4.0214,-4.0163,-4.0299,-4.0214,-4.0553,-4.1204,-4.139,-4.1779,-4.2422,-4.2422,-4.3149,-4.4316,-4.4587,-4.5128,-4.6273,-4.6701,-4.6735,-4.6566,-4.594,-4.5229,-4.4637,-4.3842,-4.3369,-4.3443,-4.3358,-4.2828,-4.1457,-4.057,-4.0146,-4.0113,-4.0113,-4.0113,-4.0138,-4.0213,-4.0345,-4.0514,-4.0683,-4.089,-4.1123,-4.1328,-4.1556,-4.1903,-4.2292,-4.3276,-4.398,-4.3687,-4.3556,-4.3978,-4.4069,-4.359,-4.3113,-4.3167,-4.271,-4.2194,-4.1772,-4.1772,-4.1846,-4.1442,-4.126,-4.1332,-4.1313,-4.1056,-5.7881,-5.7881,-5.7881,-5.7881,-5.7881,-5.7881,-5.7881,-5.7814,-5.7374,-5.6579,-5.5733,-5.5175,-5.4397,-5.3687,-5.3518,-5.3518,-5.3518,-5.3518,-5.3518,-5.3518,-5.3518,-5.3518,-5.3213,-5.1944,-5.0659,-4.9779,-4.9255,-4.9018,-4.9018,-4.9018,-4.9018,-4.8934,-4.8781,-4.8003,-4.6853,-4.6532,-4.5872,-4.4733,-4.4598,-4.4598,-4.4598,-4.4598,-4.4215,-4.3477,-4.3183,-4.2371,-4.095,-4.0383,-4.0113,-4.0113,-4.0113,-4.0333,-4.073,-4.0865,-4.1085,-4.1525,-4.1636,-4.1931,-4.2591,-4.2699,-4.2997,-4.3684,-4.387,-4.4333,-4.5179,-4.5348,-4.5805,-4.6752,-4.7225,-4.7394,-4.6955,-4.7107,-4.6853,-4.6177,-4.5021,-4.4451,-4.4604,-4.3589,-4.232,-4.1356,-4.0544,-4.0163,-4.0113,-4.013,-4.0113,-4.0113,-4.0138,-4.0221,-4.0254,-4.0328,-4.0328,-4.0451,-4.0693,-4.1007,-4.1338,-4.163,-4.2228,-4.3044,-4.3099,-4.3433,-4.3944,-4.4071,-4.363,-4.3737,-4.3774,-4.3663,-4.3112,-4.2873,-4.2947,-4.2671,-4.2378,-4.2415,-4.2561,-4.2304,-4.1827,-5.7881,-5.7881,-5.7881,-5.7881,-5.7881,-5.7881,-5.7881,-5.778,-5.7103,-5.6393,-5.5666,-5.4938,-5.4194,-5.3619,-5.3518,-5.3518,-5.3518,-5.3518,-5.3518,-5.3518,-5.3518,-5.3518,-5.3298,-5.1928,-5.0439,-4.9255,-4.9018,-4.9018,-4.9018,-4.9018,-4.9018,-4.9018,-4.9018,-4.8257,-4.6938,-4.6735,-4.6058,-4.4818,-4.4598,-4.4598,-4.4598,-4.4598,-4.435,-4.3876,-4.3544,-4.2919,-4.2033,-4.1288,-4.0671,-4.0231,-4.0113,-4.0443,-4.1119,-4.1221,-4.1525,-4.2117,-4.2337,-4.2608,-4.3274,-4.3335,-4.3758,-4.4401,-4.4598,-4.5089,-4.5838,-4.6109,-4.6515,-4.7513,-4.8037,-4.8139,-4.7817,-4.8003,-4.8054,-4.7682,-4.6295,-4.5568,-4.5466,-4.3944,-4.2709,-4.2016,-4.1204,-4.0671,-4.0493,-4.0214,-4.013,-4.0113,-4.0113,-4.0113,-4.0113,-4.0096,-4.0096,-4.0146,-4.0345,-4.0604,-4.0808,-4.1024,-4.1236,-4.1831,-4.2331,-4.2999,-4.3665,-4.356,-4.3269,-4.4326,-4.4709,-4.5094,-4.4709,-4.4488,-4.4415,-4.392,-4.3185,-4.3112,-4.3002,-4.2561,-4.2213,-5.7881,-5.7881,-5.7881,-5.7881,-5.7881,-5.7881,-5.7881,-5.7746,-5.7002,-5.6308,-5.5649,-5.4803,-5.4126,-5.3602,-5.3518,-5.3518,-5.3518,-5.3518,-5.3518,-5.3518,-5.3501,-5.3416,-5.2942,-5.1775,-5.0407,-4.9204,-4.9018,-4.9018,-4.9018,-4.9018,-4.9018,-4.9018,-4.8951,-4.8257,-4.7056,-4.6786,-4.6075,-4.4801,-4.4598,-4.4598,-4.4598,-4.4598,-4.4581,-4.4513,-4.391,-4.3443,-4.3132,-4.2455,-4.1542,-4.0468,-4.0417,-4.0764,-4.1238,-4.1339,-4.1813,-4.2557,-4.2472,-4.2895,-4.3369,-4.3578,-4.3859,-4.4513,-4.4649,-4.5241,-4.6397,-4.6684,-4.7242,-4.8562,-4.8866,-4.8917,-4.8849,-4.8883,-4.8883,-4.8798,-4.753,-4.6583,-4.5771,-4.4434,-4.3555,-4.3183,-4.2236,-4.1221,-4.1136,-4.0587,-4.0299,-4.0113,-4.0113,-4.0113,-4.0113,-4.0113,-4.0113,-4.0163,-4.0238,-4.0303,-4.0514,-4.0587,-4.0784,-4.0995,-4.1561,-4.2284,-4.3248,-4.3282,-4.3488,-4.4565,-4.5645,-4.6085,-4.5993,-4.5424,-4.4874,-4.414,-4.3699,-4.3571,-4.3259,-4.2837,-4.2708,-5.7881,-5.7881,-5.7881,-5.7881,-5.7881,-5.7881,-5.7881,-5.7712,-5.6545,-5.5936,-5.548,-5.4346,-5.3721,-5.3518,-5.3518,-5.3518,-5.3518,-5.3518,-5.3518,-5.3518,-5.3518,-5.2757,-5.2012,-5.1422,-5.0424,-4.9221,-4.9035,-4.9018,-4.9018,-4.9018,-4.9018,-4.9018,-4.8984,-4.8274,-4.7005,-4.6802,-4.6007,-4.4818,-4.4615,-4.4598,-4.4598,-4.4598,-4.4598,-4.4581,-4.435,-4.3978,-4.3436,-4.2692,-4.2185,-4.1796,-4.1737,-4.2049,-4.2658,-4.276,-4.3047,-4.3718,-4.3938,-4.3995,-4.4181,-4.4231,-4.4395,-4.4547,-4.4598,-4.5258,-4.6633,-4.6786,-4.753,-4.8629,-4.9018,-4.9018,-4.9018,-4.9018,-4.9018,-4.89,-4.8156,-4.7327,-4.6464,-4.5229,-4.4293,-4.4141,-4.2946,-4.2033,-4.1508,-4.1102,-4.073,-4.0367,-4.0248,-4.0265,-4.04,-4.0231,-4.0299,-4.0163,-4.0163,-4.0171,-4.0204,-4.0229,-4.0303,-4.0353,-4.0795,-4.1351,-4.2465,-4.331,-4.3832,-4.4675,-4.5993,-4.6654,-4.5975,-4.5296,-4.4745,-4.436,-4.3828,-4.3533,-4.3497,-4.324,-4.3185,-5.7881,-5.7881,-5.7881,-5.7881,-5.7881,-5.7881,-5.7881,-5.7594,-5.6376,-5.5681,-5.5378,-5.416,-5.3518,-5.3518,-5.3518,-5.3518,-5.3518,-5.3518,-5.3518,-5.3518,-5.3518,-5.2841,-5.1894,-5.142,-5.0591,-4.9543,-4.9154,-4.9018,-4.9018,-4.9018,-4.9018,-4.9018,-4.9018,-4.8376,-4.7361,-4.6887,-4.6244,-4.5213,-4.4801,-4.4598,-4.4598,-4.4598,-4.4598,-4.4598,-4.4598,-4.4316,-4.3876,-4.3515,-4.3041,-4.2472,-4.232,-4.2642,-4.3291,-4.3403,-4.3792,-4.4513,-4.4598,-4.4581,-4.4598,-4.4598,-4.4598,-4.4598,-4.4598,-4.5376,-4.6413,-4.6802,-4.7394,-4.8748,-4.8968,-4.9018,-4.9018,-4.9018,-4.9018,-4.8968,-4.8629,-4.8054,-4.7344,-4.6244,-4.5618,-4.5162,-4.4231,-4.3132,-4.2591,-4.21,-4.1525,-4.1213,-4.1179,-4.1162,-4.1102,-4.0807,-4.0536,-4.0485,-4.0248,-4.0189,-4.0163,-4.0171,-4.0171,-4.0196,-4.0395,-4.0843,-4.1811,-4.3086,-4.4061,-4.4891,-4.6211,-4.6856,-4.6067,-4.5425,-4.5131,-4.4654,-4.3974,-4.3533,-4.3497,-4.3479,-4.3479,-5.7881,-5.7881,-5.7881,-5.7881,-5.7881,-5.7881,-5.7814,-5.7492,-5.6308,-5.5632,-5.526,-5.411,-5.3534,-5.3518,-5.3518,-5.3518,-5.3518,-5.3518,-5.3518,-5.3518,-5.3467,-5.3061,-5.2469,-5.1758,-5.0913,-5.0033,-4.9373,-4.912,-4.9052,-4.9018,-4.9018,-4.9018,-4.9018,-4.8612,-4.7821,-4.7259,-4.6515,-4.5686,-4.5077,-4.4722,-4.4649,-4.4598,-4.4598,-4.4598,-4.4598,-4.4581,-4.4513,-4.4395,-4.391,-4.2651,-4.2567,-4.2997,-4.3538,-4.3572,-4.3859,-4.4429,-4.4598,-4.4598,-4.4598,-4.4598,-4.4598,-4.4615,-4.4699,-4.5309,-4.6464,-4.6921,-4.7581,-4.8883,-4.9001,-4.9018,-4.9018,-4.9018,-4.9018,-4.9001,-4.8951,-4.8663,-4.8088,-4.7361,-4.6904,-4.6819,-4.5647,-4.497,-4.4276,-4.3487,-4.2455,-4.1796,-4.1796,-4.1762,-4.1694,-4.1508,-4.1221,-4.0984,-4.0646,-4.0248,-4.018,-4.0096,-4.0096,-4.0121,-4.0296,-4.071,-4.1399,-4.2594,-4.3926,-4.5044,-4.5821,-4.6248,-4.6177,-4.5718,-4.5315,-4.4654,-4.379,-4.357,-4.3479,-4.3479,-4.3479,-5.7881,-5.7881,-5.7881,-5.7881,-5.7881,-5.7865,-5.756,-5.6951,-5.6105,-5.5361,-5.4735,-5.389,-5.3534,-5.3518,-5.3518,-5.3518,-5.3518,-5.3518,-5.3518,-5.3518,-5.3518,-5.345,-5.3078,-5.2418,-5.1352,-5.0388,-4.9965,-4.956,-4.9154,-4.9018,-4.9018,-4.9018,-4.8968,-4.8646,-4.799,-4.7703,-4.6989,-4.594,-4.5534,-4.5128,-4.4716,-4.4615,-4.4598,-4.4598,-4.4598,-4.4598,-4.4598,-4.4598,-4.4429,-4.4192,-4.4056,-4.4012,-4.4198,-4.4265,-4.4395,-4.4513,-4.4598,-4.4598,-4.4598,-4.4598,-4.4598,-4.4632,-4.5111,-4.5821,-4.6667,-4.7327,-4.8003,-4.8815,-4.9018,-4.9018,-4.9018,-4.9018,-4.9018,-4.9018,-4.9001,-4.8951,-4.8697,-4.8105,-4.7716,-4.7479,-4.6853,-4.5906,-4.4852,-4.4581,-4.3656,-4.2675,-4.2388,-4.2354,-4.2303,-4.2269,-4.1982,-4.1711,-4.1271,-4.0908,-4.0671,-4.0502,-4.0265,-4.0163,-4.0221,-4.0395,-4.1099,-4.1893,-4.3141,-4.4178,-4.512,-4.5402,-4.557,-4.5388,-4.4837,-4.4195,-4.368,-4.3588,-4.3479,-4.3479,-4.3479,-5.7881,-5.7881,-5.7881,-5.7695,-5.7391,-5.7374,-5.6968,-5.6241,-5.5513,-5.4955,-5.4515,-5.3822,-5.3518,-5.3518,-5.3518,-5.3518,-5.3518,-5.3518,-5.3518,-5.3518,-5.3518,-5.3518,-5.3467,-5.2993,-5.2097,-5.076,-5.0219,-4.9712,-4.9187,-4.9018,-4.9018,-4.9018,-4.9018,-4.8849,-4.8362,-4.8075,-4.7534,-4.6786,-4.6007,-4.5483,-4.5145,-4.4767,-4.4598,-4.4598,-4.4598,-4.4598,-4.4598,-4.4598,-4.4598,-4.4598,-4.4598,-4.4598,-4.4598,-4.4598,-4.4598,-4.4598,-4.4598,-4.4598,-4.4598,-4.4598,-4.4598,-4.4615,-4.5263,-4.6007,-4.6735,-4.7479,-4.8206,-4.8798,-4.9018,-4.9018,-4.9018,-4.9018,-4.9018,-4.9018,-4.9018,-4.9018,-4.8934,-4.8646,-4.8426,-4.8291,-4.775,-4.7073,-4.638,-4.5737,-4.5179,-4.4333,-4.413,-4.4045,-4.3386,-4.3284,-4.2828,-4.2472,-4.1999,-4.161,-4.1314,-4.0976,-4.0536,-4.0316,-4.0121,-4.0246,-4.0576,-4.1383,-4.2241,-4.3213,-4.4162,-4.4555,-4.469,-4.4492,-4.438,-4.3901,-4.3552,-4.3497,-4.3479,-4.3479,-4.3479,-5.7881,-5.7881,-5.7881,-5.7476,-5.6867,-5.6816,-5.6359,-5.5497,-5.4888,-5.4549,-5.4329,-5.3754,-5.3518,-5.3518,-5.3518,-5.3518,-5.3518,-5.3518,-5.3518,-5.3518,-5.3518,-5.3518,-5.3484,-5.3298,-5.2604,-5.1285,-5.0642,-4.9915,-4.9221,-4.9018,-4.9018,-4.9018,-4.9018,-4.8951,-4.8815,-4.8413,-4.7956,-4.7551,-4.6722,-4.5957,-4.5618,-4.5094,-4.4835,-4.4598,-4.4598,-4.4598,-4.4598,-4.4598,-4.4598,-4.4598,-4.4598,-4.4598,-4.4598,-4.4598,-4.4598,-4.4598,-4.4598,-4.4598,-4.4598,-4.4598,-4.4598,-4.4649,-4.5449,-4.6109,-4.6802,-4.7631,-4.8376,-4.8765,-4.9018,-4.9018,-4.9018,-4.9018,-4.9018,-4.9018,-4.9018,-4.9018,-4.9018,-4.9018,-4.8917,-4.8849,-4.8426,-4.7868,-4.7496,-4.7022,-4.6532,-4.6058,-4.5838,-4.5483,-4.4773,-4.4113,-4.3589,-4.3149,-4.2675,-4.1863,-4.1457,-4.1238,-4.0815,-4.0417,-4.0146,-4.0163,-4.0238,-4.072,-4.1452,-4.2295,-4.3041,-4.3472,-4.3863,-4.3944,-4.3797,-4.3519,-4.3479,-4.3479,-4.3479,-4.3479,-4.3479,-5.7881,-5.7881,-5.7881,-5.7459,-5.685,-5.6782,-5.597,-5.4888,-5.46,-5.4228,-5.3737,-5.3568,-5.3518,-5.3518,-5.3518,-5.3518,-5.3518,-5.3518,-5.3518,-5.3518,-5.3518,-5.3518,-5.3518,-5.3484,-5.2655,-5.154,-5.0947,-5.027,-4.9272,-4.9018,-4.9018,-4.9018,-4.9018,-4.9018,-4.8984,-4.8815,-4.846,-4.8075,-4.7483,-4.687,-4.6075,-4.5652,-4.5213,-4.4818,-4.4733,-4.4666,-4.4598,-4.4598,-4.4598,-4.4598,-4.4598,-4.4615,-4.4632,-4.4632,-4.4649,-4.4598,-4.4598,-4.4598,-4.4598,-4.4598,-4.4598,-4.4902,-4.5771,-4.6498,-4.7039,-4.797,-4.8697,-4.89,-4.9018,-4.9018,-4.9018,-4.9018,-4.9018,-4.9018,-4.9018,-4.9018,-4.9018,-4.9018,-4.9018,-4.8968,-4.8781,-4.8612,-4.8223,-4.7851,-4.7378,-4.6718,-4.6227,-4.5906,-4.5348,-4.4688,-4.4096,-4.369,-4.3301,-4.2371,-4.1491,-4.1322,-4.1035,-4.0519,-4.0231,-4.0113,-4.0163,-4.0163,-4.0703,-4.1493,-4.2075,-4.2492,-4.2843,-4.3265,-4.3415,-4.3323,-4.3392,-4.3479,-4.3479,-4.3479,-4.3479,-5.7881,-5.7865,-5.7492,-5.69,-5.6241,-5.5818,-5.504,-5.4126,-5.4025,-5.3839,-5.3585,-5.3518,-5.3518,-5.3518,-5.3518,-5.3518,-5.3518,-5.3518,-5.3518,-5.3518,-5.3518,-5.3518,-5.3518,-5.3518,-5.2553,-5.1606,-5.1117,-5.0407,-4.912,-4.9018,-4.9018,-4.9018,-4.9018,-4.9018,-4.9001,-4.8984,-4.8815,-4.8443,-4.8088,-4.7567,-4.679,-4.6498,-4.5872,-4.5365,-4.5111,-4.4987,-4.4632,-4.4598,-4.4598,-4.4682,-4.4959,-4.4919,-4.4869,-4.4908,-4.4976,-4.4733,-4.4632,-4.4615,-4.4615,-4.4598,-4.4598,-4.4767,-4.6003,-4.6701,-4.7141,-4.8003,-4.8951,-4.9018,-4.9018,-4.9018,-4.9018,-4.9018,-4.9018,-4.9018,-4.9018,-4.9018,-4.9018,-4.9018,-4.9018,-4.9018,-4.8917,-4.8798,-4.8714,-4.8359,-4.8071,-4.7462,-4.6735,-4.6295,-4.5923,-4.5179,-4.4519,-4.4181,-4.3826,-4.3217,-4.2286,-4.1897,-4.1508,-4.0899,-4.0536,-4.0417,-4.0299,-4.04,-4.0399,-4.0724,-4.1169,-4.1749,-4.213,-4.2641,-4.2899,-4.3178,-4.3322,-4.3427,-4.3462,-4.3479,-4.3479,-5.7814,-5.7611,-5.7036,-5.6308,-5.5463,-5.4871,-5.4228,-5.3602,-5.3534,-5.3534,-5.3518,-5.3518,-5.3518,-5.3518,-5.3518,-5.3518,-5.3518,-5.3518,-5.3518,-5.3518,-5.3518,-5.3518,-5.3518,-5.3331,-5.2723,-5.142,-5.12,-5.0407,-4.9255,-4.9018,-4.9018,-4.9018,-4.9018,-4.9018,-4.9018,-4.9018,-4.9018,-4.8832,-4.8494,-4.8091,-4.7784,-4.7192,-4.6549,-4.594,-4.5788,-4.5382,-4.4959,-4.4682,-4.4784,-4.4959,-4.528,-4.5483,-4.5196,-4.5466,-4.5483,-4.5122,-4.4919,-4.4902,-4.5089,-4.5139,-4.5292,-4.5348,-4.6346,-4.687,-4.7327,-4.8189,-4.9018,-4.9018,-4.9018,-4.9018,-4.9018,-4.9018,-4.9018,-4.9018,-4.9018,-4.9018,-4.9018,-4.9018,-4.9018,-4.9018,-4.9018,-4.8951,-4.8849,-4.8815,-4.8494,-4.8206,-4.7496,-4.709,-4.6616,-4.5551,-4.4908,-4.4666,-4.4299,-4.3961,-4.3335,-4.2726,-4.2219,-4.1576,-4.1255,-4.1085,-4.0925,-4.0807,-4.0858,-4.0975,-4.0876,-4.144,-4.1745,-4.2092,-4.2478,-4.2864,-4.3196,-4.3392,-4.3428,-4.348,-4.3479,-5.7526,-5.6917,-5.6833,-5.6004,-5.482,-5.4617,-5.4143,-5.3551,-5.3518,-5.3518,-5.3518,-5.3518,-5.3518,-5.3518,-5.3518,-5.3518,-5.3518,-5.3518,-5.3518,-5.3518,-5.3518,-5.3518,-5.3518,-5.3518,-5.2621,-5.1454,-5.1234,-5.0323,-4.9323,-4.9018,-4.9018,-4.9018,-4.9018,-4.9018,-4.9018,-4.9018,-4.9018,-4.8984,-4.89,-4.8562,-4.797,-4.7293,-4.6921,-4.6566,-4.6177,-4.5771,-4.5551,-4.5207,-4.5072,-4.5551,-4.5669,-4.6024,-4.6312,-4.594,-4.6143,-4.6143,-4.6075,-4.5855,-4.6329,-4.6413,-4.6498,-4.6616,-4.7394,-4.7716,-4.821,-4.8663,-4.9255,-4.9018,-4.9103,-4.9221,-4.9289,-4.9137,-4.9069,-4.912,-4.9238,-4.9171,-4.9103,-4.9018,-4.9018,-4.9018,-4.9018,-4.9018,-4.8951,-4.8968,-4.8917,-4.8629,-4.8277,-4.7804,-4.7145,-4.6075,-4.5297,-4.501,-4.4632,-4.4248,-4.391,-4.3369,-4.2878,-4.2219,-4.1914,-4.1711,-4.1559,-4.1484,-4.1762,-4.1825,-4.1554,-4.1313,-4.1671,-4.2022,-4.2258,-4.2537,-4.2864,-4.316,-4.3394,-4.3446,-4.3516,-5.6478,-5.6139,-5.5733,-5.5192,-5.4566,-5.4177,-5.3805,-5.3551,-5.3518,-5.3518,-5.3518,-5.3518,-5.3518,-5.3518,-5.3518,-5.3518,-5.3518,-5.3518,-5.3518,-5.3518,-5.3518,-5.3518,-5.3518,-5.3416,-5.2706,-5.1572,-5.1065,-5.0388,-4.9458,-4.9018,-4.9018,-4.9018,-4.9018,-4.9018,-4.9018,-4.9018,-4.9018,-4.9001,-4.8968,-4.8849,-4.8528,-4.8206,-4.7834,-4.7462,-4.7107,-4.6718,-4.6295,-4.6092,-4.5957,-4.6397,-4.665,-4.6836,-4.6921,-4.6887,-4.7158,-4.731,-4.7128,-4.7141,-4.7361,-4.7445,-4.7648,-4.8122,-4.8697,-4.934,-4.9695,-4.9965,-5.0202,-5.0287,-5.027,-5.0202,-5.0185,-5.0238,-5.027,-5.0168,-4.9729,-4.9593,-4.9441,-4.9086,-4.9018,-4.9018,-4.9018,-4.9069,-4.9069,-4.9018,-4.8984,-4.8815,-4.843,-4.7973,-4.7297,-4.6397,-4.5771,-4.5365,-4.4908,-4.4479,-4.413,-4.3724,-4.342,-4.2861,-4.2354,-4.2202,-4.2168,-4.2219,-4.2523,-4.2439,-4.2061,-4.1912,-4.1879,-4.1771,-4.1899,-4.2195,-4.2536,-4.3024,-4.3487,-4.3556,-4.359,-5.5158,-5.5124,-5.4735,-5.4482,-5.4296,-5.3721,-5.3518,-5.3518,-5.3518,-5.3518,-5.3518,-5.3518,-5.3518,-5.3518,-5.3518,-5.3518,-5.3518,-5.3518,-5.3518,-5.3518,-5.3518,-5.3518,-5.3518,-5.3399,-5.2706,-5.1234,-5.1234,-5.0371,-4.9441,-4.9018,-4.9018,-4.9018,-4.9018,-4.9018,-4.9018,-4.9018,-4.9018,-4.9018,-4.9018,-4.8984,-4.8934,-4.8951,-4.8629,-4.8291,-4.797,-4.7665,-4.7158,-4.6786,-4.6735,-4.7175,-4.7479,-4.7597,-4.7581,-4.7648,-4.7902,-4.7973,-4.7872,-4.802,-4.8342,-4.8595,-4.8781,-4.9289,-4.9915,-5.0456,-5.0896,-5.1234,-5.1168,-5.0999,-5.1016,-5.1099,-5.1185,-5.1117,-5.0999,-5.0744,-5.0439,-5.027,-5.0016,-4.9543,-4.9137,-4.9018,-4.9069,-4.9238,-4.9204,-4.9086,-4.9001,-4.8934,-4.8595,-4.8142,-4.7547,-4.6819,-4.6227,-4.5805,-4.5348,-4.4823,-4.4367,-4.4045,-4.3775,-4.3538,-4.3047,-4.2929,-4.3031,-4.3081,-4.3278,-4.3041,-4.2675,-4.2596,-4.2611,-4.2041,-4.1574,-4.2386,-4.3084,-4.3342,-4.3605,-4.3725,-4.403,-5.3653,-5.3704,-5.4313,-5.4194,-5.3619,-5.3534,-5.3518,-5.3518,-5.3518,-5.3518,-5.3518,-5.3518,-5.3518,-5.3518,-5.3518,-5.3518,-5.3518,-5.3518,-5.3518,-5.3518,-5.3518,-5.3518,-5.3518,-5.3298,-5.2756,-5.1437,-5.1168,-5.0405,-4.9357,-4.9018,-4.9018,-4.9018,-4.9018,-4.9018,-4.9018,-4.9018,-4.9018,-4.9018,-4.9018,-4.9018,-4.9018,-4.9018,-4.8934,-4.8781,-4.8308,-4.7855,-4.777,-4.7344,-4.7276,-4.7787,-4.7956,-4.8227,-4.8359,-4.8206,-4.8342,-4.8545,-4.8294,-4.8578,-4.912,-4.9526,-4.9898,-5.0202,-5.0744,-5.1352,-5.1606,-5.1337,-5.1252,-5.1488,-5.1674,-5.1539,-5.1437,-5.1268,-5.1606,-5.1471,-5.1183,-5.0659,-5.0321,-4.9813,-4.9424,-4.912,-4.9255,-4.9678,-4.9779,-4.9763,-4.9458,-4.9373,-4.8951,-4.8528,-4.8189,-4.7513,-4.6786,-4.6244,-4.5805,-4.528,-4.4682,-4.435,-4.4181,-4.413,-4.3921,-4.3988,-4.4192,-4.4192,-4.3921,-4.3887,-4.3616,-4.347,-4.3339,-4.2978,-4.2882,-4.3256,-4.3587,-4.3671,-4.4162,-4.4614,-4.4986,-5.3518,-5.3534,-5.3822,-5.3771,-5.3518,-5.3518,-5.3518,-5.3518,-5.3518,-5.3518,-5.3518,-5.3518,-5.3518,-5.3518,-5.3518,-5.3518,-5.3518,-5.3518,-5.3518,-5.3518,-5.3518,-5.3518,-5.3518,-5.3298,-5.2739,-5.1522,-5.1134,-5.0424,-4.9154,-4.9018,-4.9018,-4.9018,-4.9018,-4.9018,-4.9018,-4.9018,-4.9018,-4.9018,-4.9018,-4.9018,-4.9018,-4.9018,-4.9018,-4.8951,-4.8849,-4.8595,-4.8545,-4.8325,-4.8392,-4.8477,-4.8528,-4.8748,-4.8917,-4.8629,-4.8697,-4.8951,-4.8629,-4.89,-4.9373,-4.9915,-5.0456,-5.1522,-5.2131,-5.2553,-5.2452,-5.257,-5.2571,-5.2655,-5.2536,-5.2418,-5.2604,-5.2638,-5.2689,-5.2435,-5.1944,-5.1251,-5.0659,-5.0152,-4.9813,-4.956,-5.005,-5.0608,-5.0608,-5.0591,-5.0185,-4.9796,-4.9323,-4.8883,-4.8545,-4.8173,-4.7428,-4.6684,-4.621,-4.5534,-4.4919,-4.4733,-4.4615,-4.4598,-4.4598,-4.4598,-4.4598,-4.4564,-4.4361,-4.4429,-4.4429,-4.4158,-4.3982,-4.3997,-4.3919,-4.3674,-4.367,-4.3797,-4.4468,-4.5379,-4.582,-5.3518,-5.3518,-5.3518,-5.3518,-5.3518,-5.3518,-5.3518,-5.3518,-5.3518,-5.3518,-5.3518,-5.3518,-5.3518,-5.3518,-5.3518,-5.3518,-5.3518,-5.3518,-5.3518,-5.3518,-5.3518,-5.3518,-5.3518,-5.3281,-5.2739,-5.1555,-5.1099,-5.0439,-4.9052,-4.9018,-4.9018,-4.9018,-4.9018,-4.9018,-4.9018,-4.9018,-4.9018,-4.9018,-4.9018,-4.9018,-4.9018,-4.9018,-4.9018,-4.9018,-4.8951,-4.8934,-4.8917,-4.8815,-4.8849,-4.8917,-4.8951,-4.8968,-4.9001,-4.9001,-4.9018,-4.9018,-4.9018,-4.9018,-4.9204,-4.9982,-5.0947,-5.1978,-5.2892,-5.3298,-5.3518,-5.3518,-5.3281,-5.3348,-5.3416,-5.3518,-5.3518,-5.3331,-5.3264,-5.2976,-5.2401,-5.1742,-5.1116,-5.0591,-5.0287,-5.005,-5.0524,-5.0794,-5.1268,-5.115,-5.0574,-5.005,-4.9373,-4.9035,-4.8866,-4.8494,-4.8037,-4.7293,-4.6599,-4.5855,-4.5094,-4.4886,-4.4666,-4.4598,-4.4598,-4.4598,-4.4598,-4.4598,-4.4598,-4.4547,-4.453,-4.4581,-4.449,-4.4342,-4.3983,-4.3634,-4.3965,-4.4487,-4.5298,-4.6179,-4.6442,-5.3518,-5.3518,-5.3518,-5.3518,-5.3518,-5.3518,-5.3518,-5.3518,-5.3518,-5.3518,-5.3518,-5.3518,-5.3518,-5.3518,-5.3518,-5.3518,-5.3518,-5.3518,-5.3518,-5.3518,-5.3518,-5.3518,-5.3518,-5.3315,-5.2723,-5.1572,-5.1099,-5.0456,-4.9018,-4.9018,-4.9018,-4.9018,-4.9018,-4.9018,-4.9018,-4.9018,-4.9018,-4.9018,-4.9018,-4.9018,-4.9018,-4.9018,-4.9018,-4.9018,-4.9018,-4.9018,-4.9018,-4.9018,-4.9018,-4.9018,-4.9018,-4.9018,-4.9018,-4.9018,-4.9018,-4.9018,-4.9018,-4.9018,-4.9103,-5.0388,-5.1369,-5.208,-5.2773,-5.3315,-5.3467,-5.3518,-5.3518,-5.3518,-5.3518,-5.3518,-5.3518,-5.3518,-5.3518,-5.3348,-5.2756,-5.2131,-5.1488,-5.12,-5.093,-5.0388,-5.0338,-5.0574,-5.1352,-5.1657,-5.1014,-5.0321,-4.9509,-4.9137,-4.9069,-4.8798,-4.8392,-4.78,-4.7056,-4.6312,-4.5585,-4.4993,-4.4733,-4.4649,-4.4598,-4.4598,-4.4598,-4.4598,-4.4598,-4.4598,-4.4598,-4.4598,-4.4598,-4.4564,-4.4258,-4.4133,-4.4879,-4.5503,-4.6301,-4.6753,-4.6834,-5.3518,-5.3518,-5.3518,-5.3518,-5.3518,-5.3518,-5.3518,-5.3518,-5.3518,-5.3518,-5.3518,-5.3518,-5.3518,-5.3518,-5.3518,-5.3518,-5.3518,-5.3518,-5.3518,-5.3518,-5.3518,-5.3518,-5.3501,-5.3281,-5.2638,-5.1606,-5.1099,-5.0405,-4.9018,-4.9086,-4.9035,-4.9018,-4.9154,-4.9018,-4.9018,-4.9018,-4.9018,-4.9018,-4.9018,-4.9018,-4.9018,-4.9018,-4.9018,-4.9018,-4.9018,-4.9018,-4.9018,-4.9018,-4.9018,-4.9018,-4.9018,-4.9018,-4.9018,-4.9018,-4.9018,-4.9018,-4.9018,-4.9018,-4.9373,-5.0287,-5.1202,-5.1775,-5.2384,-5.3078,-5.3382,-5.3501,-5.3518,-5.3518,-5.3518,-5.3518,-5.3518,-5.3518,-5.3518,-5.3501,-5.301,-5.2334,-5.1792,-5.1809,-5.1589,-5.0794,-5.0456,-5.1082,-5.1809,-5.1877,-5.1352,-5.0913,-5.0185,-4.9492,-4.9255,-4.9018,-4.868,-4.8156,-4.7496,-4.6786,-4.6092,-4.5466,-4.4857,-4.4632,-4.4598,-4.4598,-4.4598,-4.4598,-4.4598,-4.4598,-4.4598,-4.4598,-4.4598,-4.4598,-4.4598,-4.4769,-4.5167,-4.545,-4.584,-4.6318,-4.6707,-5.3737,-5.3518,-5.3518,-5.3518,-5.3518,-5.3518,-5.3518,-5.3518,-5.3518,-5.3518,-5.3518,-5.3518,-5.3518,-5.3518,-5.3518,-5.3518,-5.3518,-5.3518,-5.3518,-5.3518,-5.3518,-5.3518,-5.345,-5.3145,-5.2317,-5.1437,-5.0794,-5.0118,-4.9086,-4.9289,-4.9593,-4.9779,-4.9509,-4.9492,-4.9441,-4.9441,-4.9272,-4.9238,-4.9204,-4.9289,-4.9137,-4.9018,-4.9018,-4.9018,-4.9018,-4.9018,-4.9018,-4.9018,-4.9018,-4.9018,-4.9018,-4.9018,-4.9018,-4.9018,-4.9018,-4.9018,-4.9018,-4.9018,-4.934,-4.9999,-5.0811,-5.1302,-5.2114,-5.2892,-5.3382,-5.3501,-5.3518,-5.3518,-5.3518,-5.3518,-5.3518,-5.3518,-5.3501,-5.3501,-5.3281,-5.2587,-5.1826,-5.1792,-5.1454,-5.071,-5.0473,-5.1251,-5.1961,-5.1894,-5.1657,-5.1285,-5.0896,-5.027,-4.9712,-4.9543,-4.9357,-4.8866,-4.824,-4.753,-4.6735,-4.5872,-4.5263,-4.4699,-4.4649,-4.4716,-4.4598,-4.4598,-4.4598,-4.4598,-4.4598,-4.4598,-4.4598,-4.4598,-4.4598,-4.4626,-4.4793,-4.5069,-4.5337,-4.5792,-4.6334,-5.416,-5.3551,-5.3518,-5.3518,-5.3518,-5.3518,-5.3518,-5.3518,-5.3518,-5.3518,-5.3518,-5.3518,-5.3518,-5.3518,-5.3518,-5.3518,-5.3518,-5.3518,-5.3518,-5.3518,-5.3518,-5.3467,-5.3145,-5.2689,-5.1911,-5.1166,-5.0524,-4.9932,-4.9154,-4.9576,-5.0253,-5.0693,-5.0185,-4.9982,-4.9898,-4.9847,-4.956,-4.9306,-4.9357,-4.9323,-4.9103,-4.9018,-4.9018,-4.9018,-4.9018,-4.9018,-4.9018,-4.9018,-4.9018,-4.9018,-4.9018,-4.9018,-4.9018,-4.9018,-4.9018,-4.9018,-4.9018,-4.9018,-4.9137,-4.983,-5.0541,-5.1251,-5.2452,-5.3162,-5.3484,-5.3518,-5.3518,-5.3518,-5.3518,-5.3518,-5.3518,-5.3518,-5.3518,-5.3501,-5.3501,-5.2706,-5.1708,-5.1268,-5.0896,-5.049,-5.0236,-5.071,-5.1488,-5.1657,-5.1877,-5.1928,-5.1708,-5.1725,-5.1166,-5.0693,-5.0439,-4.9982,-4.9272,-4.8392,-4.7547,-4.6735,-4.6024,-4.5534,-4.4976,-4.4891,-4.4739,-4.4649,-4.4598,-4.4598,-4.4598,-4.4598,-4.4598,-4.4598,-4.4598,-4.4626,-4.4654,-4.4776,-4.5052,-4.5398,-4.5877,-5.416,-5.3518,-5.3518,-5.3518,-5.3518,-5.3518,-5.3518,-5.3518,-5.3518,-5.3518,-5.3518,-5.3518,-5.3484,-5.3518,-5.3518,-5.3484,-5.3467,-5.3518,-5.3518,-5.345,-5.3247,-5.3044,-5.2706,-5.2249,-5.1488,-5.0744,-5.0101,-4.9678,-4.9323,-4.9746,-5.0524,-5.0947,-5.0659,-5.0338,-5.0236,-5.0118,-4.9678,-4.9373,-4.9492,-4.9255,-4.9103,-4.9018,-4.9018,-4.9018,-4.9018,-4.9018,-4.9018,-4.9018,-4.9018,-4.9018,-4.9018,-4.9018,-4.9018,-4.9018,-4.9018,-4.9018,-4.9018,-4.9018,-4.912,-4.9678,-5.0388,-5.1099,-5.2131,-5.2875,-5.3281,-5.3467,-5.3484,-5.3518,-5.3518,-5.3518,-5.3518,-5.3518,-5.3518,-5.3518,-5.345,-5.2926,-5.1978,-5.1319,-5.0896,-5.0135,-4.9898,-5.0135,-5.093,-5.1725,-5.1978,-5.2266,-5.2486,-5.257,-5.2469,-5.1944,-5.1403,-5.093,-5.0371,-4.9509,-4.8697,-4.7885,-4.7107,-4.6413,-4.5906,-4.5415,-4.5196,-4.5043,-4.475,-4.4598,-4.4598,-4.4598,-4.4598,-4.4598,-4.4598,-4.4598,-4.4626,-4.4665,-4.4803,-4.514,-4.5441,-5.4431,-5.3568,-5.3518,-5.3518,-5.3518,-5.3518,-5.3518,-5.3518,-5.3518,-5.3518,-5.3518,-5.3518,-5.3331,-5.301,-5.2959,-5.2824,-5.252,-5.2452,-5.2452,-5.2452,-5.2689,-5.2266,-5.1944,-5.1555,-5.0896,-5.0219,-4.9763,-4.9373,-4.9373,-5.0152,-5.0997,-5.208,-5.1336,-5.1014,-5.0963,-5.0811,-5.0388,-4.9999,-4.9678,-4.9323,-4.9137,-4.9035,-4.9018,-4.9018,-4.9018,-4.9018,-4.9018,-4.9018,-4.9018,-4.9018,-4.9018,-4.9018,-4.9018,-4.9018,-4.9018,-4.9018,-4.9018,-4.9018,-4.912,-4.9678,-5.0253,-5.0879,-5.1691,-5.2435,-5.2942,-5.323,-5.3382,-5.3518,-5.3518,-5.3518,-5.3518,-5.3518,-5.3518,-5.3518,-5.3331,-5.3129,-5.2401,-5.164,-5.0794,-4.9881,-4.9695,-4.9813,-5.0422,-5.1319,-5.2063,-5.2367,-5.2773,-5.3129,-5.3078,-5.279,-5.2232,-5.1708,-5.1251,-5.0676,-4.9847,-4.9018,-4.8257,-4.7564,-4.7056,-4.6549,-4.6007,-4.5432,-4.5094,-4.4807,-4.4598,-4.4666,-4.4801,-4.4632,-4.4598,-4.4682,-4.4767,-4.4727,-4.4749,-4.4831,-4.5123,-5.4854,-5.3518,-5.3518,-5.3518,-5.3518,-5.3518,-5.3518,-5.3518,-5.3518,-5.3518,-5.3518,-5.3518,-5.3095,-5.2604,-5.2486,-5.2046,-5.1758,-5.1606,-5.164,-5.1251,-5.1555,-5.1403,-5.1014,-5.049,-5.0236,-4.9847,-4.956,-4.9357,-4.9678,-5.0473,-5.1742,-5.3348,-5.2536,-5.1995,-5.186,-5.1302,-5.0881,-5.0744,-5.0202,-4.9712,-4.9272,-4.9103,-4.9018,-4.9018,-4.9018,-4.9018,-4.9018,-4.9018,-4.9018,-4.9018,-4.9018,-4.9018,-4.9018,-4.9018,-4.9018,-4.9018,-4.9018,-4.9018,-4.912,-4.9526,-4.9881,-5.0524,-5.1319,-5.1978,-5.2452,-5.3145,-5.345,-5.3501,-5.3518,-5.3518,-5.3518,-5.3518,-5.3518,-5.3518,-5.3416,-5.3044,-5.2418,-5.1505,-5.0422,-4.9644,-4.9323,-4.9475,-4.9847,-5.0744,-5.1623,-5.2181,-5.2909,-5.3416,-5.345,-5.3298,-5.2959,-5.2401,-5.1928,-5.1437,-5.0896,-5.0084,-4.939,-4.8765,-4.8173,-4.7415,-4.6735,-4.6075,-4.5449,-4.5213,-4.4993,-4.5021,-4.5055,-4.5122,-4.5241,-4.5224,-4.5207,-4.4919,-4.4857,-4.4981,-4.495,-5.4837,-5.3534,-5.3518,-5.3518,-5.3501,-5.3518,-5.3484,-5.3518,-5.3518,-5.345,-5.3501,-5.3416,-5.3027,-5.23,-5.2131,-5.1708,-5.12,-5.0896,-5.1166,-5.1082,-5.1048,-5.0659,-5.0439,-5.0101,-4.9746,-4.9357,-4.9204,-4.9526,-5.0405,-5.1134,-5.1895,-5.323,-5.2773,-5.2435,-5.2401,-5.1742,-5.1422,-5.1454,-5.076,-5.0287,-4.9999,-4.934,-4.9018,-4.9018,-4.9018,-4.9018,-4.9018,-4.9018,-4.9018,-4.9018,-4.9018,-4.9018,-4.9018,-4.9018,-4.9018,-4.9018,-4.9018,-4.9018,-4.9069,-4.9272,-4.9543,-4.9932,-5.0608,-5.1336,-5.2097,-5.2993,-5.3467,-5.3484,-5.3518,-5.3518,-5.3518,-5.3518,-5.3518,-5.3518,-5.3467,-5.2942,-5.2384,-5.1217,-5.0067,-4.9526,-4.9103,-4.9238,-4.956,-5.0219,-5.1031,-5.1944,-5.2909,-5.3467,-5.3501,-5.3433,-5.3416,-5.2926,-5.2469,-5.2012,-5.1623,-5.1116,-5.0405,-4.9712,-4.9086,-4.8291,-4.7428,-4.6583,-4.5821,-4.5652,-4.55,-4.5568,-4.5805,-4.621,-4.6261,-4.5974,-4.5838,-4.5618,-4.5602,-4.571,-4.5332,-5.4854,-5.3534,-5.3112,-5.279,-5.252,-5.2486,-5.2486,-5.2486,-5.2486,-5.2486,-5.257,-5.2739,-5.2536,-5.1775,-5.1505,-5.1014,-5.0405,-5.0219,-5.0101,-5.0168,-5.0304,-4.9949,-4.9729,-4.9661,-4.9407,-4.9052,-4.912,-4.9678,-5.0997,-5.1352,-5.1911,-5.3179,-5.2976,-5.279,-5.2756,-5.2401,-5.2164,-5.2232,-5.1386,-5.1048,-5.0777,-4.9915,-4.9103,-4.9018,-4.9018,-4.9018,-4.9018,-4.9018,-4.9018,-4.9018,-4.9018,-4.9018,-4.9018,-4.9018,-4.9018,-4.9018,-4.9018,-4.9018,-4.9018,-4.9086,-4.9221,-4.956,-5.005,-5.0828,-5.1099,-5.1978,-5.3129,-5.323,-5.3467,-5.3518,-5.3518,-5.3518,-5.3518,-5.3518,-5.3348,-5.2993,-5.2029,-5.0845,-4.9915,-4.9255,-4.9018,-4.9052,-4.9543,-5.0388,-5.1133,-5.1572,-5.257,-5.3433,-5.3501,-5.3518,-5.3518,-5.3416,-5.2942,-5.2824,-5.2672,-5.2097,-5.1369,-5.0693,-4.9881,-4.8883,-4.7868,-4.6921,-4.6194,-4.6194,-4.6227,-4.6295,-4.6583,-4.6972,-4.6853,-4.6481,-4.6447,-4.643,-4.643,-4.643,-4.624,-5.4668,-5.3331,-5.2604,-5.1894,-5.1252,-5.1219,-5.1285,-5.1285,-5.1268,-5.1285,-5.1369,-5.1809,-5.1572,-5.1014,-5.0439,-4.9695,-4.9306,-4.9424,-4.9221,-4.9187,-4.9187,-4.9272,-4.9238,-4.9069,-4.9052,-4.9052,-4.9052,-4.9982,-5.1151,-5.1336,-5.1894,-5.3179,-5.3518,-5.3484,-5.3518,-5.3467,-5.3281,-5.2993,-5.2503,-5.2232,-5.1403,-5.0338,-4.956,-4.9187,-4.9052,-4.9018,-4.9018,-4.9018,-4.9018,-4.9018,-4.9018,-4.9018,-4.9018,-4.9018,-4.9018,-4.9018,-4.9018,-4.9018,-4.9018,-4.9018,-4.9052,-4.9221,-4.9763,-5.0219,-5.0557,-5.1437,-5.2604,-5.3213,-5.345,-5.3518,-5.3518,-5.3518,-5.3518,-5.3365,-5.3162,-5.2824,-5.1657,-5.0507,-4.9729,-4.9035,-4.9018,-4.9018,-4.9543,-5.0422,-5.1082,-5.1522,-5.2198,-5.2959,-5.3518,-5.3518,-5.3518,-5.3518,-5.3298,-5.3298,-5.3399,-5.2655,-5.1775,-5.1116,-5.0236,-4.9272,-4.8325,-4.7462,-4.6955,-4.6938,-4.6972,-4.7073,-4.7242,-4.753,-4.7293,-4.7158,-4.7361,-4.7445,-4.7022,-4.7056,-4.7208,-5.3923,-5.252,-5.235,-5.186,-5.1251,-5.1183,-5.1234,-5.1217,-5.1183,-5.1234,-5.1014,-5.0591,-5.0371,-5.0304,-5.0219,-4.9695,-4.9103,-4.9018,-4.9018,-4.9035,-4.9018,-4.9018,-4.9154,-4.939,-4.9086,-4.9154,-4.939,-4.9965,-5.1234,-5.142,-5.1978,-5.3416,-5.3501,-5.3518,-5.3518,-5.3518,-5.3484,-5.3281,-5.2909,-5.2435,-5.1995,-5.1031,-5.0152,-4.9695,-4.9323,-4.9137,-4.9018,-4.9018,-4.9018,-4.9018,-4.9018,-4.9018,-4.9018,-4.9018,-4.9018,-4.9018,-4.9018,-4.9018,-4.9018,-4.9018,-4.9018,-4.9069,-4.9678,-5.0388,-5.093,-5.1775,-5.2739,-5.345,-5.3636,-5.3585,-5.3568,-5.3518,-5.3484,-5.3095,-5.2807,-5.2164,-5.1219,-5.0236,-4.934,-4.9069,-4.9018,-4.9035,-4.9154,-5.0101,-5.1099,-5.1674,-5.2553,-5.3264,-5.3501,-5.3518,-5.3518,-5.3518,-5.3518,-5.3518,-5.345,-5.2621,-5.1809,-5.1234,-5.0507,-4.9407,-4.8562,-4.8071,-4.7716,-4.7699,-4.7784,-4.7902,-4.8071,-4.8122,-4.8291,-4.8257,-4.8528,-4.8528,-4.7936,-4.7767,-4.8003]},{"header":{"parameterUnit":"m.s-1","parameterCategory":1,"la1":31.0,"la2":29.5877,"lo1":-88.7671,"lo2":-86.6584,"dy":0.0162,"dx":0.0185,"nx":115,"ny":88,"refTime":"2026-04-20T12:00:00:Z","depth":0,"parameterNumber":3,"parameterNumberName":"V-component_of_WINDS"},"data":[0.0,0.0,0.0,0.0,0.0,0.0,0.0,0.0,0.0,0.0,0.0,0.0,0.0,0.0,0.0,0.0,0.0,0.0,0.0,0.0,0.0,0.0,0.0,0.0,0.0,0.0,0.0,0.0,0.0,0.0,0.0,0.0,0.0,0.0,0.0,0.0,0.0,0.0,0.0,0.0,0.0,0.0,0.0,0.0,0.0,0.0,0.0,0.0,0.0,0.0,0.0,0.0,0.0,0.0,0.0,0.0,0.0,0.0,0.0,0.0,0.0,0.0,0.0,0.0,0.0,0.0,0.0,0.0,0.0,0.0,0.0,0.0,0.0,0.0,0.0,0.0,0.0,0.0,0.0,0.0,0.0,0.0,0.0,0.0,0.0,0.0,0.0,0.0,0.0,0.0,0.0,0.0,0.0,0.0,0.0,0.0,0.0,0.0,0.0,0.0,0.0,0.0,0.0,0.0,0.0,0.0,0.0,0.0,0.0,0.0,0.0,0.0,0.0,0.0,0.0,0.0,0.0,0.0,0.0,0.0,0.0,0.0,0.0,0.0,0.0,0.0,0.0,0.0,0.0,0.0,0.0,0.0,0.0,0.0,0.0,0.0,0.0,0.0,0.0,0.0,0.0,0.0,0.0,0.0,0.0,0.0,0.0,0.0,0.0,0.0,0.0,0.0,0.0,0.0,0.0,0.0,0.0,0.0,0.0,0.0,0.0,0.0,0.0,0.0,0.0,0.0,0.0,0.0,0.0,0.0,0.0,0.0,0.0,0.0,0.0,0.0,0.0,0.0,0.0,0.0,0.0,0.0,0.0,0.0,0.0,0.0,0.0,0.0,0.0,0.0,0.0,0.0,0.0,0.0,0.0,0.0,0.0,0.0,0.0,0.0,0.0,0.0,0.0,0.0,0.0,0.0,0.0,0.0,0.0,0.0,0.0,0.0,0.0,0.0,0.0,0.0,0.0,0.0,0.0,0.0,0.0,0.0,0.0,0.0,0.0,0.0,0.0,0.0,0.0,0.0,0.0,0.0,0.0,0.0,0.0,0.0,0.0,0.0,0.0,0.0,0.0,0.0,0.0,0.0,0.0,0.0,0.0,0.0,0.0,0.0,0.0,0.0,0.0,0.0,0.0,0.0,0.0,0.0,0.0,0.0,0.0,0.0,0.0,0.0,0.0,0.0,0.0,0.0,0.0,0.0,0.0,0.0,0.0,0.0,0.0,0.0,0.0,0.0,0.0,0.0,0.0,0.0,0.0,0.0,0.0,0.0,0.0,0.0,0.0,0.0,0.0,0.0,0.0,0.0,0.0,0.0,0.0,0.0,0.0,0.0,0.0,0.0,0.0,0.0,0.0,0.0,0.0,0.0,0.0,0.0,0.0,0.0,0.0,0.0,0.0,0.0,0.0,0.0,0.0,0.0,0.0,0.0,0.0,0.0,0.0,0.0,0.0,0.0,0.0,0.0,0.0,0.0,0.0,0.0,0.0,0.0,0.0,0.0,0.0,0.0,0.0,0.0,0.0,0.0,0.0,0.0,0.0,0.0,0.0,0.0,0.0,0.0,0.0,0.0,0.0,0.0,0.0,0.0,0.0,0.0,0.0,0.0,0.0,0.0,0.0,0.0,0.0,0.0,0.0,0.0,0.0,0.0,0.0,0.0,0.0,0.0,0.0,0.0,0.0,0.0,0.0,0.0,0.0,0.0,0.0,0.0,0.0,0.0,0.0,0.0,0.0,0.0,0.0,0.0,0.0,0.0,0.0,0.0,0.0,0.0,0.0,0.0,0.0,0.0,0.0,0.0,0.0,0.0,0.0,0.0,0.0,0.0,0.0,0.0,0.0,0.0,0.0,0.0,0.0,0.0,0.0,0.0,0.0,0.0,0.0,0.0,0.0,0.0,0.0,0.0,0.0,0.0,0.0,0.0,0.0,0.0,0.0,0.0,0.0,0.0,0.0,0.0,0.0,0.0,0.0,0.0,0.0,0.0,0.0,0.0,0.0,0.0,0.0,0.0,0.0,0.0,0.0,0.0,0.0,0.0,0.0,0.0,0.0,0.0,0.0,0.0,0.0,0.0,0.0,0.0,0.0,0.0,0.0,0.0,0.0,0.0,0.0,0.0,0.0,0.0,0.0,0.0,0.0,0.0,0.0,0.0,0.0,0.0,0.0,0.0,0.0,0.0,0.0,0.0,0.0,0.0,0.0,0.0,0.0,0.0,0.0,0.0,0.0,0.0,0.0,0.0,0.0,0.0,0.0,0.0,0.0,0.0,0.0,0.0,0.0,0.0,0.0,0.0,0.0,0.0,0.0,0.0,0.0,0.0,0.0,0.0,0.0,0.0,0.0,0.0,0.0,0.0,0.0,0.0,0.0,0.0,0.0,0.0,0.0,0.0,0.0,0.0,0.0,0.0,0.0,0.0,0.0,0.0,0.0,0.0,0.0,0.0,0.0,0.0,0.0,0.0,0.0,0.0,0.0,0.0,0.0,0.0,0.0,0.0,0.0,0.0,0.0,0.0,0.0,0.0,0.0,0.0,0.0,0.0,0.0,0.0,0.0,0.0,0.0,0.0,0.0,0.0,0.0,0.0,0.0,0.0,0.0,0.0,0.0,0.0,0.0,0.0,0.0,0.0,0.0,0.0,0.0,0.0,0.0,0.0,0.0,0.0,0.0,0.0,0.0,0.0,0.0,0.0,0.0,0.0,0.0,0.0,0.0,0.0,0.0,0.0,0.0,0.0,0.0,0.0,0.0,0.0,0.0,0.0,0.0,0.0,0.0,0.0,0.0,0.0,0.0,0.0,0.0,0.0,0.0,0.0,0.0,0.0,0.0,0.0,0.0,0.0,0.0,0.0,0.0,0.0,0.0,0.0,0.0,0.0,0.0,0.0,0.0,0.0,0.0,0.0,0.0,0.0,0.0,0.0,0.0,0.0,0.0,0.0,0.0,0.0,0.0,0.0,0.0,0.0,0.0,0.0,0.0,0.0,0.0,0.0,0.0,0.0,0.0,0.0,0.0,0.0,0.0,0.0,0.0,0.0,0.0,0.0,0.0,0.0,0.0,0.0,0.0,0.0,0.0,0.0,0.0,0.0,0.0,0.0,0.0,0.0,0.0,0.0,0.0,0.0,0.0,0.0,0.0,0.0,0.0,0.0,0.0,0.0,0.0,0.0,0.0,0.0,0.0,0.0,0.0,0.0,0.0,0.0,0.0,0.0,0.0,0.0,0.0,0.0,0.0,0.0,0.0,0.0,0.0,0.0,0.0,0.0,0.0,0.0,0.0,0.0,0.0,0.0,0.0,0.0,0.0,0.0,0.0,0.0,0.0,0.0,0.0,0.0,0.0,0.0,0.0,0.0,0.0,0.0,0.0,0.0,0.0,0.0,0.0,0.0,0.0,0.0,0.0,0.0,0.0,0.0,0.0,0.0,0.0,0.0,0.0,0.0,0.0,0.0,0.0,0.0,0.0,0.0,0.0,0.0,0.0,0.0,0.0,0.0,0.0,0.0,0.0,0.0,0.0,0.0,0.0,0.0,0.0,0.0,0.0,0.0,0.0,0.0,0.0,0.0,0.0,0.0,0.0,0.0,0.0,0.0,0.0,0.0,0.0,0.0,0.0,0.0,0.0,0.0,0.0,0.0,0.0,0.0,0.0,0.0,0.0,0.0,0.0,0.0,0.0,0.0,0.0,0.0,0.0,0.0,0.0,0.0,0.0,0.0,0.0,0.0,0.0,0.0,0.0,0.0,0.0,0.0,0.0,0.0,0.0,0.0,0.0,0.0,0.0,0.0,0.0,0.0,0.0,0.0,0.0,0.0,0.0,0.0,0.0,0.0,0.0,0.0,0.0,0.0,0.0,0.0,0.0,0.0,0.0,0.0,0.0,0.0,0.0,0.0,0.0,0.0,0.0,0.0,0.0,0.0,0.0,0.0,0.0,0.0,0.0,0.0,0.0,0.0,0.0,0.0,0.0,0.0,0.0,0.0,0.0,0.0,0.0,0.0,0.0,0.0,0.0,0.0,0.0,0.0,0.0,0.0,0.0,0.0,0.0,0.0,0.0,0.0,0.0,0.0,0.0,0.0,0.0,0.0,0.0,0.0,0.0,0.0,0.0,0.0,0.0,0.0,0.0,0.0,0.0,0.0,0.0,0.0,0.0,0.0,0.0,0.0,0.0,0.0,0.0,0.0,0.0,0.0,0.0,0.0,0.0,0.0,0.0,0.0,0.0,0.0,0.0,0.0,0.0,0.0,0.0,0.0,0.0,0.0,0.0,0.0,0.0,0.0,0.0,0.0,0.0,0.0,0.0,0.0,0.0,0.0,0.0,0.0,0.0,0.0,0.0,0.0,0.0,0.0,0.0,0.0,0.0,0.0,0.0,0.0,0.0,0.0,0.0,0.0,0.0,0.0,0.0,0.0,0.0,0.0,0.0,0.0,0.0,0.0,0.0,0.0,0.0,0.0,0.0,0.0,0.0,0.0,0.0,0.0,0.0,0.0,0.0,0.0,0.0,0.0,0.0,0.0,0.0,0.0,0.0,0.0,0.0,0.0,0.0,0.0,0.0,0.0,0.0,0.0,0.0,0.0,0.0,0.0,0.0,0.0,0.0,0.0,0.0,0.0,0.0,0.0,0.0,0.0,0.0,0.0,0.0,0.0,0.0,0.0,0.0,0.0,0.0,0.0,0.0,0.0,0.0,0.0,0.0,0.0,0.0,0.0,0.0,0.0,0.0,0.0,0.0,0.0,0.0,0.0,0.0,0.0,0.0,0.0,0.0,0.0,0.0,0.0,0.0,0.0,0.0,0.0,0.0,0.0,0.0,0.0,0.0,0.0,0.0,0.0,0.0,0.0,0.0,0.0,0.0,0.0,0.0,0.0,0.0,0.0,0.0,0.0,0.0,0.0,0.0,0.0,0.0,0.0,0.0,0.0,0.0,0.0,0.0,0.0,0.0,0.0,0.0,0.0,0.0,0.0,0.0,0.0,0.0,0.0,0.0,0.0,0.0,0.0,0.0,0.0,0.0,0.0,0.0,0.0,0.0,0.0,0.0,0.0,0.0,0.0,0.0,0.0,0.0,0.0,0.0,0.0,0.0,0.0,0.0,0.0,0.0,0.0,0.0,0.0,0.0,0.0,0.0,0.0,0.0,0.0,0.0,0.0,0.0,0.0,0.0,0.0,0.0,0.0,0.0,0.0,0.0,0.0,0.0,0.0,0.0,0.0,0.0,0.0,0.0,0.0,0.0,0.0,0.0,0.0,0.0,0.0,0.0,0.0,0.0,0.0,0.0,0.0,0.0,0.0,0.0,0.0,0.0,0.0,0.0,0.0,0.0,0.0,0.0,0.0,0.0,0.0,0.0,0.0,0.0,0.0,0.0,0.0,0.0,0.0,0.0,0.0,0.0,0.0,0.0,0.0,0.0,0.0,0.0,0.0,0.0,0.0,0.0,0.0,0.0,0.0,0.0,0.0,0.0,0.0,0.0,0.0,0.0,0.0,0.0,0.0,0.0,0.0,0.0,0.0,0.0,0.0,0.0,0.0,0.0,0.0,0.0,0.0,0.0,0.0,0.0,0.0,0.0,0.0,0.0,0.0,0.0,0.0,0.0,0.0,0.0,0.0,0.0,0.0,0.0,0.0,0.0,0.0,0.0,0.0,0.0,0.0,0.0,0.0,0.0,0.0,0.0,0.0,0.0,0.0,0.0,0.0,0.0,0.0,0.0,0.0,0.0,0.0,0.0,0.0,0.0,0.0,0.0,0.0,0.0,0.0,0.0,0.0,0.0,0.0255,0.0,0.0,0.0,0.0,0.0,0.0,0.0,0.0,0.0,0.0,0.0,0.0,0.0,0.0,0.0,0.0,0.0,0.0,0.0,0.0,0.0,0.0,0.0,0.0,0.0,0.0,0.0,0.0,0.0,0.0,0.0,0.0,0.0,0.0,0.0,0.0,0.0,0.0,0.0,0.0,0.0,0.0,0.0,0.0,0.0,0.0,0.0,0.0,0.0,0.0,0.0,0.0,0.0,0.0,0.0,0.0,0.0,0.0,0.0,0.0,0.0,0.0,0.0,0.0,0.0,0.0,0.0,0.0,0.0,0.0,0.0,0.0,0.0,0.0,0.0,0.0,0.0,0.0,0.0,0.0,0.0,0.0,0.0,0.0,0.0,0.0,0.0,0.0,0.0,0.0,0.0,0.0,0.0,0.0,0.0,0.0,0.0,0.0,0.0,0.0,0.0,0.0,0.0,0.0,0.0,0.0,0.0,0.0,0.0,0.0,0.0,0.0,0.0,0.0,0.0569,0.0,0.0,0.0,0.0,0.0,0.0,0.0,0.0,0.0,0.0,0.0,0.0,0.0,0.0,0.0,0.0,0.0,0.0,0.0,0.0,0.0,0.0,0.0,0.0,0.0,0.0,0.0,0.0,0.0,0.0,0.0,0.0,0.0,0.0,0.0,0.0,0.0,0.0,0.0,0.0,0.0,0.0,0.0,0.0,0.0,0.0,0.0,0.0,0.0,0.0,0.0,0.0,0.0,0.0,0.0,0.0,0.0,0.0,0.0,0.0,0.0,0.0,0.0,0.0,0.0,0.0,0.0,0.0,0.0,0.0,0.0,0.0,0.0,0.0,0.0,0.0,0.0,0.0,0.0,0.0,0.0,0.0,0.0,0.0,0.0,0.0,0.0,0.0,0.0,0.0,0.0,0.0,0.0,0.0,0.0,0.0,0.0,0.0,0.0,0.0,0.0,0.0,0.0,0.0,0.0,0.0,0.0,0.0,0.0,0.0,0.0,0.0,0.0,0.1875,0.1182,0.0416,0.03,0.019,0.0089,0.0,0.0,0.0,0.0,0.0,0.0,0.0,0.0,0.0,0.0,0.0,0.0,0.0,0.0,0.0,0.0,0.0,0.0,0.0,0.0,0.0,0.0,0.0,0.0,0.0,0.0,0.0,0.0,0.0,0.0,0.0,0.0,0.0,0.0,0.0,0.0,0.0,0.0,0.0,0.0,0.0,0.0,0.0,0.0,0.0,0.0,0.0,0.0,0.0,0.0,0.0,0.0,0.0,0.0,0.0,0.0,0.0,0.0,0.0,0.0,0.0,0.0,0.0,0.0,0.0,0.0,0.0,0.0,0.0,0.0,0.0,0.0,0.0,0.0,0.0,0.0,0.0,0.0,0.0,0.0,0.0,0.0,0.0,0.0,0.0,0.0,0.0,0.0,0.0,0.0,0.0,0.0,0.0,0.0,0.0,0.0,0.0,0.0,0.0,0.0,0.0,0.0,0.0,0.0,0.0,0.0,0.0,0.0,0.3376,0.2802,0.2067,0.1184,0.0965,0.0743,0.0,0.0,0.0,0.0,0.0,0.0,0.0,0.0,0.0,0.0,0.0,0.0,0.0,0.0,0.0,0.0,0.0,0.0,0.0,0.0,0.0,0.0,0.0,0.0,0.0,0.0,0.0,0.0,0.0,0.0,0.0,0.0,0.0,0.0,0.0,0.0,0.0,0.0,0.0,0.0,0.0,0.0,0.0,0.0,0.0,0.0,0.0,0.0,0.0,0.0,0.0,0.0,0.0,0.0,0.0,0.0,0.0,0.0,0.0,0.0,0.0,0.0,0.0,0.0,0.0,0.0,0.0,0.0,0.0,0.0,0.0,0.0,0.0,0.0,0.0,0.0,0.0,0.0,0.0,0.0,0.0,0.0,0.0,0.0,0.0,0.0,0.0,0.0,0.0,0.0,0.0,0.0,0.0,0.0,0.0,0.0,0.0,0.0,0.0,0.0,0.0,0.0,0.0,0.0,0.0,0.0,0.0,0.0,0.0,0.4795,0.3882,0.301,0.2304,0.1876,0.1389,0.0,0.0,0.0,0.0,0.0,0.0,0.0,0.0,0.0,0.0,0.0,0.0,0.0,0.0,0.0,0.0,0.0,0.0,0.0,0.0,0.0,0.0,0.0,0.0,0.0,0.0,0.0,0.0,0.0,0.0,0.0,0.0,0.0,0.0,0.0,0.0,0.0,0.0,0.0,0.0,0.0,0.0,0.0,0.0,0.0,0.0,0.0,0.0,0.0,0.0,0.0,0.0,0.0,0.0,0.0,0.0,0.0,0.0,0.0,0.0,0.0,0.0,0.0,0.0,0.0,0.0,0.0,0.0,0.0,0.0,0.0,0.0,0.0,0.0,0.0,0.0,0.0,0.0,0.0,0.0,0.0,0.0,0.0,0.0,0.0,0.0,0.0,0.0,0.0,0.0,0.0,0.0,0.0,0.0,0.0,0.0,0.0,0.0,0.0,0.0,0.0,0.0,0.0,0.0,0.0,0.0,0.0,0.0,0.0,0.5896,0.0,0.4203,0.3611,0.2941,0.2267,0.0,0.0,0.0,0.0,0.0,0.0,0.0,0.0,0.0,0.0,0.0,0.0,0.0,0.0,0.0,0.0,0.0,0.0,0.0,0.0,0.0,0.0,0.0,0.0,0.0,0.0,0.0,0.0,0.0,0.0,0.0,0.0,0.0,0.0,0.0,0.0,0.0,0.0,0.0,0.0,0.0,0.0,0.0,0.0,0.0,0.0,0.0,0.0,0.0,0.0,0.0,0.0,0.0,0.0,0.0,0.0,0.0,0.0,0.0,0.0,0.0,0.0,0.0,0.0,0.0,0.0,0.0,0.0,0.0,0.0,0.0,0.0,0.0,0.0,0.0,0.0,0.0,0.0,0.0,0.0,0.0,0.0,0.0,0.0,0.0,0.0,0.0,0.0,0.0,0.0,0.0,0.0,0.0,0.0,0.0,0.0,0.0,0.0,0.0,0.0,0.0,0.0,0.0,0.0,0.0,0.0,0.0,0.0,0.6844,0.6526,0.6145,0.5634,0.5039,0.4225,0.347,0.0,0.0,0.0,0.0,0.0,0.0,0.0,0.0,0.0,0.0,0.0,0.0,0.0,0.0,0.0,0.0,0.0,0.0,0.0,0.0,0.0,0.0,0.0,0.0,0.0,0.0,0.0,0.0,0.0,0.0,0.0,0.0,0.0,0.0,0.0,0.0,0.0,0.0,0.0,0.0,0.0,0.0,0.0,0.0,0.0,0.0,0.0,0.0,0.0,0.0,0.0,0.0,0.0,0.0,0.0,0.0,0.0,0.0,0.0,0.0,0.0,0.0,0.0,0.0,0.0,0.0,0.0,0.0,0.0,0.0,0.0,0.0,0.0,0.0,0.0,0.0,0.0,0.0,0.0,0.0,0.0,0.0,0.0,0.0,0.0,0.0,0.0,0.0,0.0,0.0,0.0,0.0,0.0,0.0,0.0,0.0,0.0,0.0,0.0,0.0,0.0,0.0,0.0,0.0,0.0,0.0,0.0,0.0,0.0,0.7547,0.7746,0.7448,0.66,0.5892,0.5011,0.0,0.0,0.0,0.0,0.0,0.0,0.0,0.0,0.0,0.0,0.0,0.0,0.0,0.0,0.0,0.0,0.0,0.0,0.0,0.0,0.0,0.0,0.0,0.0,0.0,0.0,0.0,0.0,0.0,0.0,0.0,0.0,0.0,0.0,0.0,0.0,0.0,0.0,0.0,0.0,0.0,0.0,0.0,0.0,0.0,0.0,0.0,0.0,0.0,0.0,0.0,0.0,0.0,0.0,0.0,0.0,0.0,0.0,0.0,0.0,0.0,0.0,0.0,0.0,0.0,0.0,0.0,0.0,0.0,0.0,0.0,0.0,0.0,0.0,0.0,0.0,0.0,0.0,0.0,0.0,0.0,0.0,0.0,0.0,0.0,0.0,0.0,0.0,0.0,0.0,0.0,0.0,0.0,0.0,0.0,0.0,0.0,0.0,0.0,0.0,0.0,0.0,0.0,0.0,0.0,0.0,0.0,0.0,0.0,0.8706,0.8927,0.8636,0.7886,0.7083,0.6232,0.5258,0.0,0.0,0.0,0.0,0.0,0.0,0.0,0.0,0.0,0.0,0.0,0.0,0.0,0.0,0.0,0.0,0.0,0.0,0.0,0.0,0.0,0.0,0.0,0.0,0.0,0.0,0.0,0.0,0.0,0.0,0.0,0.0,0.0,0.0,0.0,0.0,0.0,0.0,0.0,0.0,0.0,0.0,0.0,0.0,0.0,0.0,0.0,0.0,0.0,0.0,0.0,0.0,0.0,0.0,0.0,0.0,0.0,0.0,0.0,0.0,0.0,0.0,0.0,0.0,0.0,0.0,0.0,0.0,0.0,0.0,0.0,0.0,0.0,0.0,0.0,0.0,0.0,0.0,0.0,0.0,0.0,0.0,0.0,0.0,0.0,0.0,0.0,0.0,0.0,0.0,0.0,0.0,0.0,0.0,0.0,0.0,0.0,0.0,0.0,0.0,0.0,0.0,0.0,0.0,0.0,0.0,0.0,0.0,0.9836,0.9754,0.9429,0.885,0.7927,0.708,0.0,0.0,0.0,0.0,0.0,0.0,0.0,0.0,0.0,0.0,0.0,0.0,0.0,0.0,0.0,0.0,0.0,0.0,0.0,0.0,0.0,0.0,0.0,0.0,0.0,0.0,0.0,0.0,0.0,0.0,0.0,0.0,0.0,0.0,0.0,0.0,0.0,0.0,0.0,0.0,0.0,0.0,0.0,0.0,0.0,0.0,0.0,0.0,0.0,0.0,0.0,0.0,0.0,0.0,0.0,0.0,0.0,0.0,0.0,0.0,0.0,0.0,0.0,0.0,0.0,0.0,0.0,0.0,0.0,0.0,0.0,0.0,0.0,0.0,0.0,0.0,0.0,0.0,0.0,0.0,0.0,0.0,0.0,0.0,0.0,0.0,0.0,0.0,0.0,0.0,0.0,0.0,0.0,0.0,0.0,0.0,0.0,0.0,0.0,0.0,0.0,0.0,0.0,0.0,0.0,0.0,0.0,0.0,0.0,1.0141,1.0656,1.0452,0.956,0.9004,0.8286,0.0,0.0,0.0,0.0,0.0,0.0,0.0,0.0,0.0,0.0,0.0,0.0,0.0,0.0,0.0,0.0,0.0,0.0,0.0,0.0,0.0,0.0,0.0,0.0,0.0,0.0,0.0,0.0,0.0,0.0,0.0,0.0,0.0,0.0,0.0,0.0,0.0,0.0,0.0,0.0,0.0,0.0,0.0,0.0,0.0,0.0,0.0,0.0,0.0,0.0,0.0,0.0,0.0,0.0,0.0,0.0,0.0,0.0,0.0,0.0,0.0,0.0,0.0,0.0,0.0,0.0,0.0,0.0,0.0,0.0,0.0,0.0,0.0,0.0,0.0,0.0,0.0,0.0,0.0,0.0,0.0,0.0,0.0,0.0,0.0,0.0,0.0,0.0,0.0,0.0,0.0,0.0,0.0,0.0,0.0,0.0,0.0,0.0,0.0,0.0,0.0,0.0,0.0,0.0,0.0,0.0,0.0,0.0,0.9741,1.0548,1.1226,1.1226,1.0497,0.9802,0.9011,0.0,0.0,0.0,0.0,0.0,0.0,0.0,0.0,0.0,0.0,0.0,0.0,0.0,0.0,0.0,0.0,0.0,0.0,0.0,0.0,0.0,0.0,0.0,0.0,0.0,0.0,0.0,0.0,0.0,0.0,0.0,0.0,0.0,0.0,0.0,0.0,0.0,0.0,0.0,0.0,0.0,0.0,0.0,0.0,0.0,0.0,0.0,0.0,0.0,0.0,0.0,0.0,0.0,0.0,0.0,0.0,0.0,0.0,0.0,0.0,0.0,0.0,0.0,0.0,0.0,0.0,0.0,0.0,0.0,0.0,0.0,0.0,0.0,0.0,0.0,0.0,0.0,0.0,0.0,0.0,0.0,0.0,0.0,0.0,0.0,0.0,0.0,0.0,0.0,0.0,0.0,0.0,0.0,0.0,0.0,0.0,0.0,0.0,0.0,0.0,0.0,0.0,0.0,0.0,0.0,0.0,0.0,0.0,1.0063,1.0955,1.1548,1.1704,1.1382,1.0415,0.9469,0.0,0.0,0.0,0.0,0.0,0.0,0.0,0.0,0.0,0.0,0.0,0.0,0.0,0.0,0.0,0.0,0.0,0.0,0.0,0.0,0.0,0.0,0.0,0.0,0.0,0.0,0.0,0.0,0.0,0.0,0.0,0.0,0.0,0.0,0.0,0.0,0.0,0.0,0.0,0.0,0.0,0.0,0.0,0.0,0.0,0.0,0.0,0.0,0.0,0.0,0.0,0.0,0.0,0.0,0.0,0.0,0.0,0.0,0.0,0.0,0.0,0.0,0.0,0.0,0.0,0.0,0.0,0.0,0.0,0.0,0.0,0.0,0.0,0.0,0.0,0.0,0.0,0.0,0.0,0.0,0.0,0.0,0.0,0.0,0.0,0.0,0.0,0.0,0.0,0.0,0.0,0.0,0.0,0.0,0.0,0.0,0.0,0.0,0.0,0.0,0.0,0.0,0.0,0.0,0.0,0.0,0.0,0.0,1.0215,1.1097,1.1704,1.1813,1.1399,1.0714,0.9927,0.0,0.0,0.0,0.0,0.0,0.0,0.0,0.0,0.0,0.0,0.0,0.0,0.0,0.0,0.0,0.0,0.0,0.0,0.0,0.0,0.0,0.0,0.0,0.0,0.0,0.0,0.0,0.0,0.0,0.0,0.0,0.0,0.0,0.0,0.0,0.0,0.0,0.0,0.0,0.0,0.0,0.0,0.0,0.0,0.0,0.0,0.0,0.0,0.3561,0.0,0.0,0.0,0.0,0.0,0.0,0.0,0.0,0.0,0.0,0.0,0.0,0.0,0.0,0.0,0.0,0.0,0.0,0.0,0.0,0.0,0.0,0.0,0.0,0.0,0.0,0.0,0.0,0.0,0.0,0.0,0.0,0.0,0.0,0.0,0.0,0.0,0.0,0.0,0.0,0.0,0.0,0.0,0.0,0.0,0.0,0.0,0.0,0.0,0.0,0.0,0.0,0.0,0.0,0.0,0.0,0.0,0.0,0.0,1.0405,1.1217,1.1681,1.1806,1.1497,1.0985,1.0219,0.0,0.0,0.0,0.0,0.0,0.0,0.0,0.0,0.0,0.0,0.0,0.0,0.0,0.0,0.0,0.0,0.0,0.0,0.0,0.0,0.0,0.0,0.0,0.0,0.0,0.0,0.0,0.0,0.0,0.0,0.0,0.0,0.0,0.0,0.0,0.0,0.0,0.0,0.0,0.0,0.0,0.0,0.0,0.0,0.0,0.0,0.0,0.0,0.0,0.0,0.0,0.0,0.0,0.0,0.0,0.0,0.0,0.0,0.0,0.0,0.0,0.0,0.0,0.0,0.0,0.0,0.0,0.0,0.0,0.0,0.0,0.0,0.0,0.0,0.0,0.0,0.0,0.0,0.0,0.0,0.0,0.0,0.0,0.0,0.0,0.0,0.0,0.0,0.0,0.0,0.0,0.0,0.0,0.0,0.0,0.0,0.0,0.0,0.0,0.0,0.0,0.0,0.0,0.0,0.0,0.0,0.0,0.9856,1.0599,1.1251,1.1613,1.1742,1.1548,1.1111,1.0327,0.9217,0.0,0.0,0.0,0.0,0.0,0.0,0.0,0.0,0.0,0.0,0.0,0.0,0.0,0.0,0.0,0.0,0.0,0.0,0.0,0.0,0.0,0.0,0.0,0.0,0.0,0.0,0.0,0.0,0.0,0.0,0.0,0.0,0.0,0.0,0.0,0.0,0.0,0.0,0.565,0.6085,0.0,0.0,0.0,0.0,0.0,0.0,0.0,0.0,0.5201,0.0,0.0,0.0,0.0,0.0,0.0,0.0,0.0,0.0,0.0,0.0,0.0,0.0,0.0,0.0,0.0,0.0,0.0,0.0,0.0,0.0,0.0,0.0,0.0,0.0,0.0,0.0,0.0,0.0,0.0,0.0,0.0,0.0,0.0,0.0,0.0,0.0,0.0,0.0,0.0,0.0,0.0,0.0,0.0,0.0,0.0,0.0,0.0,0.0,0.0,0.0,0.0,0.0,0.0,0.0,0.0,0.9166,1.0002,1.0748,1.1338,1.1667,1.164,1.1243,1.0802,1.0066,0.9025,0.0,0.0,0.0,0.0,0.0,0.0,0.0,0.0,0.0,0.0,0.0,0.0,0.0,0.0,0.0,0.0,0.0,0.0,0.0,0.0,0.0,0.0,0.0,0.0,0.0,0.0,0.0,0.0,0.0,0.0,0.0,0.0,0.0,0.0,0.0,0.0,0.0,0.0,0.0,0.6346,0.6627,0.0,0.0,0.0,0.0,0.0,0.0,0.0,0.0,0.5102,0.0,0.0,0.0,0.0,0.0,0.0,0.0,0.0,0.0,0.0,0.0,0.0,0.0,0.0,0.0,0.0,0.0,0.0,0.0,0.0,0.0,0.0,0.0,0.0,0.0,0.0,0.0,0.0,0.0,0.0,0.0,0.0,0.0,0.0,0.0,0.0,0.0,0.0,0.0,0.0,0.0,0.0,0.0,0.0,0.0,0.0,0.0,0.0,0.0,0.0,0.0,0.0,0.0,0.0,0.0,0.9266,1.0154,1.0826,1.126,1.1487,1.1389,1.0941,1.0348,0.9615,0.0,0.0,0.0,0.0,0.0,0.0,0.0,0.0,0.0,0.0,0.0,0.0,0.0,0.0,0.0,0.0,0.0,0.0,0.0,0.0,0.0,0.0,0.0,0.0,0.0,0.0,0.0,0.0,0.0,0.0,0.0,0.0,0.0,0.0,0.0,0.0,0.0,0.0,0.0,0.0,0.6644,0.6929,0.6886,0.0,0.0,0.0,0.0,0.0,0.0,0.6169,0.58,0.0,0.0,0.0,0.0,0.0,0.0,0.0,0.0,0.0,0.0,0.0,0.0,0.0,0.0,0.0,0.0,0.0,0.0,0.0,0.0,0.0,0.0,0.0,0.0,0.0,0.0,0.0,0.0,0.0,0.0,0.0,0.0,0.0,0.0,0.0,0.0,0.0,0.0,0.0,0.0,0.0,0.0,0.0,0.0,0.0,0.0,0.0,0.0,0.0,0.0,0.0,0.0,0.0,0.0,0.0,0.9776,1.064,1.133,1.1634,1.18,1.1576,1.101,1.0228,0.941,0.0,0.0,0.0,0.0,0.0,0.0,0.0,0.0,0.0,0.0,0.0,0.0,0.0,0.0,0.0,0.0,0.0,0.0,0.0,0.0,0.0,0.0,0.0,0.0,0.0,0.0,0.0,0.0,0.0,0.0,0.0,0.0,0.0,0.0,0.0,0.0,0.0,0.0,0.0,0.0,0.0,0.7189,0.7189,0.7189,0.0,0.0,0.0,0.0,0.681,0.6586,0.0,0.0,0.0,0.0,0.0,0.0,0.0,0.0,0.0,0.0,0.0,0.0,0.0,0.0,0.0,0.0,0.0,0.0,0.0,0.0,0.0,0.0,0.0,0.0,0.0,0.0,0.0,0.0,0.0,0.0,0.0,0.0,0.0,0.0,0.0,0.0,0.0,0.0,0.0,0.0,0.0,0.0,0.0,0.0,0.0,0.0,0.0,0.0,0.0,0.0,0.0,0.0,0.0,0.0,0.0,0.0,1.0985,1.2024,1.2728,1.315,1.3257,1.2885,1.1961,1.1084,0.9982,0.0,0.0,0.0,0.0,0.0,0.0,0.0,0.0,0.0,0.0,0.0,0.0,0.0,0.0,0.0,0.0,0.0,0.0,0.0,0.0,0.0,0.0,0.0,0.0,0.0,0.0,0.0,0.0,0.0,0.0,0.0,0.0,0.0,0.0,0.0,0.0,0.0,0.0,0.0,0.0,0.0,0.7546,0.7546,0.7546,0.7543,0.0,0.0,0.7119,0.7272,0.7048,0.0,0.0,0.0,0.0,0.0,0.0,0.0,0.0,0.0,0.0,0.0,0.0,0.0,0.0,0.0,0.0,0.0,0.0,0.0,0.0,0.0,0.0,0.0,0.0,0.0,0.0,0.0,0.0,0.0,0.0,0.0,0.0,0.0,0.0,0.0,0.0,0.0,0.0,0.0,0.0,0.0,0.0,0.0,0.0,0.0,0.0,0.0,0.0,0.0,0.0,0.0,0.0,0.0,0.0,0.0,1.136,1.2728,1.377,1.453,1.493,1.4954,1.4471,1.3355,1.2069,1.0665,0.0,0.0,0.0,0.0,0.0,0.0,0.0,0.0,0.0,0.0,0.0,0.0,0.0,0.0,0.0,0.0,0.0,0.0,0.0,0.0,0.0,0.0,0.0,0.0,0.0,0.0,0.0,0.0,0.0,0.0,0.0,0.0,0.0,0.0,0.0,0.0,0.0,0.0,0.0,0.0,0.0,0.0,0.7719,0.7868,0.0,0.0,0.0,0.7516,0.7502,0.0,0.0,0.0,0.0,0.0,0.0,0.0,0.0,0.0,0.0,0.0,0.0,0.0,0.0,0.0,0.0,0.0,0.0,0.0,0.0,0.0,0.0,0.0,0.0,0.0,0.0,0.0,0.0,0.0,0.0,0.0,0.0,0.0,0.0,0.0,0.0,0.0,0.0,0.0,0.0,0.0,0.0,0.0,0.0,0.0,0.0,0.0,0.0,0.0,0.0,0.0,0.0,0.0,0.0,0.0,0.0,0.0,1.4152,1.5399,1.6231,1.6555,1.6628,1.6073,1.4841,1.3241,0.0,0.0,0.0,0.0,0.0,0.0,0.0,0.0,0.0,0.0,0.0,0.0,0.0,0.0,0.0,0.0,0.0,0.0,0.0,0.0,0.0,0.0,0.0,0.0,0.0,0.0,0.0,0.4491,0.0,0.0,0.0,0.0,0.0,0.0,0.0,0.0,0.0,0.0,0.0,0.0,0.0,0.0,0.8225,0.83,0.8571,0.8589,0.0,0.0,0.7973,0.7818,0.7815,0.7584,0.0,0.0,0.0,0.0,0.0,0.0,0.0,0.0,0.0,0.0,0.0,0.0,0.0,0.0,0.0,0.0,0.0,0.0,0.0,0.0,0.0,0.0,0.0,0.0,0.0,0.0,0.0,0.0,0.0,0.0,0.0,0.0,0.0,0.0,0.0,0.0,0.0,0.0,0.0,0.0,0.0,0.0,0.0,0.0,0.0,0.0,0.0,0.0,0.0,0.0,0.0,0.0,0.0,0.0,1.3582,1.486,1.6586,1.7575,1.7787,1.8018,1.7523,1.6307,1.4733,1.3063,0.0,0.0,0.0,0.0,0.0,0.0,0.0,0.0,0.0,0.0,0.0,0.0,0.0,0.0,0.0,0.0,0.0,0.0,0.0,0.0,0.0,0.0,0.0,0.0,0.0,0.0,0.0,0.0,0.0,0.0,0.0,0.0,0.0,0.0,0.0,0.0,0.0,0.0,0.0,0.0,0.0,0.9328,0.9702,0.9766,0.9673,0.0,0.9011,0.8654,0.84,0.8042,0.7651,0.7142,0.0,0.0,0.0,0.0,0.0,0.0,0.0,0.0,0.0,0.0,0.0,0.0,0.0,0.0,0.0,0.0,0.0,0.0,0.0,0.0,0.0,0.0,0.0,0.0,0.0,0.0,0.0,0.0,0.0,0.0,0.0,0.0,0.0,0.0,0.0,0.0,0.0,0.0,0.0,0.0,0.0,0.0,0.0,0.0,0.0,0.0,0.0,0.0,0.0,0.0,0.0,0.0,0.0,1.4797,1.6552,1.8152,1.9185,1.9619,1.9739,1.9243,1.8214,1.6585,1.4822,0.0,0.0,0.0,0.0,0.0,0.0,0.0,0.0,0.0,0.0,0.0,0.0,0.0,0.0,0.0,0.0,0.0,0.0,0.0,0.0,0.0,0.0,0.0,0.0,0.0,0.0,0.0,0.0,0.5563,0.5873,0.6164,0.0,0.0,0.0,0.0,0.0,0.0,0.0,0.0,0.0,0.0,1.0726,1.1231,1.145,0.0,0.0,1.0209,0.9516,0.8871,0.8407,0.7848,0.7082,0.6546,0.0,0.0,0.0,0.0,0.0,0.0,0.0,0.0,0.0,0.0,0.0,0.0,0.0,0.0,0.0,0.0,0.0,0.0,0.0,0.0,0.0,0.0,0.0,0.0,0.0,0.0,0.0,0.0,0.0,0.0,0.0,0.0,0.0,0.0,0.0,0.0,0.0,0.0,0.0,0.0,0.0,0.0,0.0,0.0,0.0,0.0,0.0,0.0,0.0,0.0,0.0,0.0,1.5444,1.7308,1.8958,2.0047,2.0535,2.0635,2.0288,1.9431,1.783,1.6182,0.0,0.0,0.0,0.0,0.0,0.0,0.0,0.0,0.0,0.0,0.0,0.0,0.0,0.0,0.0,0.0,0.0,0.0,0.0,0.0,0.0,0.0,0.0,0.0,0.0,0.0,0.0,0.0,0.6469,0.6759,0.6928,0.0,0.0,0.0,0.0,0.0,0.0,0.0,0.0,0.0,0.0,1.1988,1.2613,1.2815,1.2754,1.2104,1.1346,1.0496,0.9618,0.8935,0.826,0.7548,0.0,0.0,0.0,0.0,0.0,0.0,0.0,0.0,0.0,0.0,0.0,0.0,0.0,0.0,0.0,0.0,0.0,0.0,0.0,0.0,0.0,0.0,0.0,0.0,0.0,0.0,0.0,1.2318,0.0,0.0,1.198,0.0,0.0,0.0,0.0,0.0,0.0,0.0,0.0,0.0,0.0,0.0,0.0,0.0,0.0,0.0,0.0,0.0,0.0,0.0,0.0,0.0,0.0,1.5251,1.672,1.8744,1.9927,2.0234,2.0521,2.0405,1.9748,1.8382,1.695,1.5664,0.0,0.0,0.0,0.0,0.0,0.0,0.0,0.0,0.0,0.0,0.0,0.0,0.0,0.0,0.0,0.0,0.0,0.0,0.0,0.0,0.0,0.0,0.0,0.0,0.0,0.0,0.7071,0.7417,0.7655,0.0,0.0,0.0,0.0,0.0,0.0,0.0,0.0,0.0,1.0876,1.2064,1.3007,1.3681,1.3805,1.3662,1.3153,1.2354,1.1498,1.0646,0.9635,0.889,0.0,0.0,0.0,0.0,0.0,0.0,0.0,0.0,0.0,0.0,0.0,0.0,0.0,0.0,0.0,0.0,0.0,0.0,0.0,0.0,0.0,0.0,0.0,0.0,0.0,0.0,0.0,1.3494,1.3474,0.0,0.0,0.0,0.0,0.0,0.0,0.0,0.0,0.0,0.0,0.0,1.5065,1.5304,0.0,0.0,0.0,0.0,0.0,0.0,0.0,0.0,0.0,0.0,0.0,0.0,1.505,1.6693,1.8364,1.9452,1.9927,2.0047,1.9987,1.9761,1.8748,1.7133,1.4953,0.0,0.0,0.0,0.0,0.0,0.0,0.0,0.0,0.0,0.0,0.0,0.0,0.0,0.0,0.0,0.0,0.0,0.0,0.0,0.0,0.0,0.0,0.0,0.0,0.0,0.7957,0.0,0.0,0.0,0.0,0.0,0.0,0.0,0.0,0.0,0.0,0.9437,1.0691,1.2349,1.3548,1.4542,1.5363,1.5477,1.5287,0.0,0.0,0.0,0.0,0.0,0.0,0.0,0.0,0.0,0.0,0.0,0.0,0.0,0.0,0.7119,0.6284,0.6105,0.5996,0.5701,0.0,0.0,0.0,0.0,0.0,0.0,0.0,0.0,0.0,0.0,0.0,0.0,0.0,0.0,1.4696,1.4656,1.4275,0.0,0.0,0.0,0.0,0.0,0.0,0.0,0.0,1.6426,1.672,1.6453,1.6747,1.6734,0.0,1.644,1.5638,0.0,0.0,0.0,0.0,0.0,0.0,0.0,0.0,1.505,1.6687,1.8163,1.9158,1.9626,1.9746,1.9806,1.9786,1.8744,1.7168,1.5044,1.4035,1.2919,0.0,0.0,0.0,0.0,0.0,0.0,0.0,0.0,0.0,0.0,0.0,0.0,0.0,0.0,0.0,0.0,0.0,0.0,0.0,0.0,0.0,0.0,0.0,0.8851,0.0,0.0,0.0,0.0,0.0,0.0,0.0,0.0,0.0,0.9858,1.0827,1.2045,1.3434,1.4515,1.5357,1.6025,0.0,0.0,0.0,0.0,0.0,0.0,0.0,1.137,1.1267,1.0929,1.0806,1.1204,1.1016,1.0554,0.9763,0.0,0.0,0.686,0.6525,0.6413,0.6162,0.6071,0.6051,0.6105,0.6115,0.6203,0.0,0.0,0.0,0.0,0.0,0.0,0.0,0.0,1.6046,1.5919,0.0,1.5324,0.0,0.0,0.0,0.0,1.4222,1.507,0.0,0.0,1.7515,1.7896,1.7635,1.7876,1.7916,1.7622,1.7595,1.7281,1.662,1.5003,0.0,0.0,0.0,0.0,0.0,0.0,1.5251,1.6693,1.8136,1.9032,1.9332,1.9599,1.9746,1.9693,1.8337,1.7041,1.5824,1.4736,1.3707,1.2844,1.1924,0.0,0.0,0.0,0.0,0.0,0.0,0.0,0.0,0.0,0.0,0.0,0.0,0.0,0.0,0.0,0.0,0.0,0.0,0.0,0.0,0.9552,0.0,0.0,0.0,0.0,0.0,0.0,0.0,0.0,0.0,1.1791,1.1378,1.2266,1.3243,1.4122,0.0,0.0,0.0,0.0,1.5737,1.5547,1.507,1.4595,1.4111,1.3227,1.2661,1.2938,0.0,0.0,1.2875,1.2597,1.2038,1.1247,1.05,0.9384,0.7553,0.7078,0.6895,0.6732,0.6593,0.6556,0.6675,0.6695,0.6793,1.9397,0.0,0.0,0.0,0.0,1.7356,1.7582,1.7849,1.7769,1.7563,1.7336,1.7001,0.0,0.0,0.0,0.0,0.0,0.0,1.6954,1.7555,1.8531,1.8711,1.8257,1.8751,1.8724,1.8243,1.823,1.7923,1.7315,1.667,1.5545,1.4142,0.0,0.0,0.0,0.0,1.5451,1.668,1.7702,1.8444,1.8738,1.8818,1.8764,1.8557,1.7923,1.7134,1.6179,1.5424,1.4516,1.3434,1.2532,0.0,0.0,0.0,0.0,0.0,0.0,0.0,0.0,0.0,0.0,0.0,0.0,0.0,0.0,0.0,0.0,0.0,0.0,0.0,1.0137,1.0441,1.0646,0.0,0.0,0.0,0.0,0.0,0.0,0.0,0.0,0.0,1.3256,1.3539,1.4078,0.0,0.0,1.5498,1.5785,1.5825,1.5784,1.573,1.5588,0.0,1.506,1.4572,1.4321,1.4405,1.4443,1.4591,1.4899,1.4593,1.3961,1.3065,1.2145,1.0922,0.9196,0.8204,0.7583,0.7129,0.7061,0.7085,0.6991,0.7099,0.7231,2.1273,1.982,1.9178,1.8855,1.8868,1.9038,1.9252,1.9526,1.9533,1.9366,1.9065,1.8644,1.8036,1.7295,1.676,0.0,0.0,0.0,1.7936,1.8355,1.9178,1.9352,1.9052,1.9372,1.9359,1.9005,1.8771,1.8477,1.811,1.7695,1.6974,1.5844,0.0,0.0,1.4981,1.5184,1.5825,1.686,1.7655,1.8082,1.8317,1.8424,1.835,1.7995,1.7635,1.7159,1.646,1.5658,1.4843,1.3979,1.3019,1.1997,0.0,0.0,0.0,0.0,0.0,0.0,0.0,0.0,0.0,0.0,0.0,0.8858,0.8965,0.0,0.0,0.0,0.9217,0.9917,1.0822,1.1062,0.0,0.0,0.0,0.0,0.0,0.0,0.0,1.2525,1.3367,1.4106,1.4549,1.4603,1.4803,1.5331,1.5491,1.5631,1.5758,0.0,1.5825,1.5825,1.5825,1.5765,1.5591,1.5324,1.5137,1.5182,1.5371,1.5611,1.5738,1.5506,1.5013,1.4194,1.3288,1.2194,1.0622,0.9668,0.867,0.7573,0.7394,0.7441,0.7407,0.7478,0.759,2.2619,2.2031,2.0909,2.034,2.0368,2.0628,2.0909,2.1176,2.1176,2.1078,2.0832,2.0275,1.9683,1.9058,1.8266,0.0,1.8306,1.8636,1.8919,1.9159,1.9782,2.0038,2.0011,2.0011,1.9998,1.9957,1.934,1.9058,1.8998,1.8432,1.8103,1.8023,1.6139,1.5611,1.6335,1.6046,1.6306,1.7192,1.7716,1.7955,1.7962,1.8277,1.8277,1.7922,1.7435,1.7038,1.6627,1.5605,1.487,1.4509,1.3494,1.2438,1.1543,0.0,0.0,0.0,0.0,0.0,0.0,0.0,0.0,0.0,0.0,0.0,0.0,0.0,0.0,0.9291,0.987,0.0,1.1382,1.1509,0.0,0.0,0.0,1.1683,1.2013,1.2549,1.3112,1.3606,0.0,0.0,1.5331,1.5418,1.5431,1.5431,1.5665,1.5825,1.5825,1.5825,1.5825,1.5825,1.5825,1.5825,1.5792,1.5591,1.5431,1.5438,1.5658,1.5805,1.5778,1.5689,1.5309,1.4867,1.4148,1.3258,1.1994,1.1346,1.0343,0.8434,0.787,0.7767,0.7825,0.7835,0.7897,2.3474,2.328,2.2545,2.1857,2.1249,2.138,2.151,2.177,2.2031,2.2192,2.2144,2.2026,2.1683,2.1075,2.0671,2.0635,2.0881,2.0953,2.1154,2.1412,2.18,2.185,2.1627,2.1553,2.1425,2.124,2.0859,2.043,1.9977,1.9549,1.914,1.8659,1.7526,1.7005,1.6978,1.6647,1.6714,1.7199,1.7508,1.7695,1.7695,1.7762,1.7662,1.742,1.728,1.68,1.6066,1.5724,1.5284,1.4512,1.4041,1.33,1.2151,1.1509,0.0,0.0,0.0,0.0,0.0,0.0,0.0,0.0,0.0,0.9331,0.9837,0.0,0.9927,0.0,1.1015,1.163,1.2058,1.2512,0.0,0.0,1.2826,1.2899,1.3147,1.354,1.3908,1.4269,1.4823,1.5237,1.5378,1.5585,1.5732,1.5732,1.5778,1.5825,1.5825,1.5825,1.5825,1.5825,1.5825,1.5825,1.5825,1.5731,1.5678,1.5725,1.5738,1.5825,1.5825,1.5784,1.5683,1.5547,1.5124,1.4388,1.3494,1.292,1.2216,1.1047,0.9826,0.8698,0.8361,0.8256,0.8153,2.3774,2.3792,2.3321,2.2917,2.2668,2.2337,2.2298,2.2439,2.2981,2.3391,2.3767,2.426,2.4147,2.3647,2.3504,2.3528,2.364,2.3647,2.3748,2.3875,2.4061,2.4045,2.3859,2.3549,2.325,2.3107,2.2423,2.1882,2.1459,2.0701,2.011,1.9682,1.855,1.7903,1.7782,1.7188,1.7048,1.7387,1.7502,1.7589,1.7589,1.7589,1.7442,1.7206,1.6945,1.6466,1.5852,1.5411,1.4972,1.4499,1.4115,1.3467,1.2589,1.2064,1.1296,0.0,0.0,0.0,0.0,0.0,0.0,0.0,0.0,0.0,0.0,0.0,1.0929,1.1517,1.2013,1.2522,1.3046,1.34,1.3701,1.3961,1.3995,1.4055,1.4215,1.4496,1.473,1.4897,1.5311,1.5591,1.5591,1.5684,1.5825,1.5825,1.5825,1.5825,1.5825,1.5825,1.5825,1.5825,1.5825,1.5825,1.5825,1.5825,1.5825,1.5825,1.5825,1.5825,1.5825,1.5825,1.5825,1.5778,1.5499,1.5064,1.4376,1.395,1.3414,1.2668,1.1536,1.0289,0.9246,0.8888,0.8579,2.3774,2.3785,2.3597,2.3747,2.4156,2.3604,2.3263,2.3201,2.402,2.4736,2.5516,2.6522,2.6689,2.6227,2.6177,2.6152,2.6161,2.6111,2.6111,2.6152,2.6161,2.6186,2.6202,2.5477,2.5136,2.5094,2.403,2.3431,2.3183,2.1861,2.1092,2.0845,1.9431,1.8712,1.8671,1.7899,1.7536,1.7582,1.7589,1.7589,1.7589,1.7589,1.7481,1.7146,1.661,1.6079,1.5618,1.493,1.4439,1.4352,1.3948,1.3427,1.2878,1.2563,1.1857,0.0,1.0707,0.0,0.0,0.0,0.0,0.0,0.0,0.0,0.0,1.1654,1.2204,1.3022,1.3158,1.3532,1.4286,1.4387,1.4618,1.5068,1.5098,1.5111,1.5107,1.529,1.5411,1.5451,1.5671,1.5825,1.5818,1.5825,1.5825,1.5825,1.5825,1.5825,1.5825,1.5825,1.5825,1.5825,1.5825,1.5825,1.5825,1.5825,1.5825,1.5825,1.5825,1.5825,1.5825,1.5825,1.5825,1.5778,1.5635,1.5404,1.4927,1.4634,1.4328,1.3837,1.3093,1.2,1.0385,0.9533,0.8999,2.3774,2.3785,2.3873,2.4406,2.5256,2.5734,2.542,2.4706,2.5689,2.6648,2.7596,2.8343,2.8325,2.7589,2.7206,2.7066,2.7049,2.6702,2.6728,2.7075,2.7075,2.7241,2.7545,2.681,2.6442,2.639,2.562,2.4931,2.4437,2.3407,2.2678,2.2104,2.0648,1.9909,1.9819,0.0,0.0,0.0,1.7589,1.7589,1.7589,1.7589,1.7328,1.6807,1.6502,0.0,1.4823,1.4603,1.4295,1.38,1.3935,0.0,0.0,0.0,0.0,0.0,0.0,0.0,0.0,0.0,0.0,0.0,1.2766,1.3121,1.3003,1.383,1.4474,1.4663,1.5102,1.5472,1.5611,1.5872,1.6023,1.5903,1.5709,1.559,1.5657,1.5509,1.5484,1.5718,1.5798,1.5825,1.5825,1.5825,1.5825,1.5825,1.5825,1.5825,1.5825,1.5825,1.5825,1.5825,1.5825,1.5825,1.5825,1.5825,1.5825,1.5825,1.5825,1.5825,1.5825,1.5825,1.5825,1.5825,1.5784,1.573,1.5594,1.554,1.5373,1.5098,1.453,1.3484,1.125,1.0184,0.9314,2.3774,2.3856,2.4156,2.4955,0.0,2.7004,2.7477,2.761,2.7784,2.8432,2.9404,3.0282,3.0083,2.9095,2.8823,2.8618,2.8432,2.8228,2.8246,2.8442,2.8637,2.8851,2.9086,2.8471,2.8191,2.8145,2.7166,2.647,2.6036,2.4939,2.4226,2.3838,2.2205,2.1441,2.1418,2.0511,1.9406,1.8003,1.7852,1.7747,1.7589,1.7747,1.7567,1.7127,1.6911,0.0,0.0,0.0,0.0,0.0,0.0,0.0,0.0,0.0,0.0,1.279,1.2868,1.2925,1.2791,1.323,1.3659,1.4118,1.532,1.5781,1.524,1.6095,1.6696,1.682,1.7109,1.7341,1.7514,1.7686,1.7681,1.7432,1.701,1.6641,1.6369,1.5938,1.5671,1.5792,1.5825,1.5825,1.5825,1.5825,1.5825,1.5825,1.5825,1.5825,1.5825,1.5825,1.5825,1.5825,1.5825,1.5825,1.5825,1.5825,1.5825,1.5825,1.5825,1.5825,1.5825,1.5825,1.5825,1.5825,1.5825,1.5825,1.5825,1.5825,1.5691,1.5411,1.4943,1.4157,1.2502,1.14,1.0246,2.3774,2.3856,2.4362,2.5495,2.6937,2.8073,2.9452,3.0825,3.0021,0.0,0.0,3.1822,3.1523,3.0439,3.0185,2.9902,2.9616,2.947,2.9424,2.9646,2.9932,3.0176,3.0293,2.9805,2.958,2.9512,2.8403,2.7694,2.7457,2.6277,2.5568,2.53,2.3821,2.2948,2.2745,2.174,2.0423,1.8982,1.8422,1.7957,1.7635,1.7905,1.7936,1.7711,1.7685,1.7402,1.6838,1.6292,1.5821,1.5411,1.517,1.5007,1.4901,1.4957,1.4921,1.466,1.5033,1.5245,1.5253,1.5524,1.6012,1.6619,1.79,1.8339,1.7546,1.8162,1.871,1.8921,1.8962,1.9139,1.9381,1.9415,1.9362,1.9085,1.838,1.777,1.7264,1.6527,1.6103,1.6062,1.6109,1.6062,1.6069,1.6015,1.5927,1.5879,1.5832,1.5825,1.5825,1.5825,1.5825,1.5825,1.5825,1.5825,1.5825,1.5825,1.5825,1.5825,1.5825,1.5825,1.5825,1.5825,1.5764,1.5725,1.5752,1.5718,1.5685,1.5631,1.5571,1.5297,1.4908,1.4384,1.3699,1.2705,1.1382,2.3846,2.3863,2.463,2.6084,2.804,2.9444,3.1157,3.2838,3.1927,3.1748,3.2066,3.2141,3.1855,3.1269,3.0166,2.9629,2.9587,2.8809,2.8867,2.9616,2.9629,3.0068,3.0732,2.9951,2.958,2.9502,2.8643,2.8062,2.7789,2.7131,2.6644,2.62,2.4925,2.3895,2.3221,2.2569,2.181,2.0877,1.9443,1.8363,1.7628,1.8108,1.8371,1.8341,1.8576,1.8573,1.8292,1.7829,1.7145,1.6212,1.6385,1.623,1.5624,1.6312,1.6713,1.6717,1.7325,1.7697,1.7697,1.7944,1.846,1.9208,2.0044,2.0085,1.9119,1.9704,2.0209,2.0236,2.051,2.0668,2.072,2.0712,2.0594,2.013,1.9446,1.8788,1.8288,1.7552,1.7138,1.7138,1.7091,1.7005,1.6878,1.6636,1.64,1.617,1.5974,1.5825,1.5825,1.5825,1.5825,1.5825,1.5825,1.5825,1.5825,1.5825,1.5825,1.5825,1.5825,1.5825,1.5825,1.5825,1.5698,1.5511,1.5484,1.5391,1.519,1.5084,1.5003,1.4776,1.4555,1.4379,1.4028,1.3452,1.2452,2.4967,2.5095,2.5846,2.7145,2.8886,3.1065,3.2521,3.3355,3.2902,3.2618,3.2525,3.2292,3.1797,3.1123,3.0283,2.9775,2.9607,2.916,2.9199,2.957,2.9805,3.0117,3.043,2.9863,2.958,2.9512,2.8701,2.8237,2.8121,2.7853,2.7638,2.741,2.637,2.5451,2.4644,2.4084,2.342,2.2584,2.0716,1.9354,1.8586,1.9198,1.9481,1.9413,1.9958,2.0029,1.9644,1.9183,1.8488,1.7569,1.7711,1.7605,1.7298,1.791,1.8381,1.8637,1.9115,1.9436,1.9427,1.9739,2.0157,2.0775,2.1279,2.1477,2.1225,2.1634,2.1911,2.192,2.2054,2.2157,2.2157,2.2157,2.1945,2.1499,2.0791,2.0141,1.965,1.8964,1.8503,1.8503,1.8495,1.8373,1.8025,1.7512,1.7044,1.6676,1.6204,1.5825,1.5825,1.5825,1.5825,1.5825,1.5825,1.5825,1.5825,1.5825,1.5825,1.5825,1.5825,1.5825,1.5825,1.5825,1.5705,1.5464,1.5398,1.5277,1.5055,1.5015,1.483,1.4596,1.4516,1.4402,1.4139,1.361,1.2618,2.6758,2.676,2.7372,2.8452,3.0004,3.2365,3.3418,3.3418,3.3355,3.3242,3.29,3.2402,3.1807,3.1152,3.0508,3.0019,2.9726,2.9665,2.9675,2.9736,3.0049,3.0254,3.0273,2.9834,2.958,2.9528,2.8701,2.8301,2.8301,2.8301,2.8184,2.7959,2.7344,2.6592,2.5713,2.5235,2.4627,2.38,2.2198,2.0834,1.9931,2.0585,2.0845,2.0709,2.1388,2.1552,2.1109,2.0633,2.0015,1.9262,1.9232,1.9181,1.9129,1.96,2.0091,2.0464,2.0878,2.1062,2.108,2.1353,2.1615,2.2015,2.2192,2.2457,2.2838,2.3003,2.3101,2.3101,2.3047,2.3057,2.3047,2.3047,2.2925,2.252,2.1908,2.1266,2.0863,2.0277,1.9824,1.9815,1.9824,1.965,1.9155,1.8519,1.7785,1.7131,1.6487,1.6116,1.6021,1.5927,1.5879,1.5825,1.5825,1.5825,1.5825,1.5825,1.5825,1.5825,1.5825,1.5865,1.5892,1.5899,1.5718,1.5471,1.5324,1.5117,1.4894,1.4787,1.4643,1.4429,1.4382,1.4329,1.4148,1.3701,1.2833,2.8894,2.8933,2.8992,3.0012,3.1671,3.2902,3.3418,3.3418,3.3418,3.3408,3.3252,3.2529,3.2119,3.1945,3.0752,3.0195,3.0107,2.9802,2.9841,3.0117,3.0176,3.041,3.0693,3.0017,2.958,2.9528,2.8701,2.8301,2.8301,2.8301,2.79,2.7217,2.7051,2.6592,2.5781,2.5382,2.4981,2.443,2.3985,2.2994,2.1608,2.203,2.2281,2.2206,2.2755,2.2971,2.2746,2.2419,2.1817,2.115,2.1096,2.0935,2.0631,2.1339,2.1954,2.2192,2.2616,2.2858,2.2858,2.2896,2.2872,2.296,2.296,2.3023,2.3076,2.311,2.3101,2.314,2.312,2.3101,2.3101,2.3101,2.3013,2.2794,2.2325,2.1917,2.1606,2.1159,2.0853,2.0853,2.0934,2.0682,2.0229,1.953,1.8603,1.7598,1.7192,1.6824,1.6588,1.6353,1.6069,1.5879,1.5825,1.5825,1.5825,1.5825,1.5825,1.5825,1.5825,1.5905,1.6019,1.5945,1.5678,1.5378,1.5184,1.4914,1.4429,1.4168,1.4202,1.4222,1.4175,1.4128,1.4088,1.3997,1.3392,3.0435,3.0185,3.0389,3.1286,3.253,3.3165,3.3418,3.3418,3.3418,3.3281,3.2998,3.2422,3.2229,3.216,3.1064,3.0615,3.0596,3.043,3.0439,3.0596,3.0605,3.0713,3.0781,3.0047,2.958,2.9502,2.8701,2.8301,2.8301,2.8301,2.7861,2.71,2.7012,2.6582,2.5762,2.5586,2.544,2.5235,2.5079,2.4716,2.4106,2.366,2.3282,2.2997,2.3374,2.3503,2.311,2.2794,2.2378,2.1819,2.1926,2.1852,2.1544,2.2152,2.2629,2.2823,2.2994,2.3101,2.3101,2.3101,2.3101,2.3101,2.3101,2.3198,2.3506,2.3525,2.3613,2.3754,2.3403,2.3101,2.311,2.3101,2.3047,2.2979,2.2784,2.2652,2.2555,2.2334,2.2246,2.2246,2.2246,2.2069,2.1535,2.0656,1.9687,1.878,1.8288,1.7878,1.7372,1.6911,1.644,1.5967,1.5825,1.5825,1.5825,1.5825,1.5825,1.5825,1.5825,1.5905,1.5972,1.5939,1.5685,1.5244,1.5109,1.48,1.4222,1.4102,1.4088,1.4088,1.4088,1.4088,1.4088,1.4088,1.3737,3.2032,3.1778,3.1856,3.2339,3.3048,3.3292,3.3418,3.3418,3.3418,3.3193,3.2764,3.2353,3.21,3.1894,3.1211,3.0898,3.0898,3.0898,3.0898,3.0898,3.0898,3.0898,3.0801,2.999,2.958,2.9434,2.8701,2.8301,2.8301,2.8301,2.791,2.7275,2.708,2.665,2.5927,2.5771,2.5684,2.5684,2.5684,2.5684,2.5586,2.4932,2.4225,2.3655,2.3895,2.3786,2.314,2.2969,2.274,2.2422,2.252,2.252,2.2422,2.2696,2.2925,2.3101,2.3101,2.3101,2.3101,2.3101,2.3101,2.3101,2.3101,2.332,2.3691,2.3789,2.3984,2.4287,2.3803,2.3471,2.3486,2.3344,2.3315,2.3413,2.3408,2.3276,2.3286,2.332,2.3193,2.312,2.296,2.2872,2.2334,2.1463,2.0593,2.0014,1.9484,1.8934,1.8241,1.7684,1.7131,1.6346,1.6204,1.6021,1.5872,1.5825,1.5838,1.5864,1.5925,1.5892,1.5959,1.5979,1.5718,1.5331,1.5156,1.48,1.4242,1.4095,1.4115,1.4095,1.4095,1.4108,1.4088,1.4088,1.4046,3.3953,3.3875,3.3476,3.3292,3.3355,3.3418,3.3418,3.3418,3.3418,3.3184,3.2744,3.2353,3.1943,3.1523,3.1084,3.0898,3.0898,3.0898,3.0898,3.0898,3.0898,3.0898,3.083,3.0,2.958,2.9502,2.8701,2.8301,2.8301,2.8291,2.8076,2.7627,2.7246,2.6807,2.6338,2.5957,2.5693,2.5693,2.5684,2.5684,2.5684,2.5635,2.5169,2.4373,2.4368,2.3968,2.3208,2.3091,2.3057,2.3047,2.3047,2.3057,2.3047,2.3047,2.3091,2.3101,2.3101,2.3101,2.312,2.314,2.3149,2.314,2.3208,2.3359,2.3848,2.3916,2.4111,2.4404,2.4482,2.4414,2.4316,2.3935,2.3877,2.4189,2.3955,2.375,2.376,2.3711,2.3555,2.3271,2.312,2.2882,2.2236,2.1872,2.1516,2.1033,2.0546,2.0002,1.9338,1.8688,1.8102,1.7505,1.7099,1.6697,1.6021,1.5879,1.6,1.6012,1.5952,1.5965,1.6186,1.6246,1.5798,1.5431,1.5197,1.4874,1.4315,1.4108,1.4155,1.4162,1.4162,1.4155,1.4295,1.4148,1.4119,3.3906,3.3652,3.3486,3.3418,3.3418,3.3418,3.3418,3.3418,3.3418,3.3027,3.2451,3.2226,3.1787,3.1103,3.0957,3.0898,3.0898,3.0898,3.0898,3.0898,3.0898,3.0898,3.0791,3.0047,2.958,2.9509,2.8711,2.8301,2.8301,2.8301,2.8076,2.7715,2.7519,2.709,2.6484,2.624,2.6025,2.5713,2.5684,2.5684,2.5684,2.5684,2.5265,2.4482,2.4424,2.3968,2.312,2.3101,2.3101,2.3101,2.3101,2.3101,2.3101,2.3101,2.3101,2.3101,2.3101,2.3218,2.3506,2.3545,2.3672,2.3926,2.391,2.4121,2.4502,2.4666,2.4785,2.5185,2.5537,2.5566,2.5127,2.4394,2.3965,2.4268,2.4062,2.3926,2.4062,2.3965,2.3721,2.3545,2.3286,2.296,2.2775,2.2643,2.2511,2.2334,2.1945,2.1302,2.0683,2.0133,1.9513,1.8864,1.838,1.7885,1.7138,1.64,1.6069,1.596,1.5905,1.5899,1.6032,1.6066,1.5718,1.5511,1.5284,1.5115,1.4623,1.4469,1.4462,1.4529,1.4502,1.4449,1.4623,1.4422,1.4456,3.3691,3.3437,3.3418,3.3418,3.3418,3.3418,3.3418,3.3418,3.3408,3.2949,3.2275,3.2229,3.1699,3.0986,3.0898,3.0898,3.0898,3.0898,3.0898,3.0898,3.0898,3.0898,3.0752,3.0037,2.958,2.9443,2.8711,2.8301,2.8301,2.8301,2.8144,2.7881,2.7744,2.7314,2.668,2.6465,2.6172,2.5762,2.5684,2.5684,2.5684,2.5684,2.5343,2.4736,2.4492,2.3968,2.314,2.3101,2.3101,2.3101,2.3101,2.3101,2.3101,2.3101,2.3101,2.3101,2.3101,2.333,2.3711,2.3789,2.3965,2.4365,2.4424,2.4639,2.5185,2.5283,2.5566,2.6045,2.6377,2.6445,2.6055,2.5244,2.4707,2.4785,2.4463,2.4316,2.456,2.4385,2.4102,2.3779,2.3389,2.313,2.3101,2.3091,2.3047,2.3101,2.274,2.2236,2.1667,2.1221,2.0737,2.0104,1.9567,1.898,1.8288,1.7552,1.666,1.6375,1.598,1.5913,1.5966,1.5892,1.5778,1.5585,1.5424,1.5296,1.5122,1.4897,1.489,1.5015,1.4888,1.4767,1.4736,1.4669,1.4716,3.3428,3.3418,3.3418,3.3418,3.3418,3.3418,3.3418,3.3418,3.3389,3.291,3.2217,3.2199,3.1641,3.1025,3.0898,3.0898,3.0898,3.0898,3.0898,3.0898,3.0898,3.0898,3.084,2.999,2.9492,2.9414,2.8682,2.8301,2.8301,2.8301,2.8262,2.8193,2.7933,2.748,2.6992,2.6611,2.6201,2.5791,2.5684,2.5684,2.5684,2.5684,2.5508,2.5039,2.4668,2.4027,2.3179,2.311,2.3101,2.3101,2.3101,2.3101,2.3149,2.3159,2.313,2.3208,2.3159,2.3354,2.3789,2.3896,2.4121,2.4492,2.4492,2.4912,2.5586,2.5742,2.6055,2.6649,2.6963,2.6982,2.6885,2.6523,2.6113,2.5771,2.5312,2.5039,2.5145,2.5096,2.4727,2.3935,2.3364,2.312,2.3101,2.3101,2.3101,2.3057,2.2925,2.2652,2.2227,2.1917,2.157,2.1123,2.0718,2.0212,1.9484,1.8719,1.7705,1.6827,1.6334,1.6069,1.6224,1.6203,1.5919,1.5745,1.5712,1.5598,1.5357,1.5204,1.5204,1.5231,1.5084,1.5068,1.5044,1.5037,1.4943,3.3418,3.3418,3.3418,3.3418,3.3418,3.3418,3.3418,3.3379,3.3125,3.2666,3.2178,3.1855,3.1406,3.0996,3.0898,3.0898,3.0898,3.0898,3.0898,3.0898,3.0898,3.0898,3.0723,2.999,2.9248,2.874,2.8437,2.8301,2.8301,2.8301,2.8301,2.8252,2.8164,2.7715,2.7051,2.6865,2.6484,2.5762,2.5684,2.5684,2.5684,2.5684,2.5527,2.5165,2.4932,2.4463,2.3643,2.3257,2.3101,2.3101,2.3101,2.3227,2.3516,2.3594,2.3721,2.3975,2.3978,2.4209,2.459,2.4715,2.4824,2.5157,2.5265,2.5596,2.6084,2.6182,2.6445,2.6992,2.7266,2.7363,2.7109,2.7197,2.7051,2.666,2.5927,2.5664,2.5752,2.5166,2.4434,2.3877,2.3408,2.313,2.3101,2.311,2.3101,2.3101,2.3057,2.2872,2.2775,2.2643,2.2643,2.2422,2.198,2.1347,2.061,1.9968,1.9244,1.8161,1.7413,1.6672,1.6704,1.6477,1.615,1.5973,1.5986,1.5892,1.5691,1.5605,1.5631,1.5531,1.5424,1.5438,1.5491,1.5398,1.5224,3.3418,3.3418,3.3418,3.3418,3.3418,3.3418,3.3418,3.3359,3.2969,3.2559,3.2139,3.1719,3.1289,3.0957,3.0898,3.0898,3.0898,3.0898,3.0898,3.0898,3.0898,3.0898,3.0771,2.998,2.9121,2.8437,2.8301,2.8301,2.8301,2.8301,2.8301,2.8301,2.8301,2.7861,2.71,2.6982,2.6592,2.581,2.5684,2.5684,2.5684,2.5684,2.5605,2.5332,2.5204,2.4842,2.4268,2.3838,2.3422,2.3169,2.3101,2.335,2.374,2.3799,2.3975,2.4316,2.4443,2.46,2.5047,2.5019,2.5264,2.5635,2.5684,2.5966,2.6465,2.6621,2.6855,2.7432,2.7734,2.7793,2.7607,2.7715,2.7744,2.7529,2.6728,2.6309,2.625,2.5371,2.4658,2.4258,2.3789,2.3422,2.3379,2.3159,2.311,2.3101,2.3101,2.3101,2.3101,2.3091,2.3091,2.3003,2.2652,2.2104,2.1641,2.1186,2.0728,1.9729,1.8681,1.7866,1.7421,1.694,1.6501,1.6353,1.6273,1.6413,1.6273,1.6192,1.6166,1.5985,1.5718,1.5691,1.5651,1.5491,1.5364,3.3418,3.3418,3.3418,3.3418,3.3418,3.3418,3.3418,3.334,3.291,3.251,3.2129,3.1641,3.125,3.0947,3.0898,3.0898,3.0898,3.0898,3.0898,3.0898,3.0889,3.084,3.0566,2.9893,2.9176,2.8408,2.8301,2.8301,2.8301,2.8301,2.8301,2.8301,2.8262,2.7861,2.7168,2.7012,2.6602,2.5801,2.5684,2.5684,2.5684,2.5684,2.5674,2.5635,2.5352,2.5145,2.4902,2.4512,2.3984,2.3305,2.3276,2.3535,2.3809,2.3867,2.4141,2.457,2.4521,2.4766,2.5039,2.5223,2.5322,2.5635,2.5713,2.6054,2.6787,2.6953,2.7275,2.8037,2.8213,2.8242,2.8203,2.8223,2.8223,2.8174,2.7441,2.6894,2.6426,2.5654,2.5146,2.4932,2.4385,2.3799,2.375,2.3374,2.3208,2.3101,2.3101,2.3101,2.3101,2.3101,2.3101,2.3013,2.2882,2.2687,2.2227,2.2094,2.1686,2.1284,2.0158,1.9214,1.808,1.7377,1.6802,1.6662,1.6613,1.6774,1.674,1.6533,1.6333,1.6066,1.5905,1.5858,1.5745,1.5591,1.5545,3.3418,3.3418,3.3418,3.3418,3.3418,3.3418,3.3418,3.332,3.2646,3.2295,3.2031,3.1377,3.1016,3.0898,3.0898,3.0898,3.0898,3.0898,3.0898,3.0898,3.0898,3.0536,3.0029,2.9763,2.9186,2.8418,2.831,2.8301,2.8301,2.8301,2.8301,2.8301,2.8281,2.7871,2.7139,2.7021,2.6562,2.581,2.5693,2.5684,2.5684,2.5684,2.5684,2.5674,2.5605,2.5391,2.5078,2.4648,2.4355,2.4131,2.4036,2.4277,2.4629,2.4687,2.4853,2.5177,2.5304,2.54,2.5508,2.5537,2.5567,2.5654,2.5684,2.6064,2.6924,2.7012,2.7441,2.8076,2.8301,2.8301,2.8301,2.8301,2.8301,2.8232,2.7803,2.7324,2.6826,2.6113,2.5508,2.5421,2.4795,2.4268,2.3965,2.373,2.3516,2.3247,2.3179,2.3188,2.3266,2.3169,2.3208,2.313,2.3013,2.296,2.2862,2.2818,2.2687,2.2599,2.1748,2.0673,1.9241,1.7829,1.7211,1.6703,1.6854,1.7038,1.679,1.6486,1.6286,1.6146,1.5952,1.5791,1.5832,1.5738,1.5718,3.3418,3.3418,3.3418,3.3418,3.3418,3.3418,3.3418,3.3252,3.2549,3.2229,3.1973,3.1269,3.0898,3.0898,3.0898,3.0898,3.0898,3.0898,3.0898,3.0898,3.0898,3.0508,2.9961,2.9687,2.9209,2.8603,2.8379,2.8301,2.8301,2.8301,2.8301,2.8301,2.8301,2.793,2.7344,2.707,2.6699,2.6103,2.5801,2.5684,2.5684,2.5684,2.5684,2.5684,2.5684,2.5586,2.5332,2.506,2.4787,2.4521,2.4434,2.4619,2.5057,2.5059,2.5283,2.5635,2.5684,2.5674,2.5684,2.5684,2.5684,2.5684,2.5684,2.6132,2.6797,2.7021,2.7363,2.8144,2.8271,2.8301,2.8301,2.8301,2.8301,2.8271,2.8076,2.7744,2.7334,2.6699,2.6338,2.6074,2.5537,2.4902,2.459,2.4307,2.3975,2.3734,2.3715,2.3705,2.373,2.35,2.3344,2.3315,2.3179,2.3086,2.3013,2.296,2.296,2.2916,2.2564,2.1659,2.0224,1.8511,1.7746,1.7288,1.7278,1.7112,1.6824,1.6589,1.6426,1.6253,1.5951,1.5791,1.5832,1.5825,1.5825,3.3418,3.3418,3.3418,3.3418,3.3418,3.3418,3.3379,3.3193,3.251,3.2119,3.1904,3.124,3.0908,3.0898,3.0898,3.0898,3.0898,3.0898,3.0898,3.0898,3.0869,3.0635,3.0293,2.9883,2.9394,2.8887,2.8506,2.8359,2.832,2.8301,2.8301,2.8301,2.8301,2.8066,2.7679,2.7285,2.6855,2.6377,2.6025,2.582,2.5713,2.5684,2.5684,2.5684,2.5684,2.5674,2.5635,2.5567,2.5352,2.4563,2.4514,2.4824,2.5137,2.5156,2.5322,2.5586,2.5684,2.5684,2.5684,2.5684,2.5684,2.5693,2.5742,2.6093,2.6826,2.709,2.7471,2.8223,2.8291,2.8301,2.8301,2.8301,2.8301,2.8291,2.8262,2.8096,2.7764,2.7344,2.708,2.7031,2.6288,2.5898,2.5499,2.5107,2.4512,2.4131,2.4131,2.4111,2.4072,2.3965,2.3799,2.3662,2.3467,2.3179,2.314,2.3091,2.3091,2.3047,2.274,2.1989,2.0924,1.9524,1.8533,1.7971,1.7646,1.7291,1.6978,1.681,1.6549,1.6253,1.5884,1.5804,1.5825,1.5825,1.5825,3.3418,3.3418,3.3418,3.3418,3.3418,3.3408,3.3232,3.2881,3.2393,3.1963,3.1601,3.1113,3.0908,3.0898,3.0898,3.0898,3.0898,3.0898,3.0898,3.0898,3.0898,3.0859,3.0644,3.0264,2.9648,2.9092,2.8848,2.8613,2.8379,2.8301,2.8301,2.8301,2.8271,2.8086,2.7777,2.7611,2.7129,2.6523,2.6289,2.6055,2.5752,2.5693,2.5684,2.5684,2.5684,2.5684,2.5684,2.5684,2.5586,2.545,2.5372,2.541,2.5518,2.5557,2.5567,2.5635,2.5684,2.5684,2.5684,2.5684,2.5684,2.5703,2.6045,2.6455,2.6943,2.7324,2.7715,2.8184,2.8301,2.8301,2.8301,2.8301,2.8301,2.8301,2.8291,2.8262,2.8115,2.7773,2.7549,2.7412,2.7051,2.6504,2.583,2.5674,2.5205,2.4639,2.4473,2.4453,2.4424,2.4404,2.4238,2.4082,2.3828,2.3559,2.3422,2.3325,2.3188,2.313,2.2872,2.2564,2.1509,2.0546,1.9547,1.8639,1.783,1.7485,1.7152,1.6632,1.6319,1.6086,1.5844,1.5811,1.5825,1.5825,1.5825,3.3418,3.3418,3.3418,3.331,3.3135,3.3125,3.2891,3.2471,3.2051,3.1728,3.1475,3.1074,3.0898,3.0898,3.0898,3.0898,3.0898,3.0898,3.0898,3.0898,3.0898,3.0898,3.0869,3.0596,3.0078,2.9307,2.8994,2.8701,2.8398,2.8301,2.8301,2.8301,2.8301,2.8203,2.7992,2.7826,2.7513,2.7012,2.6562,2.626,2.6064,2.5781,2.5684,2.5684,2.5684,2.5684,2.5684,2.5684,2.5684,2.5684,2.5684,2.5684,2.5684,2.5684,2.5684,2.5684,2.5684,2.5684,2.5684,2.5684,2.5684,2.5693,2.6133,2.6562,2.6982,2.7412,2.7832,2.8174,2.8301,2.8301,2.8301,2.8301,2.8301,2.8301,2.8301,2.8301,2.8252,2.8086,2.7959,2.7881,2.7568,2.7178,2.6777,2.6406,2.6084,2.5596,2.5478,2.543,2.5049,2.499,2.4727,2.4521,2.4248,2.4023,2.3793,2.3598,2.3344,2.3218,2.3047,2.2828,2.2318,2.1428,2.0545,1.9579,1.8576,1.7719,1.7267,1.6746,1.6263,1.5979,1.5852,1.5832,1.5825,1.5825,1.5825,3.3418,3.3418,3.3418,3.3184,3.2832,3.2803,3.2539,3.2041,3.1689,3.1494,3.1367,3.1035,3.0898,3.0898,3.0898,3.0898,3.0898,3.0898,3.0898,3.0898,3.0898,3.0898,3.0879,3.0771,3.0371,2.9609,2.9238,2.8818,2.8418,2.8301,2.8301,2.8301,2.8301,2.8262,2.8184,2.8022,2.7757,2.7523,2.7043,2.6533,2.6338,2.6035,2.582,2.5684,2.5684,2.5684,2.5684,2.5684,2.5684,2.5684,2.5684,2.5684,2.5684,2.5684,2.5684,2.5684,2.5684,2.5684,2.5684,2.5684,2.5684,2.5713,2.624,2.6621,2.7021,2.75,2.793,2.8154,2.8301,2.8301,2.8301,2.8301,2.8301,2.8301,2.8301,2.8301,2.8301,2.8301,2.8242,2.8203,2.7959,2.7637,2.7422,2.7148,2.6865,2.6592,2.6465,2.626,2.585,2.5469,2.5166,2.4912,2.4639,2.417,2.3935,2.3809,2.3564,2.3276,2.312,2.3013,2.2882,2.234,2.1464,2.0344,1.9389,1.8453,1.7555,1.6923,1.643,1.6001,1.5825,1.5825,1.5825,1.5825,1.5825,3.3418,3.3418,3.3418,3.3174,3.2822,3.2783,3.2314,3.1689,3.1523,3.1309,3.1025,3.0928,3.0898,3.0898,3.0898,3.0898,3.0898,3.0898,3.0898,3.0898,3.0898,3.0898,3.0898,3.0879,3.04,2.9832,2.9414,2.9023,2.8447,2.8301,2.8301,2.8301,2.8301,2.8301,2.8281,2.8184,2.7978,2.7826,2.7483,2.706,2.6602,2.6357,2.6103,2.581,2.5762,2.5723,2.5684,2.5684,2.5684,2.5684,2.5684,2.5693,2.5703,2.5703,2.5713,2.5684,2.5684,2.5684,2.5684,2.5684,2.5684,2.5859,2.6426,2.6846,2.7158,2.7695,2.8115,2.8232,2.8301,2.8301,2.8301,2.8301,2.8301,2.8301,2.8301,2.8301,2.8301,2.8301,2.8301,2.8271,2.8164,2.8066,2.7842,2.7627,2.7353,2.6973,2.6689,2.6504,2.6182,2.5801,2.5459,2.5225,2.5,2.4463,2.3955,2.3857,2.3691,2.3335,2.3169,2.3101,2.3013,2.3013,2.233,2.1256,2.0125,1.9086,1.8186,1.7316,1.672,1.6359,1.6062,1.5825,1.5825,1.5825,1.5825,3.3418,3.3408,3.3193,3.2851,3.2471,3.2226,3.1777,3.125,3.1191,3.1084,3.0937,3.0898,3.0898,3.0898,3.0898,3.0898,3.0898,3.0898,3.0898,3.0898,3.0898,3.0898,3.0898,3.0898,3.0342,2.9795,2.9587,2.9176,2.8359,2.8301,2.8301,2.8301,2.8301,2.8301,2.8291,2.8281,2.8184,2.7969,2.7764,2.7532,2.7082,2.6846,2.6484,2.6191,2.6045,2.5908,2.5703,2.5684,2.5684,2.5732,2.5957,2.5869,2.584,2.5928,2.5967,2.5762,2.5703,2.5693,2.5693,2.5684,2.5684,2.5781,2.6493,2.6963,2.7217,2.7715,2.8262,2.8301,2.8301,2.8301,2.8301,2.8301,2.8301,2.8301,2.8301,2.8301,2.8301,2.8301,2.8301,2.8301,2.8242,2.8174,2.8125,2.792,2.7754,2.7402,2.6982,2.6728,2.6514,2.6084,2.5703,2.5508,2.5303,2.4951,2.4414,2.4189,2.3965,2.3613,2.3344,2.3276,2.3208,2.3266,2.2915,2.2169,2.1033,2.0081,1.9034,1.821,1.7441,1.6683,1.6251,1.5967,1.5872,1.5825,1.5825,3.3379,3.3262,3.293,3.251,3.2021,3.168,3.1309,3.0947,3.0908,3.0908,3.0898,3.0898,3.0898,3.0898,3.0898,3.0898,3.0898,3.0898,3.0898,3.0898,3.0898,3.0898,3.0898,3.0791,3.0439,2.9687,2.956,2.9176,2.8437,2.8301,2.8301,2.8301,2.8301,2.8301,2.8301,2.8301,2.8301,2.8193,2.7998,2.7836,2.7588,2.7246,2.6875,2.6523,2.6435,2.6201,2.5957,2.5732,2.5791,2.5957,2.6143,2.626,2.6094,2.625,2.626,2.5986,2.5869,2.5859,2.5966,2.5996,2.6083,2.6182,2.6758,2.706,2.7324,2.7822,2.8301,2.8301,2.8301,2.8301,2.8301,2.8301,2.8301,2.8301,2.8301,2.8301,2.8301,2.8301,2.8301,2.8301,2.8301,2.8262,2.8203,2.8184,2.7998,2.7832,2.7422,2.7187,2.6914,2.6299,2.5928,2.5723,2.5576,2.5381,2.5019,2.4668,2.4375,2.4004,2.3818,2.3721,2.3569,2.35,2.3175,2.3006,2.2542,2.1572,2.036,1.9072,1.8195,1.7318,1.6527,1.6062,1.6021,1.5879,1.5825,3.3213,3.2861,3.2812,3.2334,3.165,3.1533,3.126,3.0918,3.0898,3.0898,3.0898,3.0898,3.0898,3.0898,3.0898,3.0898,3.0898,3.0898,3.0898,3.0898,3.0898,3.0898,3.0898,3.0898,3.0381,2.9707,2.958,2.9127,2.8476,2.8301,2.8301,2.8301,2.8301,2.8301,2.8301,2.8301,2.8301,2.8281,2.8232,2.8037,2.7695,2.7305,2.709,2.6885,2.666,2.6426,2.6299,2.6035,2.5957,2.6299,2.6367,2.6572,2.6738,2.6523,2.6641,2.6641,2.6602,2.6475,2.6748,2.6797,2.6846,2.6914,2.7363,2.7549,2.7904,2.8096,2.8437,2.8301,2.835,2.8418,2.8457,2.8369,2.833,2.8359,2.8428,2.8389,2.835,2.8301,2.8301,2.8301,2.8301,2.8301,2.8262,2.8271,2.8242,2.8076,2.7943,2.7669,2.7288,2.6602,2.6152,2.5986,2.5703,2.5547,2.5352,2.5039,2.4756,2.4375,2.4199,2.4082,2.3994,2.389,2.4111,2.3844,2.3451,2.2841,2.1635,2.0326,1.9036,1.8056,1.7318,1.6676,1.6224,1.6028,1.5838,3.2607,3.2412,3.2178,3.1865,3.1504,3.1279,3.1064,3.0918,3.0898,3.0898,3.0898,3.0898,3.0898,3.0898,3.0898,3.0898,3.0898,3.0898,3.0898,3.0898,3.0898,3.0898,3.0898,3.084,3.043,2.9775,2.9482,2.9092,2.8555,2.8301,2.8301,2.8301,2.8301,2.8301,2.8301,2.8301,2.8301,2.8291,2.8271,2.8203,2.8018,2.7832,2.7617,2.7402,2.7197,2.6973,2.6728,2.6611,2.6533,2.6787,2.6934,2.7041,2.709,2.707,2.7226,2.7314,2.7278,2.7217,2.7344,2.7393,2.751,2.7783,2.8115,2.8486,2.8691,2.8848,2.8984,2.9033,2.9023,2.8984,2.8975,2.9078,2.9023,2.8965,2.8711,2.8633,2.8545,2.834,2.8301,2.8301,2.8301,2.833,2.833,2.8301,2.8281,2.8184,2.8031,2.7767,2.7376,2.6787,2.6426,2.6191,2.5928,2.5615,2.5478,2.5244,2.5068,2.4746,2.4453,2.4365,2.4346,2.4375,2.4551,2.4502,2.4101,2.3412,2.262,2.1571,2.0266,1.9174,1.811,1.7547,1.6966,1.6069,1.5919,3.1846,3.1826,3.1601,3.1455,3.1348,3.1016,3.0898,3.0898,3.0898,3.0898,3.0898,3.0898,3.0898,3.0898,3.0898,3.0898,3.0898,3.0898,3.0898,3.0898,3.0898,3.0898,3.0898,3.083,3.043,2.958,2.958,2.9082,2.8545,2.8301,2.8301,2.8301,2.8301,2.8301,2.8301,2.8301,2.8301,2.8301,2.8301,2.8281,2.8252,2.8262,2.8076,2.7881,2.7695,2.7519,2.7226,2.7012,2.6982,2.7236,2.7412,2.748,2.7471,2.751,2.7656,2.7767,2.7708,2.7725,2.791,2.8057,2.8164,2.8457,2.8818,2.9131,2.9385,2.958,2.9616,2.9518,2.9528,2.9502,2.9626,2.9587,2.9518,2.9297,2.9121,2.9023,2.8877,2.8603,2.8369,2.8301,2.833,2.8428,2.8408,2.834,2.8291,2.8252,2.8057,2.7865,2.7451,2.7031,2.6689,2.6445,2.6182,2.5879,2.5615,2.543,2.5273,2.5137,2.4853,2.4785,2.4844,2.4873,2.4923,2.4787,2.4639,2.4346,2.3802,2.2649,2.1527,2.0559,1.9578,1.8509,1.7673,1.673,1.608,3.0976,3.1006,3.1357,3.1289,3.0957,3.0908,3.0898,3.0898,3.0898,3.0898,3.0898,3.0898,3.0898,3.0898,3.0898,3.0898,3.0898,3.0898,3.0898,3.0898,3.0898,3.0898,3.0898,3.0771,3.0459,2.9697,2.9616,2.9101,2.8496,2.8301,2.8301,2.8301,2.8301,2.8301,2.8301,2.8301,2.8301,2.8301,2.8301,2.8301,2.8301,2.8301,2.8252,2.8164,2.7891,2.7699,2.765,2.7334,2.7295,2.766,2.7757,2.7914,2.792,2.7832,2.791,2.8027,2.7953,2.8047,2.8359,2.8594,2.8809,2.8984,2.9297,2.9648,2.9795,2.9714,2.9665,2.9726,2.9834,2.9756,2.9697,2.96,2.9795,2.9717,2.9551,2.9248,2.9053,2.876,2.8535,2.8359,2.8437,2.8682,2.874,2.873,2.8555,2.8506,2.8262,2.8018,2.7822,2.7432,2.7012,2.6699,2.6445,2.6143,2.5732,2.5605,2.5508,2.5478,2.5294,2.5333,2.545,2.545,2.5294,2.5274,2.5118,2.5098,2.4896,2.3946,2.2981,2.2099,2.1082,1.9845,1.8576,1.7518,1.6931,3.0898,3.0908,3.1074,3.1045,3.0898,3.0898,3.0898,3.0898,3.0898,3.0898,3.0898,3.0898,3.0898,3.0898,3.0898,3.0898,3.0898,3.0898,3.0898,3.0898,3.0898,3.0898,3.0898,3.0771,3.0449,2.9746,2.9597,2.9186,2.8379,2.8301,2.8301,2.8301,2.8301,2.8301,2.8301,2.8301,2.8301,2.8301,2.8301,2.8301,2.8301,2.8301,2.8301,2.8262,2.8203,2.8057,2.8027,2.79,2.7939,2.7988,2.8018,2.8144,2.8242,2.8076,2.8115,2.8262,2.8076,2.8232,2.8506,2.8818,2.9131,2.9746,3.0098,3.0342,3.0283,3.0351,3.0428,3.04,3.0332,3.0264,3.0371,3.0391,3.042,3.0273,2.999,2.959,2.9248,2.8955,2.876,2.8613,2.8896,2.9219,2.9219,2.9209,2.8975,2.875,2.8476,2.8223,2.8027,2.7812,2.7383,2.6953,2.668,2.6289,2.5869,2.5762,2.5693,2.5684,2.5684,2.5684,2.5684,2.5664,2.5547,2.5586,2.5586,2.543,2.5265,2.5083,2.4345,2.3283,2.2191,2.1007,1.974,1.8392,1.7703,3.0898,3.0898,3.0898,3.0898,3.0898,3.0898,3.0898,3.0898,3.0898,3.0898,3.0898,3.0898,3.0898,3.0898,3.0898,3.0898,3.0898,3.0898,3.0898,3.0898,3.0898,3.0898,3.0898,3.0762,3.0449,2.9766,2.9502,2.9121,2.832,2.8301,2.8301,2.8301,2.8301,2.8301,2.8301,2.8301,2.8301,2.8301,2.8301,2.8301,2.8301,2.8301,2.8301,2.8301,2.8262,2.8252,2.8242,2.8184,2.8203,2.8242,2.8262,2.8271,2.8291,2.8291,2.8301,2.8301,2.8301,2.8301,2.8408,2.8857,2.9414,3.001,3.0537,3.0771,3.0898,3.0898,3.0762,3.0801,3.084,3.0898,3.0898,3.0791,3.0752,3.0586,3.0254,2.9873,2.9512,2.9209,2.9033,2.8896,2.917,2.9326,2.96,2.9531,2.9199,2.8896,2.8506,2.831,2.8213,2.7998,2.7734,2.7305,2.6904,2.6475,2.6035,2.5849,2.5723,2.5684,2.5684,2.5684,2.5684,2.5684,2.5684,2.5654,2.5645,2.5674,2.5557,2.5344,2.4948,2.4374,2.3192,2.1999,2.0703,1.9424,1.847,3.0898,3.0898,3.0898,3.0898,3.0898,3.0898,3.0898,3.0898,3.0898,3.0898,3.0898,3.0898,3.0898,3.0898,3.0898,3.0898,3.0898,3.0898,3.0898,3.0898,3.0898,3.0898,3.0898,3.0781,3.0439,2.9775,2.9502,2.9131,2.8301,2.8301,2.8301,2.8301,2.8301,2.8301,2.8301,2.8301,2.8301,2.8301,2.8301,2.8301,2.8301,2.8301,2.8301,2.8301,2.8301,2.8301,2.8301,2.8301,2.8301,2.8301,2.8301,2.8301,2.8301,2.8301,2.8301,2.8301,2.8301,2.8301,2.835,2.9092,2.9658,3.0068,3.0469,3.0781,3.0869,3.0898,3.0898,3.0898,3.0898,3.0898,3.0898,3.0898,3.0898,3.0801,3.0459,3.0098,2.9726,2.956,2.9404,2.9092,2.9062,2.9199,2.9648,2.9824,2.9453,2.9053,2.8584,2.8369,2.833,2.8174,2.7939,2.7598,2.7168,2.6738,2.6318,2.5977,2.5762,2.5713,2.5684,2.5684,2.5684,2.5684,2.5684,2.5684,2.5684,2.5684,2.5684,2.5664,2.5295,2.4842,2.4051,2.2936,2.1652,2.0511,1.9579,3.0898,3.0898,3.0898,3.0898,3.0898,3.0898,3.0898,3.0898,3.0898,3.0898,3.0898,3.0898,3.0898,3.0898,3.0898,3.0898,3.0898,3.0898,3.0898,3.0898,3.0898,3.0898,3.0889,3.0762,3.0391,2.9795,2.9502,2.9101,2.8301,2.834,2.831,2.8301,2.8379,2.8301,2.8301,2.8301,2.8301,2.8301,2.8301,2.8301,2.8301,2.8301,2.8301,2.8301,2.8301,2.8301,2.8301,2.8301,2.8301,2.8301,2.8301,2.8301,2.8301,2.8301,2.8301,2.8301,2.8301,2.8301,2.8506,2.9033,2.9636,2.9893,3.0244,3.0644,3.082,3.0889,3.0898,3.0898,3.0898,3.0898,3.0898,3.0898,3.0898,3.0889,3.0605,3.0215,2.9902,2.9912,2.9785,2.9326,2.9131,2.9492,2.9912,2.9951,2.9648,2.9394,2.8975,2.8574,2.8437,2.8301,2.8105,2.7803,2.7422,2.7012,2.6611,2.625,2.5898,2.5703,2.5684,2.5684,2.5684,2.5684,2.5684,2.5684,2.5684,2.5684,2.5684,2.5684,2.5684,2.5265,2.4587,2.3976,2.2918,2.1845,2.0856,3.1025,3.0898,3.0898,3.0898,3.0898,3.0898,3.0898,3.0898,3.0898,3.0898,3.0898,3.0898,3.0898,3.0898,3.0898,3.0898,3.0898,3.0898,3.0898,3.0898,3.0898,3.0898,3.0859,3.0684,3.0205,2.9697,2.9326,2.8935,2.834,2.8457,2.8633,2.874,2.8584,2.8574,2.8545,2.8545,2.8447,2.8428,2.8408,2.8457,2.8369,2.8301,2.8301,2.8301,2.8301,2.8301,2.8301,2.8301,2.8301,2.8301,2.8301,2.8301,2.8301,2.8301,2.8301,2.8301,2.8301,2.8301,2.8486,2.8867,2.9336,2.9619,3.0088,3.0537,3.082,3.0889,3.0898,3.0898,3.0898,3.0898,3.0898,3.0898,3.0889,3.0889,3.0762,3.0361,2.9922,2.9902,2.9707,2.9277,2.9141,2.959,3.0,2.9961,2.9824,2.9609,2.9385,2.9023,2.8701,2.8603,2.8496,2.8213,2.7851,2.7441,2.6982,2.6484,2.6133,2.5742,2.5713,2.5752,2.5684,2.5684,2.5684,2.5684,2.5684,2.5684,2.5684,2.5684,2.5684,2.5635,2.5342,2.4726,2.4106,2.3144,2.2038,3.1269,3.0918,3.0898,3.0898,3.0898,3.0898,3.0898,3.0898,3.0898,3.0898,3.0898,3.0898,3.0898,3.0898,3.0898,3.0898,3.0898,3.0898,3.0898,3.0898,3.0898,3.0869,3.0684,3.042,2.9971,2.9541,2.917,2.8828,2.8379,2.8623,2.9014,2.9268,2.8975,2.8857,2.8809,2.8779,2.8613,2.8467,2.8496,2.8476,2.835,2.8301,2.8301,2.8301,2.8301,2.8301,2.8301,2.8301,2.8301,2.8301,2.8301,2.8301,2.8301,2.8301,2.8301,2.8301,2.8301,2.8301,2.8369,2.8769,2.918,2.959,3.0283,3.0693,3.0879,3.0898,3.0898,3.0898,3.0898,3.0898,3.0898,3.0898,3.0898,3.0889,3.0889,3.043,2.9853,2.96,2.9385,2.915,2.9004,2.9277,2.9726,2.9824,2.9951,2.998,2.9853,2.9863,2.9541,2.9268,2.9121,2.8857,2.8447,2.7939,2.7451,2.6982,2.6572,2.6289,2.5967,2.5918,2.583,2.5713,2.5684,2.5684,2.5684,2.5684,2.5684,2.5684,2.5684,2.5635,2.5586,2.5333,2.4716,2.4075,2.3061,3.1269,3.0898,3.0898,3.0898,3.0898,3.0898,3.0898,3.0898,3.0898,3.0898,3.0898,3.0898,3.0879,3.0898,3.0898,3.0879,3.0869,3.0898,3.0898,3.0859,3.0742,3.0625,3.043,3.0166,2.9726,2.9297,2.8926,2.8682,2.8476,2.8721,2.917,2.9414,2.9248,2.9062,2.9004,2.8935,2.8682,2.8506,2.8574,2.8437,2.835,2.8301,2.8301,2.8301,2.8301,2.8301,2.8301,2.8301,2.8301,2.8301,2.8301,2.8301,2.8301,2.8301,2.8301,2.8301,2.8301,2.8301,2.8359,2.8682,2.9092,2.9502,3.0098,3.0527,3.0762,3.0869,3.0879,3.0898,3.0898,3.0898,3.0898,3.0898,3.0898,3.0898,3.0859,3.0557,3.001,2.9629,2.9385,2.8945,2.8809,2.8945,2.9404,2.9863,3.001,3.0176,3.0303,3.0351,3.0293,2.999,2.9678,2.9404,2.9082,2.8584,2.8115,2.7646,2.7197,2.6797,2.6504,2.6221,2.6094,2.6006,2.5771,2.5684,2.5684,2.5684,2.5684,2.5684,2.5684,2.5684,2.5635,2.5528,2.5284,2.4637,2.4035,3.1426,3.0928,3.0898,3.0898,3.0898,3.0898,3.0898,3.0898,3.0898,3.0898,3.0898,3.0898,3.0791,3.0605,3.0576,3.0498,3.0322,3.0283,3.0283,3.0283,3.042,3.0176,2.999,2.9766,2.9385,2.8994,2.873,2.8506,2.8506,2.8955,2.9443,3.0068,2.9639,2.9453,2.9424,2.9336,2.9092,2.8867,2.8682,2.8476,2.8369,2.831,2.8301,2.8301,2.8301,2.8301,2.8301,2.8301,2.8301,2.8301,2.8301,2.8301,2.8301,2.8301,2.8301,2.8301,2.8301,2.8301,2.8359,2.8682,2.9014,2.9375,2.9844,3.0273,3.0566,3.0732,3.082,3.0898,3.0898,3.0898,3.0898,3.0898,3.0898,3.0898,3.0791,3.0674,3.0254,2.9814,2.9326,2.8799,2.8691,2.876,2.9111,2.9629,3.0059,3.0234,3.0469,3.0674,3.0644,3.0478,3.0156,2.9853,2.959,2.9258,2.8779,2.8301,2.7861,2.7461,2.7168,2.6875,2.6562,2.623,2.6035,2.5869,2.5684,2.5723,2.5801,2.5703,2.5684,2.5732,2.5781,2.5693,2.5576,2.5235,2.4627,3.167,3.0898,3.0898,3.0898,3.0898,3.0898,3.0898,3.0898,3.0898,3.0898,3.0898,3.0898,3.0654,3.0371,3.0303,3.0049,2.9883,2.9795,2.9814,2.959,2.9766,2.9678,2.9453,2.915,2.9004,2.8779,2.8613,2.8496,2.8682,2.9141,2.9873,3.0801,3.0332,3.0019,2.9941,2.9619,2.945,2.9297,2.8984,2.8701,2.8447,2.835,2.8301,2.8301,2.8301,2.8301,2.8301,2.8301,2.8301,2.8301,2.8301,2.8301,2.8301,2.8301,2.8301,2.8301,2.8301,2.8301,2.8359,2.8594,2.8799,2.917,2.9629,3.001,3.0283,3.0684,3.0859,3.0889,3.0898,3.0898,3.0898,3.0898,3.0898,3.0898,3.084,3.0625,3.0264,2.9736,2.9111,2.8662,2.8476,2.8564,2.8779,2.9297,2.9805,3.0127,3.0547,3.084,3.0859,3.0771,3.0576,3.0254,2.998,2.9697,2.9385,2.8916,2.8516,2.8154,2.7812,2.7444,2.6982,2.6602,2.624,2.6103,2.5977,2.5927,2.5947,2.5986,2.6054,2.6044,2.6035,2.5869,2.5703,2.5644,2.5302,3.166,3.0908,3.0898,3.0898,3.0889,3.0898,3.0879,3.0898,3.0898,3.0859,3.0889,3.084,3.0615,3.0195,3.0098,2.9853,2.956,2.9385,2.9541,2.9492,2.9473,2.9248,2.9121,2.8926,2.8721,2.8496,2.8408,2.8594,2.9101,2.9597,3.0037,3.0732,3.0469,3.0273,3.0254,2.9873,2.9763,2.9707,2.9307,2.9033,2.8867,2.8486,2.8301,2.8301,2.8301,2.8301,2.8301,2.8301,2.8301,2.8301,2.8301,2.8301,2.8301,2.8301,2.8301,2.8301,2.8301,2.8301,2.833,2.8447,2.8603,2.8828,2.9219,2.9639,3.0078,3.0596,3.0869,3.0879,3.0898,3.0898,3.0898,3.0898,3.0898,3.0898,3.0869,3.0566,3.0244,2.957,2.8906,2.8594,2.835,2.8428,2.8613,2.8994,2.9463,2.999,3.0547,3.0869,3.0889,3.085,3.084,3.0557,3.0293,3.0029,2.9805,2.9512,2.9101,2.8701,2.834,2.7881,2.7383,2.6894,2.6455,2.6357,2.6269,2.6309,2.6445,2.668,2.6709,2.6543,2.6465,2.6338,2.6328,2.6258,2.5975,3.167,3.0908,3.0664,3.0478,3.0322,3.0303,3.0303,3.0303,3.0303,3.0303,3.0351,3.0449,3.0332,2.9893,2.9736,2.9453,2.9101,2.8994,2.8926,2.8965,2.9043,2.8838,2.8711,2.8672,2.8525,2.832,2.8359,2.8682,2.9443,2.9648,2.9971,3.0703,3.0586,3.0478,3.0459,3.0254,3.0117,3.0156,2.9668,2.9473,2.9316,2.8818,2.835,2.8301,2.8301,2.8301,2.8301,2.8301,2.8301,2.8301,2.8301,2.8301,2.8301,2.8301,2.8301,2.8301,2.8301,2.8301,2.8301,2.834,2.8418,2.8613,2.8896,2.9346,2.9502,3.001,3.0674,3.0732,3.0869,3.0898,3.0898,3.0898,3.0898,3.0898,3.0801,3.0596,3.0039,2.9355,2.8818,2.8437,2.8301,2.832,2.8603,2.9092,2.9521,2.9775,3.0351,3.085,3.0889,3.0898,3.0898,3.084,3.0566,3.0498,3.041,3.0078,2.9658,2.9268,2.8799,2.8223,2.7637,2.709,2.667,2.667,2.6689,2.6728,2.6894,2.7119,2.7051,2.6836,2.6816,2.6807,2.6807,2.6807,2.6629,3.1562,3.0791,3.0371,2.9961,2.9665,2.9646,2.9609,2.9609,2.96,2.9609,2.9658,2.9912,2.9775,2.9453,2.9121,2.8691,2.8467,2.8535,2.8418,2.8398,2.8398,2.8447,2.8428,2.833,2.832,2.832,2.832,2.8857,2.9607,2.9639,2.9961,3.0703,3.0898,3.0879,3.0898,3.0869,3.0762,3.0596,3.0312,3.0156,2.9678,2.9062,2.8613,2.8398,2.832,2.8301,2.8301,2.8301,2.8301,2.8301,2.8301,2.8301,2.8301,2.8301,2.8301,2.8301,2.8301,2.8301,2.8301,2.8301,2.832,2.8418,2.873,2.8994,2.9189,2.9697,3.0371,3.0723,3.0859,3.0898,3.0898,3.0898,3.0898,3.081,3.0693,3.0498,2.9824,2.916,2.8711,2.831,2.8301,2.8301,2.8603,2.9111,2.9492,2.9746,3.0137,3.0576,3.0898,3.0898,3.0898,3.0898,3.0771,3.0771,3.083,3.04,2.9893,2.9512,2.9004,2.8447,2.79,2.7402,2.7109,2.71,2.7119,2.7178,2.7275,2.7441,2.7305,2.7226,2.7344,2.7393,2.7148,2.7168,2.7256,3.1133,3.0322,3.0225,2.9941,2.959,2.9551,2.958,2.957,2.9551,2.958,2.9453,2.9209,2.9082,2.9043,2.8994,2.8691,2.835,2.8301,2.8301,2.831,2.8301,2.8301,2.8379,2.8516,2.834,2.8379,2.8516,2.8848,2.958,2.9687,3.001,3.084,3.0889,3.0898,3.0898,3.0898,3.0879,3.0762,3.0547,3.0273,3.0019,2.9463,2.8955,2.8691,2.8476,2.8369,2.8301,2.8301,2.8301,2.8301,2.8301,2.8301,2.8301,2.8301,2.8301,2.8301,2.8301,2.8301,2.8301,2.8301,2.8301,2.833,2.8682,2.9092,2.9404,2.9893,3.0449,3.0859,3.0967,3.0937,3.0928,3.0898,3.0879,3.0654,3.0488,3.0117,2.9646,2.9004,2.8486,2.833,2.8301,2.831,2.8379,2.8926,2.9502,2.9834,3.0342,3.0752,3.0889,3.0898,3.0898,3.0898,3.0898,3.0898,3.0859,3.0381,2.9912,2.958,2.916,2.8525,2.8037,2.7754,2.7549,2.7539,2.7588,2.7656,2.7754,2.7783,2.7881,2.7861,2.8018,2.8018,2.7676,2.7578,2.7715]}]]